<?xml version="1.0" encoding="UTF-8" standalone="no" ?>
<gpx xmlns="http://www.topografix.com/GPX/1/1" xmlns:xsi="http://www.w3.org/2001/XMLSchema-instance" xsi:schemaLocation="http://www.topografix.com/GPX/1/1 http://www.topografix.com/GPX/1/1/gpx.xsd" version="1.1" creator="VisuGPX - https://www.visugpx.com">
  <metadata>
    <name>La tete du Roburent et ses 3 lacs</name>
    <desc><![CDATA[Les copains randonneurs du 04
départ parking de La Clapière après Larche 04]]></desc>
  </metadata>
  <trk>
    <name><![CDATA[La tete du Roburent et ses 3 lacs_1]]></name>
    <trkseg>
      <trkpt lat="44.4274" lon="6.88943">
        <ele>1931</ele>
        <time>2022-05-23T08:56:59+02:00</time>
      </trkpt>
      <trkpt lat="44.42742" lon="6.88958">
        <ele>1932</ele>
        <time>2022-05-23T08:57:00+02:00</time>
      </trkpt>
      <trkpt lat="44.42745" lon="6.88971">
        <ele>1934</ele>
        <time>2022-05-23T08:57:01+02:00</time>
      </trkpt>
      <trkpt lat="44.4275" lon="6.88999">
        <ele>1937</ele>
        <time>2022-05-23T08:57:04+02:00</time>
      </trkpt>
      <trkpt lat="44.42752" lon="6.89003">
        <ele>1937</ele>
        <time>2022-05-23T08:57:05+02:00</time>
      </trkpt>
      <trkpt lat="44.42754" lon="6.89005">
        <ele>1937</ele>
        <time>2022-05-23T08:57:06+02:00</time>
      </trkpt>
      <trkpt lat="44.42755" lon="6.89007">
        <ele>1938</ele>
        <time>2022-05-23T08:57:07+02:00</time>
      </trkpt>
      <trkpt lat="44.42756" lon="6.89008">
        <ele>1938</ele>
        <time>2022-05-23T08:57:08+02:00</time>
      </trkpt>
      <trkpt lat="44.42757" lon="6.8901">
        <ele>1938</ele>
        <time>2022-05-23T08:57:09+02:00</time>
      </trkpt>
      <trkpt lat="44.42758" lon="6.89012">
        <ele>1938</ele>
        <time>2022-05-23T08:57:10+02:00</time>
      </trkpt>
      <trkpt lat="44.42758" lon="6.89012">
        <ele>1938</ele>
        <time>2022-05-23T08:57:16+02:00</time>
      </trkpt>
      <trkpt lat="44.42758" lon="6.8901">
        <ele>1938</ele>
        <time>2022-05-23T08:57:17+02:00</time>
      </trkpt>
      <trkpt lat="44.42757" lon="6.89008">
        <ele>1938</ele>
        <time>2022-05-23T08:57:18+02:00</time>
      </trkpt>
      <trkpt lat="44.42757" lon="6.89006">
        <ele>1938</ele>
        <time>2022-05-23T08:57:19+02:00</time>
      </trkpt>
      <trkpt lat="44.42758" lon="6.89004">
        <ele>1938</ele>
        <time>2022-05-23T08:57:20+02:00</time>
      </trkpt>
      <trkpt lat="44.42757" lon="6.88985">
        <ele>1938</ele>
        <time>2022-05-23T08:57:35+02:00</time>
      </trkpt>
      <trkpt lat="44.42759" lon="6.8896">
        <ele>1936</ele>
        <time>2022-05-23T08:57:53+02:00</time>
      </trkpt>
      <trkpt lat="44.42774" lon="6.88936">
        <ele>1936</ele>
        <time>2022-05-23T08:58:11+02:00</time>
      </trkpt>
      <trkpt lat="44.42783" lon="6.88935">
        <ele>1938</ele>
        <time>2022-05-23T08:58:26+02:00</time>
      </trkpt>
      <trkpt lat="44.42786" lon="6.88938">
        <ele>1939</ele>
        <time>2022-05-23T08:58:37+02:00</time>
      </trkpt>
      <trkpt lat="44.42785" lon="6.88941">
        <ele>1939</ele>
        <time>2022-05-23T08:58:49+02:00</time>
      </trkpt>
      <trkpt lat="44.42787" lon="6.88941">
        <ele>1939</ele>
        <time>2022-05-23T08:59:12+02:00</time>
      </trkpt>
      <trkpt lat="44.42788" lon="6.88943">
        <ele>1940</ele>
        <time>2022-05-23T08:59:33+02:00</time>
      </trkpt>
      <trkpt lat="44.42788" lon="6.88945">
        <ele>1940</ele>
        <time>2022-05-23T08:59:57+02:00</time>
      </trkpt>
      <trkpt lat="44.4279" lon="6.88944">
        <ele>1940</ele>
        <time>2022-05-23T09:00:22+02:00</time>
      </trkpt>
      <trkpt lat="44.42788" lon="6.88945">
        <ele>1940</ele>
        <time>2022-05-23T09:00:45+02:00</time>
      </trkpt>
      <trkpt lat="44.42785" lon="6.88944">
        <ele>1939</ele>
        <time>2022-05-23T09:01:05+02:00</time>
      </trkpt>
      <trkpt lat="44.42785" lon="6.88944">
        <ele>1939</ele>
        <time>2022-05-23T09:01:28+02:00</time>
      </trkpt>
      <trkpt lat="44.42785" lon="6.88942">
        <ele>1939</ele>
        <time>2022-05-23T09:01:53+02:00</time>
      </trkpt>
      <trkpt lat="44.42786" lon="6.88944">
        <ele>1939</ele>
        <time>2022-05-23T09:02:17+02:00</time>
      </trkpt>
      <trkpt lat="44.42787" lon="6.88945">
        <ele>1940</ele>
        <time>2022-05-23T09:02:40+02:00</time>
      </trkpt>
      <trkpt lat="44.42786" lon="6.88943">
        <ele>1939</ele>
        <time>2022-05-23T09:03:01+02:00</time>
      </trkpt>
      <trkpt lat="44.42786" lon="6.88941">
        <ele>1939</ele>
        <time>2022-05-23T09:03:24+02:00</time>
      </trkpt>
      <trkpt lat="44.42789" lon="6.88941">
        <ele>1940</ele>
        <time>2022-05-23T09:03:46+02:00</time>
      </trkpt>
      <trkpt lat="44.42785" lon="6.88938">
        <ele>1939</ele>
        <time>2022-05-23T09:04:06+02:00</time>
      </trkpt>
      <trkpt lat="44.42788" lon="6.88939">
        <ele>1939</ele>
        <time>2022-05-23T09:04:22+02:00</time>
      </trkpt>
      <trkpt lat="44.42786" lon="6.8894">
        <ele>1939</ele>
        <time>2022-05-23T09:04:42+02:00</time>
      </trkpt>
      <trkpt lat="44.42787" lon="6.8894">
        <ele>1939</ele>
        <time>2022-05-23T09:04:56+02:00</time>
      </trkpt>
      <trkpt lat="44.42788" lon="6.88939">
        <ele>1939</ele>
        <time>2022-05-23T09:05:16+02:00</time>
      </trkpt>
      <trkpt lat="44.42787" lon="6.88938">
        <ele>1939</ele>
        <time>2022-05-23T09:05:34+02:00</time>
      </trkpt>
      <trkpt lat="44.42788" lon="6.88941">
        <ele>1940</ele>
        <time>2022-05-23T09:05:48+02:00</time>
      </trkpt>
      <trkpt lat="44.42785" lon="6.88943">
        <ele>1939</ele>
        <time>2022-05-23T09:06:06+02:00</time>
      </trkpt>
      <trkpt lat="44.4278" lon="6.88953">
        <ele>1939</ele>
        <time>2022-05-23T09:06:18+02:00</time>
      </trkpt>
      <trkpt lat="44.42784" lon="6.8896">
        <ele>1941</ele>
        <time>2022-05-23T09:06:29+02:00</time>
      </trkpt>
      <trkpt lat="44.42786" lon="6.88967">
        <ele>1942</ele>
        <time>2022-05-23T09:06:41+02:00</time>
      </trkpt>
      <trkpt lat="44.42787" lon="6.88971">
        <ele>1942</ele>
        <time>2022-05-23T09:06:47+02:00</time>
      </trkpt>
      <trkpt lat="44.42786" lon="6.88972">
        <ele>1942</ele>
        <time>2022-05-23T09:06:48+02:00</time>
      </trkpt>
      <trkpt lat="44.42786" lon="6.88973">
        <ele>1943</ele>
        <time>2022-05-23T09:06:49+02:00</time>
      </trkpt>
      <trkpt lat="44.42786" lon="6.88974">
        <ele>1943</ele>
        <time>2022-05-23T09:06:50+02:00</time>
      </trkpt>
      <trkpt lat="44.42786" lon="6.88989">
        <ele>1944</ele>
        <time>2022-05-23T09:07:05+02:00</time>
      </trkpt>
      <trkpt lat="44.4279" lon="6.89002">
        <ele>1946</ele>
        <time>2022-05-23T09:07:19+02:00</time>
      </trkpt>
      <trkpt lat="44.42791" lon="6.89004">
        <ele>1946</ele>
        <time>2022-05-23T09:07:21+02:00</time>
      </trkpt>
      <trkpt lat="44.42791" lon="6.89019">
        <ele>1947</ele>
        <time>2022-05-23T09:07:34+02:00</time>
      </trkpt>
      <trkpt lat="44.42791" lon="6.89029">
        <ele>1947</ele>
        <time>2022-05-23T09:07:46+02:00</time>
      </trkpt>
      <trkpt lat="44.42789" lon="6.89044">
        <ele>1947</ele>
        <time>2022-05-23T09:08:02+02:00</time>
      </trkpt>
      <trkpt lat="44.42788" lon="6.89066">
        <ele>1947</ele>
        <time>2022-05-23T09:08:18+02:00</time>
      </trkpt>
      <trkpt lat="44.42787" lon="6.89083">
        <ele>1947</ele>
        <time>2022-05-23T09:08:30+02:00</time>
      </trkpt>
      <trkpt lat="44.42786" lon="6.89095">
        <ele>1948</ele>
        <time>2022-05-23T09:08:46+02:00</time>
      </trkpt>
      <trkpt lat="44.42788" lon="6.89095">
        <ele>1949</ele>
        <time>2022-05-23T09:09:00+02:00</time>
      </trkpt>
      <trkpt lat="44.42791" lon="6.89106">
        <ele>1950</ele>
        <time>2022-05-23T09:09:13+02:00</time>
      </trkpt>
      <trkpt lat="44.42791" lon="6.89108">
        <ele>1951</ele>
        <time>2022-05-23T09:09:14+02:00</time>
      </trkpt>
      <trkpt lat="44.42792" lon="6.8913">
        <ele>1953</ele>
        <time>2022-05-23T09:09:30+02:00</time>
      </trkpt>
      <trkpt lat="44.42794" lon="6.89148">
        <ele>1955</ele>
        <time>2022-05-23T09:09:44+02:00</time>
      </trkpt>
      <trkpt lat="44.42796" lon="6.89165">
        <ele>1958</ele>
        <time>2022-05-23T09:09:59+02:00</time>
      </trkpt>
      <trkpt lat="44.42797" lon="6.89183">
        <ele>1959</ele>
        <time>2022-05-23T09:10:14+02:00</time>
      </trkpt>
      <trkpt lat="44.42801" lon="6.89198">
        <ele>1961</ele>
        <time>2022-05-23T09:10:29+02:00</time>
      </trkpt>
      <trkpt lat="44.42802" lon="6.892">
        <ele>1961</ele>
        <time>2022-05-23T09:10:31+02:00</time>
      </trkpt>
      <trkpt lat="44.42804" lon="6.89213">
        <ele>1962</ele>
        <time>2022-05-23T09:10:43+02:00</time>
      </trkpt>
      <trkpt lat="44.42806" lon="6.89227">
        <ele>1963</ele>
        <time>2022-05-23T09:10:54+02:00</time>
      </trkpt>
      <trkpt lat="44.42812" lon="6.89245">
        <ele>1965</ele>
        <time>2022-05-23T09:11:10+02:00</time>
      </trkpt>
      <trkpt lat="44.42819" lon="6.89257">
        <ele>1967</ele>
        <time>2022-05-23T09:11:22+02:00</time>
      </trkpt>
      <trkpt lat="44.4282" lon="6.89259">
        <ele>1967</ele>
        <time>2022-05-23T09:11:24+02:00</time>
      </trkpt>
      <trkpt lat="44.42821" lon="6.89261">
        <ele>1967</ele>
        <time>2022-05-23T09:11:26+02:00</time>
      </trkpt>
      <trkpt lat="44.42821" lon="6.89262">
        <ele>1967</ele>
        <time>2022-05-23T09:11:27+02:00</time>
      </trkpt>
      <trkpt lat="44.42822" lon="6.89264">
        <ele>1968</ele>
        <time>2022-05-23T09:11:28+02:00</time>
      </trkpt>
      <trkpt lat="44.42831" lon="6.89281">
        <ele>1970</ele>
        <time>2022-05-23T09:11:43+02:00</time>
      </trkpt>
      <trkpt lat="44.42846" lon="6.89293">
        <ele>1972</ele>
        <time>2022-05-23T09:12:02+02:00</time>
      </trkpt>
      <trkpt lat="44.42855" lon="6.89304">
        <ele>1973</ele>
        <time>2022-05-23T09:12:17+02:00</time>
      </trkpt>
      <trkpt lat="44.42856" lon="6.89305">
        <ele>1973</ele>
        <time>2022-05-23T09:12:26+02:00</time>
      </trkpt>
      <trkpt lat="44.42856" lon="6.89307">
        <ele>1973</ele>
        <time>2022-05-23T09:12:27+02:00</time>
      </trkpt>
      <trkpt lat="44.42857" lon="6.89308">
        <ele>1973</ele>
        <time>2022-05-23T09:12:28+02:00</time>
      </trkpt>
      <trkpt lat="44.42862" lon="6.89318">
        <ele>1974</ele>
        <time>2022-05-23T09:12:44+02:00</time>
      </trkpt>
      <trkpt lat="44.42867" lon="6.8933">
        <ele>1974</ele>
        <time>2022-05-23T09:13:05+02:00</time>
      </trkpt>
      <trkpt lat="44.42874" lon="6.89341">
        <ele>1975</ele>
        <time>2022-05-23T09:13:17+02:00</time>
      </trkpt>
      <trkpt lat="44.42892" lon="6.89361">
        <ele>1979</ele>
        <time>2022-05-23T09:13:38+02:00</time>
      </trkpt>
      <trkpt lat="44.42904" lon="6.89388">
        <ele>1983</ele>
        <time>2022-05-23T09:13:58+02:00</time>
      </trkpt>
      <trkpt lat="44.42912" lon="6.89399">
        <ele>1984</ele>
        <time>2022-05-23T09:14:14+02:00</time>
      </trkpt>
      <trkpt lat="44.42917" lon="6.89418">
        <ele>1986</ele>
        <time>2022-05-23T09:14:33+02:00</time>
      </trkpt>
      <trkpt lat="44.42923" lon="6.89423">
        <ele>1988</ele>
        <time>2022-05-23T09:14:49+02:00</time>
      </trkpt>
      <trkpt lat="44.42937" lon="6.89428">
        <ele>1992</ele>
        <time>2022-05-23T09:15:07+02:00</time>
      </trkpt>
      <trkpt lat="44.42948" lon="6.89437">
        <ele>1995</ele>
        <time>2022-05-23T09:15:23+02:00</time>
      </trkpt>
      <trkpt lat="44.42947" lon="6.89437">
        <ele>1995</ele>
        <time>2022-05-23T09:15:44+02:00</time>
      </trkpt>
      <trkpt lat="44.42951" lon="6.89442">
        <ele>1996</ele>
        <time>2022-05-23T09:16:08+02:00</time>
      </trkpt>
      <trkpt lat="44.4296" lon="6.89458">
        <ele>1999</ele>
        <time>2022-05-23T09:16:24+02:00</time>
      </trkpt>
      <trkpt lat="44.42968" lon="6.89471">
        <ele>2000</ele>
        <time>2022-05-23T09:16:40+02:00</time>
      </trkpt>
      <trkpt lat="44.42979" lon="6.89487">
        <ele>2004</ele>
        <time>2022-05-23T09:16:59+02:00</time>
      </trkpt>
      <trkpt lat="44.42988" lon="6.89502">
        <ele>2005</ele>
        <time>2022-05-23T09:17:15+02:00</time>
      </trkpt>
      <trkpt lat="44.43" lon="6.89513">
        <ele>2008</ele>
        <time>2022-05-23T09:17:33+02:00</time>
      </trkpt>
      <trkpt lat="44.43003" lon="6.89516">
        <ele>2008</ele>
        <time>2022-05-23T09:17:37+02:00</time>
      </trkpt>
      <trkpt lat="44.43015" lon="6.89527">
        <ele>2011</ele>
        <time>2022-05-23T09:17:54+02:00</time>
      </trkpt>
      <trkpt lat="44.43023" lon="6.89537">
        <ele>2014</ele>
        <time>2022-05-23T09:18:10+02:00</time>
      </trkpt>
      <trkpt lat="44.43032" lon="6.89549">
        <ele>2018</ele>
        <time>2022-05-23T09:18:27+02:00</time>
      </trkpt>
      <trkpt lat="44.43042" lon="6.89559">
        <ele>2022</ele>
        <time>2022-05-23T09:18:43+02:00</time>
      </trkpt>
      <trkpt lat="44.43051" lon="6.89574">
        <ele>2026</ele>
        <time>2022-05-23T09:19:00+02:00</time>
      </trkpt>
      <trkpt lat="44.43054" lon="6.8958">
        <ele>2028</ele>
        <time>2022-05-23T09:19:07+02:00</time>
      </trkpt>
      <trkpt lat="44.43062" lon="6.89586">
        <ele>2031</ele>
        <time>2022-05-23T09:19:21+02:00</time>
      </trkpt>
      <trkpt lat="44.43072" lon="6.89586">
        <ele>2034</ele>
        <time>2022-05-23T09:19:35+02:00</time>
      </trkpt>
      <trkpt lat="44.43077" lon="6.89585">
        <ele>2035</ele>
        <time>2022-05-23T09:19:52+02:00</time>
      </trkpt>
      <trkpt lat="44.43075" lon="6.89584">
        <ele>2035</ele>
        <time>2022-05-23T09:20:18+02:00</time>
      </trkpt>
      <trkpt lat="44.43078" lon="6.89585">
        <ele>2035</ele>
        <time>2022-05-23T09:20:47+02:00</time>
      </trkpt>
      <trkpt lat="44.43092" lon="6.89577">
        <ele>2038</ele>
        <time>2022-05-23T09:21:05+02:00</time>
      </trkpt>
      <trkpt lat="44.43095" lon="6.89574">
        <ele>2038</ele>
        <time>2022-05-23T09:21:11+02:00</time>
      </trkpt>
      <trkpt lat="44.43103" lon="6.89573">
        <ele>2039</ele>
        <time>2022-05-23T09:21:25+02:00</time>
      </trkpt>
      <trkpt lat="44.43108" lon="6.89577">
        <ele>2040</ele>
        <time>2022-05-23T09:21:31+02:00</time>
      </trkpt>
      <trkpt lat="44.4311" lon="6.89576">
        <ele>2040</ele>
        <time>2022-05-23T09:21:51+02:00</time>
      </trkpt>
      <trkpt lat="44.43112" lon="6.89568">
        <ele>2041</ele>
        <time>2022-05-23T09:22:08+02:00</time>
      </trkpt>
      <trkpt lat="44.43109" lon="6.89553">
        <ele>2041</ele>
        <time>2022-05-23T09:22:24+02:00</time>
      </trkpt>
      <trkpt lat="44.43112" lon="6.8954">
        <ele>2042</ele>
        <time>2022-05-23T09:22:38+02:00</time>
      </trkpt>
      <trkpt lat="44.43118" lon="6.89527">
        <ele>2045</ele>
        <time>2022-05-23T09:22:56+02:00</time>
      </trkpt>
      <trkpt lat="44.43124" lon="6.8953">
        <ele>2048</ele>
        <time>2022-05-23T09:23:11+02:00</time>
      </trkpt>
      <trkpt lat="44.43131" lon="6.8954">
        <ele>2050</ele>
        <time>2022-05-23T09:23:30+02:00</time>
      </trkpt>
      <trkpt lat="44.43139" lon="6.89554">
        <ele>2052</ele>
        <time>2022-05-23T09:23:48+02:00</time>
      </trkpt>
      <trkpt lat="44.4315" lon="6.89556">
        <ele>2057</ele>
        <time>2022-05-23T09:24:05+02:00</time>
      </trkpt>
      <trkpt lat="44.4316" lon="6.89555">
        <ele>2061</ele>
        <time>2022-05-23T09:24:22+02:00</time>
      </trkpt>
      <trkpt lat="44.43167" lon="6.89553">
        <ele>2064</ele>
        <time>2022-05-23T09:24:30+02:00</time>
      </trkpt>
      <trkpt lat="44.43184" lon="6.89543">
        <ele>2068</ele>
        <time>2022-05-23T09:24:50+02:00</time>
      </trkpt>
      <trkpt lat="44.43202" lon="6.89539">
        <ele>2072</ele>
        <time>2022-05-23T09:25:09+02:00</time>
      </trkpt>
      <trkpt lat="44.43215" lon="6.89547">
        <ele>2071</ele>
        <time>2022-05-23T09:25:28+02:00</time>
      </trkpt>
      <trkpt lat="44.43218" lon="6.89548">
        <ele>2071</ele>
        <time>2022-05-23T09:25:45+02:00</time>
      </trkpt>
      <trkpt lat="44.43222" lon="6.89546">
        <ele>2073</ele>
        <time>2022-05-23T09:26:04+02:00</time>
      </trkpt>
      <trkpt lat="44.43234" lon="6.89552">
        <ele>2074</ele>
        <time>2022-05-23T09:26:21+02:00</time>
      </trkpt>
      <trkpt lat="44.4324" lon="6.89553">
        <ele>2076</ele>
        <time>2022-05-23T09:26:35+02:00</time>
      </trkpt>
      <trkpt lat="44.43248" lon="6.89557">
        <ele>2078</ele>
        <time>2022-05-23T09:26:50+02:00</time>
      </trkpt>
      <trkpt lat="44.43256" lon="6.89554">
        <ele>2081</ele>
        <time>2022-05-23T09:27:05+02:00</time>
      </trkpt>
      <trkpt lat="44.43264" lon="6.89553">
        <ele>2085</ele>
        <time>2022-05-23T09:27:22+02:00</time>
      </trkpt>
      <trkpt lat="44.43274" lon="6.89556">
        <ele>2088</ele>
        <time>2022-05-23T09:27:37+02:00</time>
      </trkpt>
      <trkpt lat="44.43281" lon="6.89564">
        <ele>2091</ele>
        <time>2022-05-23T09:27:55+02:00</time>
      </trkpt>
      <trkpt lat="44.43294" lon="6.89562">
        <ele>2095</ele>
        <time>2022-05-23T09:28:12+02:00</time>
      </trkpt>
      <trkpt lat="44.43303" lon="6.89565">
        <ele>2098</ele>
        <time>2022-05-23T09:28:28+02:00</time>
      </trkpt>
      <trkpt lat="44.43315" lon="6.89576">
        <ele>2100</ele>
        <time>2022-05-23T09:28:44+02:00</time>
      </trkpt>
      <trkpt lat="44.43323" lon="6.89585">
        <ele>2100</ele>
        <time>2022-05-23T09:28:58+02:00</time>
      </trkpt>
      <trkpt lat="44.43324" lon="6.89603">
        <ele>2101</ele>
        <time>2022-05-23T09:29:15+02:00</time>
      </trkpt>
      <trkpt lat="44.43326" lon="6.89618">
        <ele>2102</ele>
        <time>2022-05-23T09:29:32+02:00</time>
      </trkpt>
      <trkpt lat="44.43328" lon="6.8963">
        <ele>2103</ele>
        <time>2022-05-23T09:29:50+02:00</time>
      </trkpt>
      <trkpt lat="44.4333" lon="6.89642">
        <ele>2104</ele>
        <time>2022-05-23T09:30:05+02:00</time>
      </trkpt>
      <trkpt lat="44.43341" lon="6.8965">
        <ele>2108</ele>
        <time>2022-05-23T09:30:23+02:00</time>
      </trkpt>
      <trkpt lat="44.43351" lon="6.8966">
        <ele>2111</ele>
        <time>2022-05-23T09:30:41+02:00</time>
      </trkpt>
      <trkpt lat="44.43361" lon="6.89668">
        <ele>2116</ele>
        <time>2022-05-23T09:30:58+02:00</time>
      </trkpt>
      <trkpt lat="44.43376" lon="6.8968">
        <ele>2121</ele>
        <time>2022-05-23T09:31:19+02:00</time>
      </trkpt>
      <trkpt lat="44.43389" lon="6.89704">
        <ele>2126</ele>
        <time>2022-05-23T09:31:41+02:00</time>
      </trkpt>
      <trkpt lat="44.43393" lon="6.89721">
        <ele>2124</ele>
        <time>2022-05-23T09:31:59+02:00</time>
      </trkpt>
      <trkpt lat="44.43401" lon="6.89736">
        <ele>2128</ele>
        <time>2022-05-23T09:32:17+02:00</time>
      </trkpt>
      <trkpt lat="44.43407" lon="6.8975">
        <ele>2131</ele>
        <time>2022-05-23T09:32:34+02:00</time>
      </trkpt>
      <trkpt lat="44.43413" lon="6.89763">
        <ele>2135</ele>
        <time>2022-05-23T09:32:50+02:00</time>
      </trkpt>
      <trkpt lat="44.43421" lon="6.89773">
        <ele>2138</ele>
        <time>2022-05-23T09:33:07+02:00</time>
      </trkpt>
      <trkpt lat="44.43427" lon="6.89787">
        <ele>2139</ele>
        <time>2022-05-23T09:33:25+02:00</time>
      </trkpt>
      <trkpt lat="44.43431" lon="6.89804">
        <ele>2138</ele>
        <time>2022-05-23T09:33:46+02:00</time>
      </trkpt>
      <trkpt lat="44.43428" lon="6.89803">
        <ele>2137</ele>
        <time>2022-05-23T09:34:09+02:00</time>
      </trkpt>
      <trkpt lat="44.43428" lon="6.898">
        <ele>2137</ele>
        <time>2022-05-23T09:34:33+02:00</time>
      </trkpt>
      <trkpt lat="44.43431" lon="6.898">
        <ele>2139</ele>
        <time>2022-05-23T09:34:53+02:00</time>
      </trkpt>
      <trkpt lat="44.43435" lon="6.89806">
        <ele>2139</ele>
        <time>2022-05-23T09:35:19+02:00</time>
      </trkpt>
      <trkpt lat="44.43434" lon="6.89806">
        <ele>2139</ele>
        <time>2022-05-23T09:35:38+02:00</time>
      </trkpt>
      <trkpt lat="44.43439" lon="6.89809">
        <ele>2141</ele>
        <time>2022-05-23T09:35:57+02:00</time>
      </trkpt>
      <trkpt lat="44.4344" lon="6.89809">
        <ele>2141</ele>
        <time>2022-05-23T09:35:58+02:00</time>
      </trkpt>
      <trkpt lat="44.43441" lon="6.8981">
        <ele>2142</ele>
        <time>2022-05-23T09:35:59+02:00</time>
      </trkpt>
      <trkpt lat="44.4346" lon="6.89819">
        <ele>2147</ele>
        <time>2022-05-23T09:36:20+02:00</time>
      </trkpt>
      <trkpt lat="44.43471" lon="6.89829">
        <ele>2150</ele>
        <time>2022-05-23T09:36:37+02:00</time>
      </trkpt>
      <trkpt lat="44.43486" lon="6.89836">
        <ele>2153</ele>
        <time>2022-05-23T09:36:54+02:00</time>
      </trkpt>
      <trkpt lat="44.43499" lon="6.89845">
        <ele>2156</ele>
        <time>2022-05-23T09:37:13+02:00</time>
      </trkpt>
      <trkpt lat="44.4351" lon="6.89862">
        <ele>2159</ele>
        <time>2022-05-23T09:37:31+02:00</time>
      </trkpt>
      <trkpt lat="44.43521" lon="6.89883">
        <ele>2162</ele>
        <time>2022-05-23T09:37:53+02:00</time>
      </trkpt>
      <trkpt lat="44.43532" lon="6.899">
        <ele>2165</ele>
        <time>2022-05-23T09:38:13+02:00</time>
      </trkpt>
      <trkpt lat="44.43545" lon="6.89916">
        <ele>2167</ele>
        <time>2022-05-23T09:38:33+02:00</time>
      </trkpt>
      <trkpt lat="44.43558" lon="6.89926">
        <ele>2169</ele>
        <time>2022-05-23T09:38:51+02:00</time>
      </trkpt>
      <trkpt lat="44.43562" lon="6.89928">
        <ele>2170</ele>
        <time>2022-05-23T09:38:56+02:00</time>
      </trkpt>
      <trkpt lat="44.43574" lon="6.89938">
        <ele>2173</ele>
        <time>2022-05-23T09:39:12+02:00</time>
      </trkpt>
      <trkpt lat="44.43584" lon="6.89953">
        <ele>2176</ele>
        <time>2022-05-23T09:39:28+02:00</time>
      </trkpt>
      <trkpt lat="44.43595" lon="6.89964">
        <ele>2179</ele>
        <time>2022-05-23T09:39:46+02:00</time>
      </trkpt>
      <trkpt lat="44.43603" lon="6.89976">
        <ele>2183</ele>
        <time>2022-05-23T09:40:05+02:00</time>
      </trkpt>
      <trkpt lat="44.4361" lon="6.8999">
        <ele>2185</ele>
        <time>2022-05-23T09:40:23+02:00</time>
      </trkpt>
      <trkpt lat="44.43614" lon="6.90005">
        <ele>2188</ele>
        <time>2022-05-23T09:40:40+02:00</time>
      </trkpt>
      <trkpt lat="44.4362" lon="6.90022">
        <ele>2191</ele>
        <time>2022-05-23T09:40:59+02:00</time>
      </trkpt>
      <trkpt lat="44.43626" lon="6.90043">
        <ele>2194</ele>
        <time>2022-05-23T09:41:18+02:00</time>
      </trkpt>
      <trkpt lat="44.43633" lon="6.9007">
        <ele>2196</ele>
        <time>2022-05-23T09:41:40+02:00</time>
      </trkpt>
      <trkpt lat="44.43646" lon="6.90091">
        <ele>2199</ele>
        <time>2022-05-23T09:42:00+02:00</time>
      </trkpt>
      <trkpt lat="44.43655" lon="6.90113">
        <ele>2201</ele>
        <time>2022-05-23T09:42:19+02:00</time>
      </trkpt>
      <trkpt lat="44.43657" lon="6.90122">
        <ele>2201</ele>
        <time>2022-05-23T09:42:26+02:00</time>
      </trkpt>
      <trkpt lat="44.43664" lon="6.90144">
        <ele>2202</ele>
        <time>2022-05-23T09:42:45+02:00</time>
      </trkpt>
      <trkpt lat="44.43675" lon="6.90155">
        <ele>2204</ele>
        <time>2022-05-23T09:43:01+02:00</time>
      </trkpt>
      <trkpt lat="44.43677" lon="6.90166">
        <ele>2204</ele>
        <time>2022-05-23T09:43:16+02:00</time>
      </trkpt>
      <trkpt lat="44.43685" lon="6.90184">
        <ele>2206</ele>
        <time>2022-05-23T09:43:31+02:00</time>
      </trkpt>
      <trkpt lat="44.43689" lon="6.9021">
        <ele>2207</ele>
        <time>2022-05-23T09:43:51+02:00</time>
      </trkpt>
      <trkpt lat="44.43693" lon="6.90235">
        <ele>2207</ele>
        <time>2022-05-23T09:44:11+02:00</time>
      </trkpt>
      <trkpt lat="44.43699" lon="6.9026">
        <ele>2209</ele>
        <time>2022-05-23T09:44:31+02:00</time>
      </trkpt>
      <trkpt lat="44.43711" lon="6.90279">
        <ele>2215</ele>
        <time>2022-05-23T09:44:47+02:00</time>
      </trkpt>
      <trkpt lat="44.43713" lon="6.90289">
        <ele>2216</ele>
        <time>2022-05-23T09:45:00+02:00</time>
      </trkpt>
      <trkpt lat="44.4372" lon="6.90312">
        <ele>2218</ele>
        <time>2022-05-23T09:45:20+02:00</time>
      </trkpt>
      <trkpt lat="44.43727" lon="6.9033">
        <ele>2220</ele>
        <time>2022-05-23T09:45:40+02:00</time>
      </trkpt>
      <trkpt lat="44.43734" lon="6.90343">
        <ele>2222</ele>
        <time>2022-05-23T09:45:57+02:00</time>
      </trkpt>
      <trkpt lat="44.43743" lon="6.9034">
        <ele>2224</ele>
        <time>2022-05-23T09:46:11+02:00</time>
      </trkpt>
      <trkpt lat="44.43756" lon="6.90342">
        <ele>2227</ele>
        <time>2022-05-23T09:46:28+02:00</time>
      </trkpt>
      <trkpt lat="44.4377" lon="6.9035">
        <ele>2229</ele>
        <time>2022-05-23T09:46:43+02:00</time>
      </trkpt>
      <trkpt lat="44.43771" lon="6.9035">
        <ele>2229</ele>
        <time>2022-05-23T09:46:44+02:00</time>
      </trkpt>
      <trkpt lat="44.4378" lon="6.90353">
        <ele>2230</ele>
        <time>2022-05-23T09:46:54+02:00</time>
      </trkpt>
      <trkpt lat="44.43786" lon="6.90356">
        <ele>2231</ele>
        <time>2022-05-23T09:47:00+02:00</time>
      </trkpt>
      <trkpt lat="44.43804" lon="6.90366">
        <ele>2232</ele>
        <time>2022-05-23T09:47:20+02:00</time>
      </trkpt>
      <trkpt lat="44.43818" lon="6.90373">
        <ele>2233</ele>
        <time>2022-05-23T09:47:35+02:00</time>
      </trkpt>
      <trkpt lat="44.43831" lon="6.90375">
        <ele>2236</ele>
        <time>2022-05-23T09:47:52+02:00</time>
      </trkpt>
      <trkpt lat="44.43839" lon="6.90366">
        <ele>2238</ele>
        <time>2022-05-23T09:48:08+02:00</time>
      </trkpt>
      <trkpt lat="44.43846" lon="6.90362">
        <ele>2239</ele>
        <time>2022-05-23T09:48:18+02:00</time>
      </trkpt>
      <trkpt lat="44.43858" lon="6.90354">
        <ele>2243</ele>
        <time>2022-05-23T09:48:32+02:00</time>
      </trkpt>
      <trkpt lat="44.43859" lon="6.90354">
        <ele>2243</ele>
        <time>2022-05-23T09:48:33+02:00</time>
      </trkpt>
      <trkpt lat="44.43872" lon="6.90348">
        <ele>2248</ele>
        <time>2022-05-23T09:48:49+02:00</time>
      </trkpt>
      <trkpt lat="44.43881" lon="6.90347">
        <ele>2252</ele>
        <time>2022-05-23T09:49:03+02:00</time>
      </trkpt>
      <trkpt lat="44.4389" lon="6.9035">
        <ele>2255</ele>
        <time>2022-05-23T09:49:17+02:00</time>
      </trkpt>
      <trkpt lat="44.43898" lon="6.9035">
        <ele>2257</ele>
        <time>2022-05-23T09:49:31+02:00</time>
      </trkpt>
      <trkpt lat="44.43909" lon="6.90349">
        <ele>2261</ele>
        <time>2022-05-23T09:49:48+02:00</time>
      </trkpt>
      <trkpt lat="44.43909" lon="6.90352">
        <ele>2261</ele>
        <time>2022-05-23T09:49:53+02:00</time>
      </trkpt>
      <trkpt lat="44.43907" lon="6.90358">
        <ele>2261</ele>
        <time>2022-05-23T09:50:09+02:00</time>
      </trkpt>
      <trkpt lat="44.43907" lon="6.9037">
        <ele>2261</ele>
        <time>2022-05-23T09:50:23+02:00</time>
      </trkpt>
      <trkpt lat="44.43907" lon="6.90381">
        <ele>2262</ele>
        <time>2022-05-23T09:50:34+02:00</time>
      </trkpt>
      <trkpt lat="44.43905" lon="6.90399">
        <ele>2262</ele>
        <time>2022-05-23T09:50:51+02:00</time>
      </trkpt>
      <trkpt lat="44.43908" lon="6.90402">
        <ele>2262</ele>
        <time>2022-05-23T09:51:03+02:00</time>
      </trkpt>
      <trkpt lat="44.4391" lon="6.90401">
        <ele>2263</ele>
        <time>2022-05-23T09:51:07+02:00</time>
      </trkpt>
      <trkpt lat="44.4392" lon="6.9041">
        <ele>2265</ele>
        <time>2022-05-23T09:51:20+02:00</time>
      </trkpt>
      <trkpt lat="44.4392" lon="6.90416">
        <ele>2264</ele>
        <time>2022-05-23T09:51:34+02:00</time>
      </trkpt>
      <trkpt lat="44.43918" lon="6.90419">
        <ele>2264</ele>
        <time>2022-05-23T09:51:48+02:00</time>
      </trkpt>
      <trkpt lat="44.43918" lon="6.90421">
        <ele>2264</ele>
        <time>2022-05-23T09:52:15+02:00</time>
      </trkpt>
      <trkpt lat="44.43917" lon="6.90425">
        <ele>2264</ele>
        <time>2022-05-23T09:52:32+02:00</time>
      </trkpt>
      <trkpt lat="44.43918" lon="6.90444">
        <ele>2265</ele>
        <time>2022-05-23T09:52:43+02:00</time>
      </trkpt>
      <trkpt lat="44.43919" lon="6.90464">
        <ele>2266</ele>
        <time>2022-05-23T09:52:56+02:00</time>
      </trkpt>
      <trkpt lat="44.43916" lon="6.90478">
        <ele>2266</ele>
        <time>2022-05-23T09:53:06+02:00</time>
      </trkpt>
      <trkpt lat="44.43912" lon="6.9049">
        <ele>2266</ele>
        <time>2022-05-23T09:53:15+02:00</time>
      </trkpt>
      <trkpt lat="44.43902" lon="6.90498">
        <ele>2266</ele>
        <time>2022-05-23T09:53:29+02:00</time>
      </trkpt>
      <trkpt lat="44.43901" lon="6.90502">
        <ele>2266</ele>
        <time>2022-05-23T09:53:33+02:00</time>
      </trkpt>
      <trkpt lat="44.43896" lon="6.90513">
        <ele>2266</ele>
        <time>2022-05-23T09:53:46+02:00</time>
      </trkpt>
      <trkpt lat="44.43892" lon="6.9054">
        <ele>2268</ele>
        <time>2022-05-23T09:54:05+02:00</time>
      </trkpt>
      <trkpt lat="44.43899" lon="6.90561">
        <ele>2271</ele>
        <time>2022-05-23T09:54:23+02:00</time>
      </trkpt>
      <trkpt lat="44.43905" lon="6.90576">
        <ele>2272</ele>
        <time>2022-05-23T09:54:39+02:00</time>
      </trkpt>
      <trkpt lat="44.43908" lon="6.90592">
        <ele>2274</ele>
        <time>2022-05-23T09:54:55+02:00</time>
      </trkpt>
      <trkpt lat="44.43914" lon="6.90611">
        <ele>2275</ele>
        <time>2022-05-23T09:55:10+02:00</time>
      </trkpt>
      <trkpt lat="44.43915" lon="6.90613">
        <ele>2275</ele>
        <time>2022-05-23T09:55:12+02:00</time>
      </trkpt>
      <trkpt lat="44.4392" lon="6.90626">
        <ele>2276</ele>
        <time>2022-05-23T09:55:24+02:00</time>
      </trkpt>
      <trkpt lat="44.43926" lon="6.90637">
        <ele>2277</ele>
        <time>2022-05-23T09:55:38+02:00</time>
      </trkpt>
      <trkpt lat="44.43933" lon="6.90651">
        <ele>2280</ele>
        <time>2022-05-23T09:55:55+02:00</time>
      </trkpt>
      <trkpt lat="44.43941" lon="6.9065">
        <ele>2279</ele>
        <time>2022-05-23T09:56:13+02:00</time>
      </trkpt>
      <trkpt lat="44.43944" lon="6.9065">
        <ele>2279</ele>
        <time>2022-05-23T09:56:16+02:00</time>
      </trkpt>
      <trkpt lat="44.43947" lon="6.90657">
        <ele>2281</ele>
        <time>2022-05-23T09:56:23+02:00</time>
      </trkpt>
      <trkpt lat="44.43947" lon="6.9066">
        <ele>2281</ele>
        <time>2022-05-23T09:56:25+02:00</time>
      </trkpt>
      <trkpt lat="44.43951" lon="6.90674">
        <ele>2283</ele>
        <time>2022-05-23T09:56:41+02:00</time>
      </trkpt>
      <trkpt lat="44.43953" lon="6.90675">
        <ele>2283</ele>
        <time>2022-05-23T09:56:43+02:00</time>
      </trkpt>
      <trkpt lat="44.43957" lon="6.90679">
        <ele>2283</ele>
        <time>2022-05-23T09:56:48+02:00</time>
      </trkpt>
      <trkpt lat="44.43967" lon="6.90703">
        <ele>2285</ele>
        <time>2022-05-23T09:57:04+02:00</time>
      </trkpt>
      <trkpt lat="44.43978" lon="6.90724">
        <ele>2286</ele>
        <time>2022-05-23T09:57:20+02:00</time>
      </trkpt>
      <trkpt lat="44.43982" lon="6.90731">
        <ele>2286</ele>
        <time>2022-05-23T09:57:34+02:00</time>
      </trkpt>
      <trkpt lat="44.43985" lon="6.90736">
        <ele>2286</ele>
        <time>2022-05-23T09:57:38+02:00</time>
      </trkpt>
      <trkpt lat="44.43993" lon="6.90742">
        <ele>2285</ele>
        <time>2022-05-23T09:57:51+02:00</time>
      </trkpt>
      <trkpt lat="44.44002" lon="6.90759">
        <ele>2286</ele>
        <time>2022-05-23T09:58:03+02:00</time>
      </trkpt>
      <trkpt lat="44.44005" lon="6.90771">
        <ele>2287</ele>
        <time>2022-05-23T09:58:10+02:00</time>
      </trkpt>
      <trkpt lat="44.44006" lon="6.90779">
        <ele>2287</ele>
        <time>2022-05-23T09:58:16+02:00</time>
      </trkpt>
      <trkpt lat="44.44012" lon="6.90787">
        <ele>2288</ele>
        <time>2022-05-23T09:58:27+02:00</time>
      </trkpt>
      <trkpt lat="44.44022" lon="6.90794">
        <ele>2289</ele>
        <time>2022-05-23T09:58:43+02:00</time>
      </trkpt>
      <trkpt lat="44.44019" lon="6.908">
        <ele>2289</ele>
        <time>2022-05-23T09:58:57+02:00</time>
      </trkpt>
      <trkpt lat="44.44018" lon="6.90802">
        <ele>2289</ele>
        <time>2022-05-23T09:59:10+02:00</time>
      </trkpt>
      <trkpt lat="44.44017" lon="6.90804">
        <ele>2289</ele>
        <time>2022-05-23T09:59:12+02:00</time>
      </trkpt>
      <trkpt lat="44.44015" lon="6.90809">
        <ele>2289</ele>
        <time>2022-05-23T09:59:15+02:00</time>
      </trkpt>
      <trkpt lat="44.44016" lon="6.90816">
        <ele>2289</ele>
        <time>2022-05-23T09:59:19+02:00</time>
      </trkpt>
      <trkpt lat="44.44015" lon="6.90824">
        <ele>2290</ele>
        <time>2022-05-23T09:59:26+02:00</time>
      </trkpt>
      <trkpt lat="44.44005" lon="6.90838">
        <ele>2291</ele>
        <time>2022-05-23T09:59:39+02:00</time>
      </trkpt>
      <trkpt lat="44.44005" lon="6.9084">
        <ele>2291</ele>
        <time>2022-05-23T09:59:53+02:00</time>
      </trkpt>
      <trkpt lat="44.44001" lon="6.9084">
        <ele>2291</ele>
        <time>2022-05-23T10:00:18+02:00</time>
      </trkpt>
      <trkpt lat="44.44005" lon="6.90844">
        <ele>2291</ele>
        <time>2022-05-23T10:00:31+02:00</time>
      </trkpt>
      <trkpt lat="44.44015" lon="6.90852">
        <ele>2293</ele>
        <time>2022-05-23T10:00:41+02:00</time>
      </trkpt>
      <trkpt lat="44.44019" lon="6.90877">
        <ele>2297</ele>
        <time>2022-05-23T10:00:59+02:00</time>
      </trkpt>
      <trkpt lat="44.4402" lon="6.9088">
        <ele>2297</ele>
        <time>2022-05-23T10:01:01+02:00</time>
      </trkpt>
      <trkpt lat="44.44024" lon="6.90896">
        <ele>2301</ele>
        <time>2022-05-23T10:01:18+02:00</time>
      </trkpt>
      <trkpt lat="44.44025" lon="6.90906">
        <ele>2302</ele>
        <time>2022-05-23T10:01:35+02:00</time>
      </trkpt>
      <trkpt lat="44.44029" lon="6.90918">
        <ele>2304</ele>
        <time>2022-05-23T10:01:54+02:00</time>
      </trkpt>
      <trkpt lat="44.4403" lon="6.90922">
        <ele>2305</ele>
        <time>2022-05-23T10:02:02+02:00</time>
      </trkpt>
      <trkpt lat="44.44038" lon="6.90936">
        <ele>2306</ele>
        <time>2022-05-23T10:02:17+02:00</time>
      </trkpt>
      <trkpt lat="44.44039" lon="6.90939">
        <ele>2307</ele>
        <time>2022-05-23T10:02:20+02:00</time>
      </trkpt>
      <trkpt lat="44.44042" lon="6.90959">
        <ele>2309</ele>
        <time>2022-05-23T10:02:36+02:00</time>
      </trkpt>
      <trkpt lat="44.44043" lon="6.90978">
        <ele>2313</ele>
        <time>2022-05-23T10:02:52+02:00</time>
      </trkpt>
      <trkpt lat="44.44051" lon="6.91002">
        <ele>2314</ele>
        <time>2022-05-23T10:03:12+02:00</time>
      </trkpt>
      <trkpt lat="44.44059" lon="6.91021">
        <ele>2314</ele>
        <time>2022-05-23T10:03:28+02:00</time>
      </trkpt>
      <trkpt lat="44.44059" lon="6.91043">
        <ele>2316</ele>
        <time>2022-05-23T10:03:44+02:00</time>
      </trkpt>
      <trkpt lat="44.44053" lon="6.91065">
        <ele>2319</ele>
        <time>2022-05-23T10:04:02+02:00</time>
      </trkpt>
      <trkpt lat="44.44053" lon="6.91072">
        <ele>2320</ele>
        <time>2022-05-23T10:04:08+02:00</time>
      </trkpt>
      <trkpt lat="44.4405" lon="6.91075">
        <ele>2321</ele>
        <time>2022-05-23T10:04:10+02:00</time>
      </trkpt>
      <trkpt lat="44.44045" lon="6.91097">
        <ele>2324</ele>
        <time>2022-05-23T10:04:26+02:00</time>
      </trkpt>
      <trkpt lat="44.4404" lon="6.91113">
        <ele>2325</ele>
        <time>2022-05-23T10:04:38+02:00</time>
      </trkpt>
      <trkpt lat="44.44035" lon="6.91136">
        <ele>2327</ele>
        <time>2022-05-23T10:04:58+02:00</time>
      </trkpt>
      <trkpt lat="44.44032" lon="6.91148">
        <ele>2327</ele>
        <time>2022-05-23T10:05:10+02:00</time>
      </trkpt>
      <trkpt lat="44.44028" lon="6.91155">
        <ele>2328</ele>
        <time>2022-05-23T10:05:16+02:00</time>
      </trkpt>
      <trkpt lat="44.44028" lon="6.91175">
        <ele>2328</ele>
        <time>2022-05-23T10:05:29+02:00</time>
      </trkpt>
      <trkpt lat="44.44029" lon="6.91181">
        <ele>2328</ele>
        <time>2022-05-23T10:05:34+02:00</time>
      </trkpt>
      <trkpt lat="44.44026" lon="6.91194">
        <ele>2329</ele>
        <time>2022-05-23T10:05:44+02:00</time>
      </trkpt>
      <trkpt lat="44.44024" lon="6.912">
        <ele>2330</ele>
        <time>2022-05-23T10:05:49+02:00</time>
      </trkpt>
      <trkpt lat="44.4402" lon="6.91212">
        <ele>2330</ele>
        <time>2022-05-23T10:06:06+02:00</time>
      </trkpt>
      <trkpt lat="44.44016" lon="6.9122">
        <ele>2331</ele>
        <time>2022-05-23T10:06:20+02:00</time>
      </trkpt>
      <trkpt lat="44.44014" lon="6.91232">
        <ele>2332</ele>
        <time>2022-05-23T10:06:32+02:00</time>
      </trkpt>
      <trkpt lat="44.44012" lon="6.91238">
        <ele>2332</ele>
        <time>2022-05-23T10:06:39+02:00</time>
      </trkpt>
      <trkpt lat="44.44009" lon="6.91243">
        <ele>2333</ele>
        <time>2022-05-23T10:06:43+02:00</time>
      </trkpt>
      <trkpt lat="44.44002" lon="6.91264">
        <ele>2335</ele>
        <time>2022-05-23T10:06:59+02:00</time>
      </trkpt>
      <trkpt lat="44.44001" lon="6.91278">
        <ele>2336</ele>
        <time>2022-05-23T10:07:14+02:00</time>
      </trkpt>
      <trkpt lat="44.43999" lon="6.91281">
        <ele>2336</ele>
        <time>2022-05-23T10:07:20+02:00</time>
      </trkpt>
      <trkpt lat="44.43994" lon="6.91285">
        <ele>2337</ele>
        <time>2022-05-23T10:07:25+02:00</time>
      </trkpt>
      <trkpt lat="44.4399" lon="6.91289">
        <ele>2338</ele>
        <time>2022-05-23T10:07:31+02:00</time>
      </trkpt>
      <trkpt lat="44.4398" lon="6.91299">
        <ele>2339</ele>
        <time>2022-05-23T10:07:43+02:00</time>
      </trkpt>
      <trkpt lat="44.43971" lon="6.91304">
        <ele>2339</ele>
        <time>2022-05-23T10:07:53+02:00</time>
      </trkpt>
      <trkpt lat="44.43961" lon="6.91322">
        <ele>2340</ele>
        <time>2022-05-23T10:08:07+02:00</time>
      </trkpt>
      <trkpt lat="44.43947" lon="6.91332">
        <ele>2340</ele>
        <time>2022-05-23T10:08:23+02:00</time>
      </trkpt>
      <trkpt lat="44.43946" lon="6.91333">
        <ele>2340</ele>
        <time>2022-05-23T10:08:25+02:00</time>
      </trkpt>
      <trkpt lat="44.43933" lon="6.91348">
        <ele>2341</ele>
        <time>2022-05-23T10:08:41+02:00</time>
      </trkpt>
      <trkpt lat="44.43926" lon="6.91358">
        <ele>2341</ele>
        <time>2022-05-23T10:08:58+02:00</time>
      </trkpt>
      <trkpt lat="44.43922" lon="6.91366">
        <ele>2341</ele>
        <time>2022-05-23T10:09:11+02:00</time>
      </trkpt>
      <trkpt lat="44.4392" lon="6.91381">
        <ele>2342</ele>
        <time>2022-05-23T10:09:24+02:00</time>
      </trkpt>
      <trkpt lat="44.43919" lon="6.91396">
        <ele>2345</ele>
        <time>2022-05-23T10:09:35+02:00</time>
      </trkpt>
      <trkpt lat="44.43908" lon="6.91415">
        <ele>2348</ele>
        <time>2022-05-23T10:09:52+02:00</time>
      </trkpt>
      <trkpt lat="44.43898" lon="6.91421">
        <ele>2348</ele>
        <time>2022-05-23T10:10:05+02:00</time>
      </trkpt>
      <trkpt lat="44.43889" lon="6.91432">
        <ele>2349</ele>
        <time>2022-05-23T10:10:19+02:00</time>
      </trkpt>
      <trkpt lat="44.43874" lon="6.91456">
        <ele>2352</ele>
        <time>2022-05-23T10:10:39+02:00</time>
      </trkpt>
      <trkpt lat="44.43863" lon="6.91476">
        <ele>2355</ele>
        <time>2022-05-23T10:10:57+02:00</time>
      </trkpt>
      <trkpt lat="44.43857" lon="6.91492">
        <ele>2357</ele>
        <time>2022-05-23T10:11:14+02:00</time>
      </trkpt>
      <trkpt lat="44.43849" lon="6.91507">
        <ele>2359</ele>
        <time>2022-05-23T10:11:31+02:00</time>
      </trkpt>
      <trkpt lat="44.43841" lon="6.91521">
        <ele>2360</ele>
        <time>2022-05-23T10:11:48+02:00</time>
      </trkpt>
      <trkpt lat="44.43836" lon="6.91527">
        <ele>2360</ele>
        <time>2022-05-23T10:12:02+02:00</time>
      </trkpt>
      <trkpt lat="44.43833" lon="6.91535">
        <ele>2361</ele>
        <time>2022-05-23T10:12:15+02:00</time>
      </trkpt>
      <trkpt lat="44.43835" lon="6.91533">
        <ele>2361</ele>
        <time>2022-05-23T10:12:39+02:00</time>
      </trkpt>
      <trkpt lat="44.43833" lon="6.91537">
        <ele>2361</ele>
        <time>2022-05-23T10:13:02+02:00</time>
      </trkpt>
      <trkpt lat="44.43841" lon="6.91533">
        <ele>2362</ele>
        <time>2022-05-23T10:13:24+02:00</time>
      </trkpt>
      <trkpt lat="44.43837" lon="6.91532">
        <ele>2361</ele>
        <time>2022-05-23T10:13:43+02:00</time>
      </trkpt>
      <trkpt lat="44.43832" lon="6.91543">
        <ele>2362</ele>
        <time>2022-05-23T10:14:00+02:00</time>
      </trkpt>
      <trkpt lat="44.43828" lon="6.91559">
        <ele>2364</ele>
        <time>2022-05-23T10:14:13+02:00</time>
      </trkpt>
      <trkpt lat="44.43825" lon="6.91576">
        <ele>2364</ele>
        <time>2022-05-23T10:14:28+02:00</time>
      </trkpt>
      <trkpt lat="44.43823" lon="6.9158">
        <ele>2364</ele>
        <time>2022-05-23T10:14:35+02:00</time>
      </trkpt>
      <trkpt lat="44.43812" lon="6.91597">
        <ele>2364</ele>
        <time>2022-05-23T10:14:52+02:00</time>
      </trkpt>
      <trkpt lat="44.43807" lon="6.91603">
        <ele>2364</ele>
        <time>2022-05-23T10:14:58+02:00</time>
      </trkpt>
      <trkpt lat="44.43799" lon="6.91607">
        <ele>2365</ele>
        <time>2022-05-23T10:15:07+02:00</time>
      </trkpt>
      <trkpt lat="44.43787" lon="6.91628">
        <ele>2368</ele>
        <time>2022-05-23T10:15:25+02:00</time>
      </trkpt>
      <trkpt lat="44.43772" lon="6.91645">
        <ele>2370</ele>
        <time>2022-05-23T10:15:42+02:00</time>
      </trkpt>
      <trkpt lat="44.43762" lon="6.91658">
        <ele>2371</ele>
        <time>2022-05-23T10:15:54+02:00</time>
      </trkpt>
      <trkpt lat="44.43748" lon="6.91676">
        <ele>2373</ele>
        <time>2022-05-23T10:16:11+02:00</time>
      </trkpt>
      <trkpt lat="44.43734" lon="6.91691">
        <ele>2373</ele>
        <time>2022-05-23T10:16:25+02:00</time>
      </trkpt>
      <trkpt lat="44.43729" lon="6.91693">
        <ele>2373</ele>
        <time>2022-05-23T10:16:29+02:00</time>
      </trkpt>
      <trkpt lat="44.43708" lon="6.91701">
        <ele>2373</ele>
        <time>2022-05-23T10:16:48+02:00</time>
      </trkpt>
      <trkpt lat="44.43689" lon="6.91721">
        <ele>2377</ele>
        <time>2022-05-23T10:17:06+02:00</time>
      </trkpt>
      <trkpt lat="44.43683" lon="6.91729">
        <ele>2379</ele>
        <time>2022-05-23T10:17:12+02:00</time>
      </trkpt>
      <trkpt lat="44.43666" lon="6.91733">
        <ele>2381</ele>
        <time>2022-05-23T10:17:28+02:00</time>
      </trkpt>
      <trkpt lat="44.43651" lon="6.91745">
        <ele>2384</ele>
        <time>2022-05-23T10:17:45+02:00</time>
      </trkpt>
      <trkpt lat="44.43646" lon="6.91749">
        <ele>2385</ele>
        <time>2022-05-23T10:17:49+02:00</time>
      </trkpt>
      <trkpt lat="44.43627" lon="6.91757">
        <ele>2387</ele>
        <time>2022-05-23T10:18:08+02:00</time>
      </trkpt>
      <trkpt lat="44.43609" lon="6.91763">
        <ele>2388</ele>
        <time>2022-05-23T10:18:26+02:00</time>
      </trkpt>
      <trkpt lat="44.43596" lon="6.91772">
        <ele>2390</ele>
        <time>2022-05-23T10:18:41+02:00</time>
      </trkpt>
      <trkpt lat="44.43573" lon="6.91787">
        <ele>2393</ele>
        <time>2022-05-23T10:18:59+02:00</time>
      </trkpt>
      <trkpt lat="44.43559" lon="6.91798">
        <ele>2396</ele>
        <time>2022-05-23T10:19:14+02:00</time>
      </trkpt>
      <trkpt lat="44.43543" lon="6.91807">
        <ele>2397</ele>
        <time>2022-05-23T10:19:31+02:00</time>
      </trkpt>
      <trkpt lat="44.43538" lon="6.91809">
        <ele>2397</ele>
        <time>2022-05-23T10:19:36+02:00</time>
      </trkpt>
      <trkpt lat="44.43518" lon="6.91821">
        <ele>2397</ele>
        <time>2022-05-23T10:19:55+02:00</time>
      </trkpt>
      <trkpt lat="44.43501" lon="6.91839">
        <ele>2399</ele>
        <time>2022-05-23T10:20:13+02:00</time>
      </trkpt>
      <trkpt lat="44.43488" lon="6.91862">
        <ele>2404</ele>
        <time>2022-05-23T10:20:31+02:00</time>
      </trkpt>
      <trkpt lat="44.43472" lon="6.91881">
        <ele>2404</ele>
        <time>2022-05-23T10:20:49+02:00</time>
      </trkpt>
      <trkpt lat="44.43464" lon="6.91898">
        <ele>2406</ele>
        <time>2022-05-23T10:21:03+02:00</time>
      </trkpt>
      <trkpt lat="44.43456" lon="6.91925">
        <ele>2409</ele>
        <time>2022-05-23T10:21:21+02:00</time>
      </trkpt>
      <trkpt lat="44.43447" lon="6.91942">
        <ele>2410</ele>
        <time>2022-05-23T10:21:35+02:00</time>
      </trkpt>
      <trkpt lat="44.43437" lon="6.91957">
        <ele>2411</ele>
        <time>2022-05-23T10:21:51+02:00</time>
      </trkpt>
      <trkpt lat="44.43432" lon="6.91968">
        <ele>2412</ele>
        <time>2022-05-23T10:22:02+02:00</time>
      </trkpt>
      <trkpt lat="44.4343" lon="6.91973">
        <ele>2413</ele>
        <time>2022-05-23T10:22:06+02:00</time>
      </trkpt>
      <trkpt lat="44.43423" lon="6.91996">
        <ele>2414</ele>
        <time>2022-05-23T10:22:24+02:00</time>
      </trkpt>
      <trkpt lat="44.43418" lon="6.92008">
        <ele>2414</ele>
        <time>2022-05-23T10:22:36+02:00</time>
      </trkpt>
      <trkpt lat="44.4341" lon="6.9203">
        <ele>2415</ele>
        <time>2022-05-23T10:22:52+02:00</time>
      </trkpt>
      <trkpt lat="44.43406" lon="6.92037">
        <ele>2415</ele>
        <time>2022-05-23T10:23:08+02:00</time>
      </trkpt>
      <trkpt lat="44.43405" lon="6.92039">
        <ele>2416</ele>
        <time>2022-05-23T10:23:25+02:00</time>
      </trkpt>
      <trkpt lat="44.43405" lon="6.9204">
        <ele>2416</ele>
        <time>2022-05-23T10:23:44+02:00</time>
      </trkpt>
      <trkpt lat="44.43405" lon="6.92041">
        <ele>2416</ele>
        <time>2022-05-23T10:24:06+02:00</time>
      </trkpt>
      <trkpt lat="44.434" lon="6.92064">
        <ele>2417</ele>
        <time>2022-05-23T10:24:23+02:00</time>
      </trkpt>
      <trkpt lat="44.43399" lon="6.92068">
        <ele>2417</ele>
        <time>2022-05-23T10:24:26+02:00</time>
      </trkpt>
      <trkpt lat="44.4339" lon="6.92095">
        <ele>2418</ele>
        <time>2022-05-23T10:24:47+02:00</time>
      </trkpt>
      <trkpt lat="44.43388" lon="6.92097">
        <ele>2418</ele>
        <time>2022-05-23T10:24:57+02:00</time>
      </trkpt>
      <trkpt lat="44.43386" lon="6.92102">
        <ele>2419</ele>
        <time>2022-05-23T10:25:01+02:00</time>
      </trkpt>
      <trkpt lat="44.43381" lon="6.92116">
        <ele>2419</ele>
        <time>2022-05-23T10:25:15+02:00</time>
      </trkpt>
      <trkpt lat="44.43373" lon="6.92141">
        <ele>2420</ele>
        <time>2022-05-23T10:25:32+02:00</time>
      </trkpt>
      <trkpt lat="44.43372" lon="6.92145">
        <ele>2421</ele>
        <time>2022-05-23T10:25:39+02:00</time>
      </trkpt>
      <trkpt lat="44.43369" lon="6.92148">
        <ele>2421</ele>
        <time>2022-05-23T10:25:45+02:00</time>
      </trkpt>
      <trkpt lat="44.43365" lon="6.92163">
        <ele>2422</ele>
        <time>2022-05-23T10:26:02+02:00</time>
      </trkpt>
      <trkpt lat="44.43365" lon="6.92164">
        <ele>2422</ele>
        <time>2022-05-23T10:26:04+02:00</time>
      </trkpt>
      <trkpt lat="44.43361" lon="6.92188">
        <ele>2424</ele>
        <time>2022-05-23T10:26:21+02:00</time>
      </trkpt>
      <trkpt lat="44.43355" lon="6.92202">
        <ele>2425</ele>
        <time>2022-05-23T10:26:35+02:00</time>
      </trkpt>
      <trkpt lat="44.43352" lon="6.92213">
        <ele>2426</ele>
        <time>2022-05-23T10:26:48+02:00</time>
      </trkpt>
      <trkpt lat="44.4334" lon="6.92244">
        <ele>2429</ele>
        <time>2022-05-23T10:27:09+02:00</time>
      </trkpt>
      <trkpt lat="44.43332" lon="6.92263">
        <ele>2431</ele>
        <time>2022-05-23T10:27:26+02:00</time>
      </trkpt>
      <trkpt lat="44.43329" lon="6.92268">
        <ele>2431</ele>
        <time>2022-05-23T10:27:30+02:00</time>
      </trkpt>
      <trkpt lat="44.43327" lon="6.92288">
        <ele>2433</ele>
        <time>2022-05-23T10:27:45+02:00</time>
      </trkpt>
      <trkpt lat="44.43323" lon="6.92301">
        <ele>2435</ele>
        <time>2022-05-23T10:27:56+02:00</time>
      </trkpt>
      <trkpt lat="44.43315" lon="6.92322">
        <ele>2437</ele>
        <time>2022-05-23T10:28:14+02:00</time>
      </trkpt>
      <trkpt lat="44.43306" lon="6.92339">
        <ele>2439</ele>
        <time>2022-05-23T10:28:29+02:00</time>
      </trkpt>
      <trkpt lat="44.43299" lon="6.92354">
        <ele>2441</ele>
        <time>2022-05-23T10:28:44+02:00</time>
      </trkpt>
      <trkpt lat="44.43296" lon="6.92365">
        <ele>2442</ele>
        <time>2022-05-23T10:28:54+02:00</time>
      </trkpt>
      <trkpt lat="44.43283" lon="6.92382">
        <ele>2445</ele>
        <time>2022-05-23T10:29:10+02:00</time>
      </trkpt>
      <trkpt lat="44.4328" lon="6.92392">
        <ele>2447</ele>
        <time>2022-05-23T10:29:18+02:00</time>
      </trkpt>
      <trkpt lat="44.43272" lon="6.92416">
        <ele>2449</ele>
        <time>2022-05-23T10:29:37+02:00</time>
      </trkpt>
      <trkpt lat="44.43262" lon="6.92441">
        <ele>2451</ele>
        <time>2022-05-23T10:29:56+02:00</time>
      </trkpt>
      <trkpt lat="44.43256" lon="6.92466">
        <ele>2453</ele>
        <time>2022-05-23T10:30:15+02:00</time>
      </trkpt>
      <trkpt lat="44.43256" lon="6.92467">
        <ele>2453</ele>
        <time>2022-05-23T10:30:16+02:00</time>
      </trkpt>
      <trkpt lat="44.43253" lon="6.9249">
        <ele>2456</ele>
        <time>2022-05-23T10:30:34+02:00</time>
      </trkpt>
      <trkpt lat="44.43252" lon="6.92493">
        <ele>2456</ele>
        <time>2022-05-23T10:30:36+02:00</time>
      </trkpt>
      <trkpt lat="44.43248" lon="6.92511">
        <ele>2459</ele>
        <time>2022-05-23T10:30:48+02:00</time>
      </trkpt>
      <trkpt lat="44.43244" lon="6.92528">
        <ele>2461</ele>
        <time>2022-05-23T10:31:00+02:00</time>
      </trkpt>
      <trkpt lat="44.43237" lon="6.92545">
        <ele>2463</ele>
        <time>2022-05-23T10:31:14+02:00</time>
      </trkpt>
      <trkpt lat="44.4323" lon="6.92559">
        <ele>2465</ele>
        <time>2022-05-23T10:31:32+02:00</time>
      </trkpt>
      <trkpt lat="44.43227" lon="6.92561">
        <ele>2466</ele>
        <time>2022-05-23T10:31:47+02:00</time>
      </trkpt>
      <trkpt lat="44.43222" lon="6.92562">
        <ele>2466</ele>
        <time>2022-05-23T10:32:01+02:00</time>
      </trkpt>
      <trkpt lat="44.4322" lon="6.92562">
        <ele>2466</ele>
        <time>2022-05-23T10:32:12+02:00</time>
      </trkpt>
      <trkpt lat="44.43218" lon="6.92563">
        <ele>2466</ele>
        <time>2022-05-23T10:32:34+02:00</time>
      </trkpt>
      <trkpt lat="44.4321" lon="6.92567">
        <ele>2467</ele>
        <time>2022-05-23T10:32:49+02:00</time>
      </trkpt>
      <trkpt lat="44.43206" lon="6.92576">
        <ele>2469</ele>
        <time>2022-05-23T10:33:04+02:00</time>
      </trkpt>
      <trkpt lat="44.43206" lon="6.92578">
        <ele>2469</ele>
        <time>2022-05-23T10:33:14+02:00</time>
      </trkpt>
      <trkpt lat="44.43205" lon="6.92578">
        <ele>2469</ele>
        <time>2022-05-23T10:33:29+02:00</time>
      </trkpt>
      <trkpt lat="44.43201" lon="6.92585">
        <ele>2470</ele>
        <time>2022-05-23T10:33:45+02:00</time>
      </trkpt>
      <trkpt lat="44.43193" lon="6.92598">
        <ele>2472</ele>
        <time>2022-05-23T10:34:01+02:00</time>
      </trkpt>
      <trkpt lat="44.43191" lon="6.92602">
        <ele>2472</ele>
        <time>2022-05-23T10:34:04+02:00</time>
      </trkpt>
      <trkpt lat="44.43185" lon="6.92613">
        <ele>2473</ele>
        <time>2022-05-23T10:34:14+02:00</time>
      </trkpt>
      <trkpt lat="44.43175" lon="6.92624">
        <ele>2475</ele>
        <time>2022-05-23T10:34:25+02:00</time>
      </trkpt>
      <trkpt lat="44.43173" lon="6.92628">
        <ele>2475</ele>
        <time>2022-05-23T10:34:29+02:00</time>
      </trkpt>
      <trkpt lat="44.4316" lon="6.92648">
        <ele>2478</ele>
        <time>2022-05-23T10:34:48+02:00</time>
      </trkpt>
      <trkpt lat="44.43158" lon="6.92652">
        <ele>2478</ele>
        <time>2022-05-23T10:34:51+02:00</time>
      </trkpt>
      <trkpt lat="44.43155" lon="6.92656">
        <ele>2478</ele>
        <time>2022-05-23T10:34:55+02:00</time>
      </trkpt>
      <trkpt lat="44.43152" lon="6.92661">
        <ele>2479</ele>
        <time>2022-05-23T10:34:59+02:00</time>
      </trkpt>
      <trkpt lat="44.4315" lon="6.92664">
        <ele>2479</ele>
        <time>2022-05-23T10:35:02+02:00</time>
      </trkpt>
      <trkpt lat="44.43148" lon="6.92669">
        <ele>2479</ele>
        <time>2022-05-23T10:35:06+02:00</time>
      </trkpt>
      <trkpt lat="44.43137" lon="6.92688">
        <ele>2481</ele>
        <time>2022-05-23T10:35:23+02:00</time>
      </trkpt>
      <trkpt lat="44.43126" lon="6.92706">
        <ele>2483</ele>
        <time>2022-05-23T10:35:42+02:00</time>
      </trkpt>
      <trkpt lat="44.4312" lon="6.92714">
        <ele>2485</ele>
        <time>2022-05-23T10:35:52+02:00</time>
      </trkpt>
      <trkpt lat="44.43104" lon="6.92724">
        <ele>2488</ele>
        <time>2022-05-23T10:36:10+02:00</time>
      </trkpt>
      <trkpt lat="44.43089" lon="6.92729">
        <ele>2490</ele>
        <time>2022-05-23T10:36:28+02:00</time>
      </trkpt>
      <trkpt lat="44.43074" lon="6.92729">
        <ele>2492</ele>
        <time>2022-05-23T10:36:44+02:00</time>
      </trkpt>
      <trkpt lat="44.43056" lon="6.92726">
        <ele>2493</ele>
        <time>2022-05-23T10:37:00+02:00</time>
      </trkpt>
      <trkpt lat="44.43048" lon="6.92723">
        <ele>2493</ele>
        <time>2022-05-23T10:37:08+02:00</time>
      </trkpt>
      <trkpt lat="44.43044" lon="6.92722">
        <ele>2493</ele>
        <time>2022-05-23T10:37:12+02:00</time>
      </trkpt>
      <trkpt lat="44.43035" lon="6.92715">
        <ele>2490</ele>
        <time>2022-05-23T10:37:28+02:00</time>
      </trkpt>
      <trkpt lat="44.43035" lon="6.92714">
        <ele>2490</ele>
        <time>2022-05-23T10:37:53+02:00</time>
      </trkpt>
      <trkpt lat="44.43033" lon="6.92717">
        <ele>2491</ele>
        <time>2022-05-23T10:38:05+02:00</time>
      </trkpt>
      <trkpt lat="44.43029" lon="6.92723">
        <ele>2492</ele>
        <time>2022-05-23T10:38:12+02:00</time>
      </trkpt>
      <trkpt lat="44.43028" lon="6.92725">
        <ele>2493</ele>
        <time>2022-05-23T10:38:14+02:00</time>
      </trkpt>
      <trkpt lat="44.43026" lon="6.92728">
        <ele>2493</ele>
        <time>2022-05-23T10:38:21+02:00</time>
      </trkpt>
      <trkpt lat="44.43024" lon="6.92731">
        <ele>2493</ele>
        <time>2022-05-23T10:38:24+02:00</time>
      </trkpt>
      <trkpt lat="44.43018" lon="6.92738">
        <ele>2494</ele>
        <time>2022-05-23T10:38:39+02:00</time>
      </trkpt>
      <trkpt lat="44.43013" lon="6.92743">
        <ele>2494</ele>
        <time>2022-05-23T10:38:58+02:00</time>
      </trkpt>
      <trkpt lat="44.43005" lon="6.92757">
        <ele>2496</ele>
        <time>2022-05-23T10:39:11+02:00</time>
      </trkpt>
      <trkpt lat="44.43" lon="6.92768">
        <ele>2498</ele>
        <time>2022-05-23T10:39:26+02:00</time>
      </trkpt>
      <trkpt lat="44.42993" lon="6.92774">
        <ele>2499</ele>
        <time>2022-05-23T10:39:36+02:00</time>
      </trkpt>
      <trkpt lat="44.42982" lon="6.92778">
        <ele>2499</ele>
        <time>2022-05-23T10:39:47+02:00</time>
      </trkpt>
      <trkpt lat="44.42967" lon="6.92791">
        <ele>2500</ele>
        <time>2022-05-23T10:40:03+02:00</time>
      </trkpt>
      <trkpt lat="44.42956" lon="6.928">
        <ele>2501</ele>
        <time>2022-05-23T10:40:19+02:00</time>
      </trkpt>
      <trkpt lat="44.42955" lon="6.928">
        <ele>2501</ele>
        <time>2022-05-23T10:40:22+02:00</time>
      </trkpt>
      <trkpt lat="44.42953" lon="6.92801">
        <ele>2501</ele>
        <time>2022-05-23T10:40:24+02:00</time>
      </trkpt>
      <trkpt lat="44.42949" lon="6.92802">
        <ele>2501</ele>
        <time>2022-05-23T10:40:28+02:00</time>
      </trkpt>
      <trkpt lat="44.42947" lon="6.92802">
        <ele>2501</ele>
        <time>2022-05-23T10:40:30+02:00</time>
      </trkpt>
      <trkpt lat="44.42945" lon="6.92803">
        <ele>2501</ele>
        <time>2022-05-23T10:40:32+02:00</time>
      </trkpt>
      <trkpt lat="44.42939" lon="6.92807">
        <ele>2501</ele>
        <time>2022-05-23T10:40:39+02:00</time>
      </trkpt>
      <trkpt lat="44.42936" lon="6.92809">
        <ele>2501</ele>
        <time>2022-05-23T10:40:42+02:00</time>
      </trkpt>
      <trkpt lat="44.42926" lon="6.92818">
        <ele>2502</ele>
        <time>2022-05-23T10:40:53+02:00</time>
      </trkpt>
      <trkpt lat="44.42925" lon="6.92818">
        <ele>2502</ele>
        <time>2022-05-23T10:40:54+02:00</time>
      </trkpt>
      <trkpt lat="44.42923" lon="6.92819">
        <ele>2502</ele>
        <time>2022-05-23T10:40:56+02:00</time>
      </trkpt>
      <trkpt lat="44.42919" lon="6.92823">
        <ele>2502</ele>
        <time>2022-05-23T10:41:00+02:00</time>
      </trkpt>
      <trkpt lat="44.4291" lon="6.92833">
        <ele>2502</ele>
        <time>2022-05-23T10:41:10+02:00</time>
      </trkpt>
      <trkpt lat="44.42896" lon="6.92853">
        <ele>2503</ele>
        <time>2022-05-23T10:41:28+02:00</time>
      </trkpt>
      <trkpt lat="44.4289" lon="6.9286">
        <ele>2503</ele>
        <time>2022-05-23T10:41:35+02:00</time>
      </trkpt>
      <trkpt lat="44.42875" lon="6.92885">
        <ele>2503</ele>
        <time>2022-05-23T10:41:55+02:00</time>
      </trkpt>
      <trkpt lat="44.42875" lon="6.92891">
        <ele>2504</ele>
        <time>2022-05-23T10:41:59+02:00</time>
      </trkpt>
      <trkpt lat="44.42869" lon="6.92899">
        <ele>2505</ele>
        <time>2022-05-23T10:42:09+02:00</time>
      </trkpt>
      <trkpt lat="44.42863" lon="6.92904">
        <ele>2505</ele>
        <time>2022-05-23T10:42:22+02:00</time>
      </trkpt>
      <trkpt lat="44.4286" lon="6.92906">
        <ele>2504</ele>
        <time>2022-05-23T10:42:33+02:00</time>
      </trkpt>
      <trkpt lat="44.42859" lon="6.92907">
        <ele>2504</ele>
        <time>2022-05-23T10:42:34+02:00</time>
      </trkpt>
      <trkpt lat="44.42858" lon="6.92911">
        <ele>2505</ele>
        <time>2022-05-23T10:42:37+02:00</time>
      </trkpt>
      <trkpt lat="44.42851" lon="6.92916">
        <ele>2504</ele>
        <time>2022-05-23T10:42:51+02:00</time>
      </trkpt>
      <trkpt lat="44.4284" lon="6.92932">
        <ele>2504</ele>
        <time>2022-05-23T10:43:04+02:00</time>
      </trkpt>
      <trkpt lat="44.42839" lon="6.92935">
        <ele>2504</ele>
        <time>2022-05-23T10:43:06+02:00</time>
      </trkpt>
      <trkpt lat="44.42823" lon="6.92955">
        <ele>2503</ele>
        <time>2022-05-23T10:43:25+02:00</time>
      </trkpt>
      <trkpt lat="44.42816" lon="6.92966">
        <ele>2503</ele>
        <time>2022-05-23T10:43:34+02:00</time>
      </trkpt>
      <trkpt lat="44.42811" lon="6.92975">
        <ele>2503</ele>
        <time>2022-05-23T10:43:41+02:00</time>
      </trkpt>
      <trkpt lat="44.4281" lon="6.92978">
        <ele>2504</ele>
        <time>2022-05-23T10:43:43+02:00</time>
      </trkpt>
      <trkpt lat="44.42805" lon="6.92989">
        <ele>2504</ele>
        <time>2022-05-23T10:43:51+02:00</time>
      </trkpt>
      <trkpt lat="44.42793" lon="6.93015">
        <ele>2505</ele>
        <time>2022-05-23T10:44:08+02:00</time>
      </trkpt>
      <trkpt lat="44.42784" lon="6.93029">
        <ele>2505</ele>
        <time>2022-05-23T10:44:18+02:00</time>
      </trkpt>
      <trkpt lat="44.42774" lon="6.93047">
        <ele>2505</ele>
        <time>2022-05-23T10:44:33+02:00</time>
      </trkpt>
      <trkpt lat="44.42772" lon="6.93052">
        <ele>2505</ele>
        <time>2022-05-23T10:44:37+02:00</time>
      </trkpt>
      <trkpt lat="44.42769" lon="6.93063">
        <ele>2506</ele>
        <time>2022-05-23T10:44:44+02:00</time>
      </trkpt>
      <trkpt lat="44.42754" lon="6.93087">
        <ele>2505</ele>
        <time>2022-05-23T10:45:02+02:00</time>
      </trkpt>
      <trkpt lat="44.42752" lon="6.9309">
        <ele>2505</ele>
        <time>2022-05-23T10:45:04+02:00</time>
      </trkpt>
      <trkpt lat="44.42751" lon="6.93093">
        <ele>2505</ele>
        <time>2022-05-23T10:45:06+02:00</time>
      </trkpt>
      <trkpt lat="44.42748" lon="6.93103">
        <ele>2506</ele>
        <time>2022-05-23T10:45:13+02:00</time>
      </trkpt>
      <trkpt lat="44.42747" lon="6.93106">
        <ele>2506</ele>
        <time>2022-05-23T10:45:15+02:00</time>
      </trkpt>
      <trkpt lat="44.42747" lon="6.93109">
        <ele>2506</ele>
        <time>2022-05-23T10:45:17+02:00</time>
      </trkpt>
      <trkpt lat="44.42747" lon="6.93109">
        <ele>2506</ele>
        <time>2022-05-23T10:45:19+02:00</time>
      </trkpt>
      <trkpt lat="44.42745" lon="6.93116">
        <ele>2506</ele>
        <time>2022-05-23T10:45:24+02:00</time>
      </trkpt>
      <trkpt lat="44.42736" lon="6.93126">
        <ele>2506</ele>
        <time>2022-05-23T10:45:38+02:00</time>
      </trkpt>
      <trkpt lat="44.42725" lon="6.93142">
        <ele>2505</ele>
        <time>2022-05-23T10:45:51+02:00</time>
      </trkpt>
      <trkpt lat="44.42722" lon="6.93149">
        <ele>2505</ele>
        <time>2022-05-23T10:45:56+02:00</time>
      </trkpt>
      <trkpt lat="44.42718" lon="6.93154">
        <ele>2505</ele>
        <time>2022-05-23T10:46:00+02:00</time>
      </trkpt>
      <trkpt lat="44.42712" lon="6.93161">
        <ele>2505</ele>
        <time>2022-05-23T10:46:07+02:00</time>
      </trkpt>
      <trkpt lat="44.42711" lon="6.93163">
        <ele>2505</ele>
        <time>2022-05-23T10:46:09+02:00</time>
      </trkpt>
      <trkpt lat="44.42707" lon="6.93163">
        <ele>2504</ele>
        <time>2022-05-23T10:46:12+02:00</time>
      </trkpt>
      <trkpt lat="44.42706" lon="6.93164">
        <ele>2504</ele>
        <time>2022-05-23T10:46:13+02:00</time>
      </trkpt>
      <trkpt lat="44.42707" lon="6.93166">
        <ele>2505</ele>
        <time>2022-05-23T10:46:15+02:00</time>
      </trkpt>
      <trkpt lat="44.42707" lon="6.93171">
        <ele>2505</ele>
        <time>2022-05-23T10:46:18+02:00</time>
      </trkpt>
      <trkpt lat="44.42705" lon="6.93177">
        <ele>2505</ele>
        <time>2022-05-23T10:46:23+02:00</time>
      </trkpt>
      <trkpt lat="44.427" lon="6.93195">
        <ele>2506</ele>
        <time>2022-05-23T10:46:35+02:00</time>
      </trkpt>
      <trkpt lat="44.42699" lon="6.93203">
        <ele>2506</ele>
        <time>2022-05-23T10:46:40+02:00</time>
      </trkpt>
      <trkpt lat="44.42696" lon="6.9321">
        <ele>2506</ele>
        <time>2022-05-23T10:46:45+02:00</time>
      </trkpt>
      <trkpt lat="44.42696" lon="6.93209">
        <ele>2506</ele>
        <time>2022-05-23T10:46:46+02:00</time>
      </trkpt>
      <trkpt lat="44.42696" lon="6.9321">
        <ele>2506</ele>
        <time>2022-05-23T10:46:47+02:00</time>
      </trkpt>
      <trkpt lat="44.42694" lon="6.93213">
        <ele>2506</ele>
        <time>2022-05-23T10:46:49+02:00</time>
      </trkpt>
      <trkpt lat="44.42693" lon="6.93218">
        <ele>2506</ele>
        <time>2022-05-23T10:46:52+02:00</time>
      </trkpt>
      <trkpt lat="44.42681" lon="6.93246">
        <ele>2506</ele>
        <time>2022-05-23T10:47:11+02:00</time>
      </trkpt>
      <trkpt lat="44.42673" lon="6.93264">
        <ele>2505</ele>
        <time>2022-05-23T10:47:22+02:00</time>
      </trkpt>
      <trkpt lat="44.42673" lon="6.93265">
        <ele>2505</ele>
        <time>2022-05-23T10:47:23+02:00</time>
      </trkpt>
      <trkpt lat="44.42668" lon="6.93282">
        <ele>2504</ele>
        <time>2022-05-23T10:47:34+02:00</time>
      </trkpt>
      <trkpt lat="44.42667" lon="6.93284">
        <ele>2504</ele>
        <time>2022-05-23T10:47:35+02:00</time>
      </trkpt>
      <trkpt lat="44.42666" lon="6.93289">
        <ele>2503</ele>
        <time>2022-05-23T10:47:40+02:00</time>
      </trkpt>
      <trkpt lat="44.42665" lon="6.93289">
        <ele>2503</ele>
        <time>2022-05-23T10:47:44+02:00</time>
      </trkpt>
      <trkpt lat="44.42663" lon="6.93289">
        <ele>2503</ele>
        <time>2022-05-23T10:47:50+02:00</time>
      </trkpt>
      <trkpt lat="44.42659" lon="6.9329">
        <ele>2503</ele>
        <time>2022-05-23T10:47:54+02:00</time>
      </trkpt>
      <trkpt lat="44.42657" lon="6.9329">
        <ele>2502</ele>
        <time>2022-05-23T10:47:56+02:00</time>
      </trkpt>
      <trkpt lat="44.42649" lon="6.93294">
        <ele>2501</ele>
        <time>2022-05-23T10:48:03+02:00</time>
      </trkpt>
      <trkpt lat="44.42644" lon="6.93294">
        <ele>2501</ele>
        <time>2022-05-23T10:48:08+02:00</time>
      </trkpt>
      <trkpt lat="44.42642" lon="6.93294">
        <ele>2500</ele>
        <time>2022-05-23T10:48:09+02:00</time>
      </trkpt>
      <trkpt lat="44.42639" lon="6.93294">
        <ele>2500</ele>
        <time>2022-05-23T10:48:12+02:00</time>
      </trkpt>
      <trkpt lat="44.42624" lon="6.93295">
        <ele>2500</ele>
        <time>2022-05-23T10:48:24+02:00</time>
      </trkpt>
      <trkpt lat="44.42621" lon="6.93296">
        <ele>2500</ele>
        <time>2022-05-23T10:48:29+02:00</time>
      </trkpt>
      <trkpt lat="44.42621" lon="6.93297">
        <ele>2500</ele>
        <time>2022-05-23T10:48:31+02:00</time>
      </trkpt>
      <trkpt lat="44.42622" lon="6.93297">
        <ele>2500</ele>
        <time>2022-05-23T10:48:37+02:00</time>
      </trkpt>
      <trkpt lat="44.42621" lon="6.93299">
        <ele>2500</ele>
        <time>2022-05-23T10:48:49+02:00</time>
      </trkpt>
      <trkpt lat="44.42621" lon="6.93295">
        <ele>2500</ele>
        <time>2022-05-23T10:49:00+02:00</time>
      </trkpt>
      <trkpt lat="44.4262" lon="6.93296">
        <ele>2500</ele>
        <time>2022-05-23T10:49:10+02:00</time>
      </trkpt>
      <trkpt lat="44.42619" lon="6.93299">
        <ele>2500</ele>
        <time>2022-05-23T10:49:28+02:00</time>
      </trkpt>
      <trkpt lat="44.42619" lon="6.93298">
        <ele>2500</ele>
        <time>2022-05-23T10:49:47+02:00</time>
      </trkpt>
      <trkpt lat="44.42619" lon="6.93299">
        <ele>2500</ele>
        <time>2022-05-23T10:50:07+02:00</time>
      </trkpt>
      <trkpt lat="44.42618" lon="6.93299">
        <ele>2500</ele>
        <time>2022-05-23T10:50:21+02:00</time>
      </trkpt>
      <trkpt lat="44.42617" lon="6.93299">
        <ele>2500</ele>
        <time>2022-05-23T10:50:27+02:00</time>
      </trkpt>
      <trkpt lat="44.42617" lon="6.933">
        <ele>2500</ele>
        <time>2022-05-23T10:50:28+02:00</time>
      </trkpt>
      <trkpt lat="44.42615" lon="6.93301">
        <ele>2500</ele>
        <time>2022-05-23T10:50:34+02:00</time>
      </trkpt>
      <trkpt lat="44.42614" lon="6.93301">
        <ele>2500</ele>
        <time>2022-05-23T10:50:36+02:00</time>
      </trkpt>
      <trkpt lat="44.42614" lon="6.93301">
        <ele>2500</ele>
        <time>2022-05-23T10:50:38+02:00</time>
      </trkpt>
      <trkpt lat="44.42611" lon="6.93302">
        <ele>2500</ele>
        <time>2022-05-23T10:50:41+02:00</time>
      </trkpt>
      <trkpt lat="44.42596" lon="6.93317">
        <ele>2500</ele>
        <time>2022-05-23T10:50:59+02:00</time>
      </trkpt>
      <trkpt lat="44.42595" lon="6.93317">
        <ele>2500</ele>
        <time>2022-05-23T10:51:00+02:00</time>
      </trkpt>
      <trkpt lat="44.42587" lon="6.9333">
        <ele>2500</ele>
        <time>2022-05-23T10:51:11+02:00</time>
      </trkpt>
      <trkpt lat="44.42577" lon="6.93344">
        <ele>2500</ele>
        <time>2022-05-23T10:51:24+02:00</time>
      </trkpt>
      <trkpt lat="44.42574" lon="6.93349">
        <ele>2500</ele>
        <time>2022-05-23T10:51:28+02:00</time>
      </trkpt>
      <trkpt lat="44.4257" lon="6.93353">
        <ele>2501</ele>
        <time>2022-05-23T10:51:32+02:00</time>
      </trkpt>
      <trkpt lat="44.42567" lon="6.93355">
        <ele>2501</ele>
        <time>2022-05-23T10:51:35+02:00</time>
      </trkpt>
      <trkpt lat="44.42563" lon="6.93361">
        <ele>2501</ele>
        <time>2022-05-23T10:51:40+02:00</time>
      </trkpt>
      <trkpt lat="44.4256" lon="6.93364">
        <ele>2501</ele>
        <time>2022-05-23T10:51:44+02:00</time>
      </trkpt>
      <trkpt lat="44.42557" lon="6.93369">
        <ele>2501</ele>
        <time>2022-05-23T10:51:48+02:00</time>
      </trkpt>
      <trkpt lat="44.42555" lon="6.9337">
        <ele>2501</ele>
        <time>2022-05-23T10:51:50+02:00</time>
      </trkpt>
      <trkpt lat="44.42545" lon="6.93382">
        <ele>2502</ele>
        <time>2022-05-23T10:52:01+02:00</time>
      </trkpt>
      <trkpt lat="44.42543" lon="6.93384">
        <ele>2503</ele>
        <time>2022-05-23T10:52:03+02:00</time>
      </trkpt>
      <trkpt lat="44.42541" lon="6.93388">
        <ele>2503</ele>
        <time>2022-05-23T10:52:07+02:00</time>
      </trkpt>
      <trkpt lat="44.42529" lon="6.93407">
        <ele>2503</ele>
        <time>2022-05-23T10:52:23+02:00</time>
      </trkpt>
      <trkpt lat="44.4252" lon="6.9342">
        <ele>2502</ele>
        <time>2022-05-23T10:52:36+02:00</time>
      </trkpt>
      <trkpt lat="44.4251" lon="6.93429">
        <ele>2501</ele>
        <time>2022-05-23T10:52:52+02:00</time>
      </trkpt>
      <trkpt lat="44.42509" lon="6.93429">
        <ele>2501</ele>
        <time>2022-05-23T10:52:53+02:00</time>
      </trkpt>
      <trkpt lat="44.42509" lon="6.93428">
        <ele>2501</ele>
        <time>2022-05-23T10:53:09+02:00</time>
      </trkpt>
      <trkpt lat="44.4251" lon="6.93428">
        <ele>2501</ele>
        <time>2022-05-23T10:53:10+02:00</time>
      </trkpt>
      <trkpt lat="44.42507" lon="6.93424">
        <ele>2502</ele>
        <time>2022-05-23T10:53:16+02:00</time>
      </trkpt>
      <trkpt lat="44.42501" lon="6.93423">
        <ele>2501</ele>
        <time>2022-05-23T10:53:27+02:00</time>
      </trkpt>
      <trkpt lat="44.42498" lon="6.93421">
        <ele>2501</ele>
        <time>2022-05-23T10:53:31+02:00</time>
      </trkpt>
      <trkpt lat="44.42497" lon="6.93421">
        <ele>2501</ele>
        <time>2022-05-23T10:53:35+02:00</time>
      </trkpt>
      <trkpt lat="44.42495" lon="6.93418">
        <ele>2502</ele>
        <time>2022-05-23T10:53:42+02:00</time>
      </trkpt>
      <trkpt lat="44.42492" lon="6.93419">
        <ele>2501</ele>
        <time>2022-05-23T10:53:49+02:00</time>
      </trkpt>
      <trkpt lat="44.42493" lon="6.93416">
        <ele>2502</ele>
        <time>2022-05-23T10:54:02+02:00</time>
      </trkpt>
      <trkpt lat="44.42493" lon="6.93415">
        <ele>2502</ele>
        <time>2022-05-23T10:54:03+02:00</time>
      </trkpt>
      <trkpt lat="44.425" lon="6.93409">
        <ele>2503</ele>
        <time>2022-05-23T10:54:16+02:00</time>
      </trkpt>
      <trkpt lat="44.42512" lon="6.934">
        <ele>2504</ele>
        <time>2022-05-23T10:54:33+02:00</time>
      </trkpt>
      <trkpt lat="44.42513" lon="6.93399">
        <ele>2504</ele>
        <time>2022-05-23T10:54:35+02:00</time>
      </trkpt>
      <trkpt lat="44.4252" lon="6.93391">
        <ele>2505</ele>
        <time>2022-05-23T10:54:47+02:00</time>
      </trkpt>
      <trkpt lat="44.42515" lon="6.93387">
        <ele>2506</ele>
        <time>2022-05-23T10:55:01+02:00</time>
      </trkpt>
      <trkpt lat="44.42519" lon="6.93383">
        <ele>2506</ele>
        <time>2022-05-23T10:55:17+02:00</time>
      </trkpt>
      <trkpt lat="44.42521" lon="6.93382">
        <ele>2506</ele>
        <time>2022-05-23T10:55:19+02:00</time>
      </trkpt>
      <trkpt lat="44.42522" lon="6.93382">
        <ele>2506</ele>
        <time>2022-05-23T10:55:20+02:00</time>
      </trkpt>
      <trkpt lat="44.42525" lon="6.93381">
        <ele>2506</ele>
        <time>2022-05-23T10:55:23+02:00</time>
      </trkpt>
      <trkpt lat="44.42528" lon="6.93378">
        <ele>2506</ele>
        <time>2022-05-23T10:55:27+02:00</time>
      </trkpt>
      <trkpt lat="44.4253" lon="6.93375">
        <ele>2506</ele>
        <time>2022-05-23T10:55:30+02:00</time>
      </trkpt>
      <trkpt lat="44.42528" lon="6.93365">
        <ele>2507</ele>
        <time>2022-05-23T10:55:45+02:00</time>
      </trkpt>
      <trkpt lat="44.42528" lon="6.93366">
        <ele>2507</ele>
        <time>2022-05-23T10:56:03+02:00</time>
      </trkpt>
      <trkpt lat="44.42528" lon="6.93365">
        <ele>2507</ele>
        <time>2022-05-23T10:56:35+02:00</time>
      </trkpt>
      <trkpt lat="44.42528" lon="6.93365">
        <ele>2507</ele>
        <time>2022-05-23T10:56:40+02:00</time>
      </trkpt>
      <trkpt lat="44.42526" lon="6.93365">
        <ele>2507</ele>
        <time>2022-05-23T10:57:18+02:00</time>
      </trkpt>
      <trkpt lat="44.42527" lon="6.93364">
        <ele>2507</ele>
        <time>2022-05-23T10:57:48+02:00</time>
      </trkpt>
      <trkpt lat="44.42529" lon="6.93363">
        <ele>2507</ele>
        <time>2022-05-23T10:58:21+02:00</time>
      </trkpt>
      <trkpt lat="44.42528" lon="6.93365">
        <ele>2507</ele>
        <time>2022-05-23T10:58:47+02:00</time>
      </trkpt>
      <trkpt lat="44.42529" lon="6.93363">
        <ele>2507</ele>
        <time>2022-05-23T10:59:13+02:00</time>
      </trkpt>
      <trkpt lat="44.42528" lon="6.93363">
        <ele>2507</ele>
        <time>2022-05-23T10:59:34+02:00</time>
      </trkpt>
      <trkpt lat="44.42528" lon="6.93366">
        <ele>2507</ele>
        <time>2022-05-23T11:00:00+02:00</time>
      </trkpt>
      <trkpt lat="44.42525" lon="6.93365">
        <ele>2507</ele>
        <time>2022-05-23T11:00:21+02:00</time>
      </trkpt>
      <trkpt lat="44.42526" lon="6.93365">
        <ele>2507</ele>
        <time>2022-05-23T11:00:23+02:00</time>
      </trkpt>
      <trkpt lat="44.42527" lon="6.93367">
        <ele>2507</ele>
        <time>2022-05-23T11:00:49+02:00</time>
      </trkpt>
      <trkpt lat="44.42527" lon="6.93368">
        <ele>2507</ele>
        <time>2022-05-23T11:01:11+02:00</time>
      </trkpt>
      <trkpt lat="44.42529" lon="6.93368">
        <ele>2506</ele>
        <time>2022-05-23T11:01:21+02:00</time>
      </trkpt>
      <trkpt lat="44.42532" lon="6.93363">
        <ele>2506</ele>
        <time>2022-05-23T11:01:39+02:00</time>
      </trkpt>
      <trkpt lat="44.42531" lon="6.93363">
        <ele>2506</ele>
        <time>2022-05-23T11:01:44+02:00</time>
      </trkpt>
      <trkpt lat="44.4253" lon="6.93366">
        <ele>2506</ele>
        <time>2022-05-23T11:01:54+02:00</time>
      </trkpt>
      <trkpt lat="44.42528" lon="6.93363">
        <ele>2507</ele>
        <time>2022-05-23T11:02:14+02:00</time>
      </trkpt>
      <trkpt lat="44.4253" lon="6.93369">
        <ele>2506</ele>
        <time>2022-05-23T11:02:29+02:00</time>
      </trkpt>
      <trkpt lat="44.42529" lon="6.93365">
        <ele>2506</ele>
        <time>2022-05-23T11:02:44+02:00</time>
      </trkpt>
      <trkpt lat="44.42527" lon="6.93354">
        <ele>2508</ele>
        <time>2022-05-23T11:02:59+02:00</time>
      </trkpt>
      <trkpt lat="44.42523" lon="6.9334">
        <ele>2510</ele>
        <time>2022-05-23T11:03:14+02:00</time>
      </trkpt>
      <trkpt lat="44.42518" lon="6.9333">
        <ele>2512</ele>
        <time>2022-05-23T11:03:29+02:00</time>
      </trkpt>
      <trkpt lat="44.42515" lon="6.9332">
        <ele>2514</ele>
        <time>2022-05-23T11:03:40+02:00</time>
      </trkpt>
      <trkpt lat="44.42512" lon="6.93314">
        <ele>2515</ele>
        <time>2022-05-23T11:03:53+02:00</time>
      </trkpt>
      <trkpt lat="44.42511" lon="6.93314">
        <ele>2515</ele>
        <time>2022-05-23T11:03:59+02:00</time>
      </trkpt>
      <trkpt lat="44.42505" lon="6.93307">
        <ele>2517</ele>
        <time>2022-05-23T11:04:15+02:00</time>
      </trkpt>
      <trkpt lat="44.425" lon="6.93306">
        <ele>2518</ele>
        <time>2022-05-23T11:04:22+02:00</time>
      </trkpt>
      <trkpt lat="44.42491" lon="6.93298">
        <ele>2520</ele>
        <time>2022-05-23T11:04:40+02:00</time>
      </trkpt>
      <trkpt lat="44.4249" lon="6.93298">
        <ele>2521</ele>
        <time>2022-05-23T11:04:42+02:00</time>
      </trkpt>
      <trkpt lat="44.42485" lon="6.93297">
        <ele>2522</ele>
        <time>2022-05-23T11:04:52+02:00</time>
      </trkpt>
      <trkpt lat="44.42485" lon="6.93297">
        <ele>2521</ele>
        <time>2022-05-23T11:04:54+02:00</time>
      </trkpt>
      <trkpt lat="44.42486" lon="6.93297">
        <ele>2521</ele>
        <time>2022-05-23T11:04:56+02:00</time>
      </trkpt>
      <trkpt lat="44.4248" lon="6.93295">
        <ele>2522</ele>
        <time>2022-05-23T11:05:12+02:00</time>
      </trkpt>
      <trkpt lat="44.42474" lon="6.93292">
        <ele>2524</ele>
        <time>2022-05-23T11:05:29+02:00</time>
      </trkpt>
      <trkpt lat="44.42467" lon="6.93292">
        <ele>2525</ele>
        <time>2022-05-23T11:05:36+02:00</time>
      </trkpt>
      <trkpt lat="44.42467" lon="6.93292">
        <ele>2525</ele>
        <time>2022-05-23T11:05:37+02:00</time>
      </trkpt>
      <trkpt lat="44.42464" lon="6.93291">
        <ele>2526</ele>
        <time>2022-05-23T11:05:41+02:00</time>
      </trkpt>
      <trkpt lat="44.42463" lon="6.93291">
        <ele>2526</ele>
        <time>2022-05-23T11:05:42+02:00</time>
      </trkpt>
      <trkpt lat="44.42457" lon="6.93291">
        <ele>2527</ele>
        <time>2022-05-23T11:05:48+02:00</time>
      </trkpt>
      <trkpt lat="44.42457" lon="6.93291">
        <ele>2527</ele>
        <time>2022-05-23T11:05:49+02:00</time>
      </trkpt>
      <trkpt lat="44.42451" lon="6.93289">
        <ele>2528</ele>
        <time>2022-05-23T11:05:58+02:00</time>
      </trkpt>
      <trkpt lat="44.42441" lon="6.93284">
        <ele>2531</ele>
        <time>2022-05-23T11:06:13+02:00</time>
      </trkpt>
      <trkpt lat="44.42433" lon="6.93283">
        <ele>2532</ele>
        <time>2022-05-23T11:06:32+02:00</time>
      </trkpt>
      <trkpt lat="44.42428" lon="6.93283">
        <ele>2533</ele>
        <time>2022-05-23T11:06:40+02:00</time>
      </trkpt>
      <trkpt lat="44.42427" lon="6.93282">
        <ele>2533</ele>
        <time>2022-05-23T11:06:42+02:00</time>
      </trkpt>
      <trkpt lat="44.42413" lon="6.9328">
        <ele>2536</ele>
        <time>2022-05-23T11:06:59+02:00</time>
      </trkpt>
      <trkpt lat="44.42414" lon="6.9328">
        <ele>2536</ele>
        <time>2022-05-23T11:07:00+02:00</time>
      </trkpt>
      <trkpt lat="44.42411" lon="6.93277">
        <ele>2537</ele>
        <time>2022-05-23T11:07:07+02:00</time>
      </trkpt>
      <trkpt lat="44.4241" lon="6.93277">
        <ele>2537</ele>
        <time>2022-05-23T11:07:09+02:00</time>
      </trkpt>
      <trkpt lat="44.42405" lon="6.93276">
        <ele>2538</ele>
        <time>2022-05-23T11:07:15+02:00</time>
      </trkpt>
      <trkpt lat="44.42395" lon="6.93271">
        <ele>2541</ele>
        <time>2022-05-23T11:07:34+02:00</time>
      </trkpt>
      <trkpt lat="44.42394" lon="6.93271">
        <ele>2541</ele>
        <time>2022-05-23T11:07:36+02:00</time>
      </trkpt>
      <trkpt lat="44.42394" lon="6.93271">
        <ele>2541</ele>
        <time>2022-05-23T11:07:38+02:00</time>
      </trkpt>
      <trkpt lat="44.42393" lon="6.9327">
        <ele>2542</ele>
        <time>2022-05-23T11:07:47+02:00</time>
      </trkpt>
      <trkpt lat="44.42392" lon="6.93269">
        <ele>2542</ele>
        <time>2022-05-23T11:07:50+02:00</time>
      </trkpt>
      <trkpt lat="44.42392" lon="6.93269">
        <ele>2542</ele>
        <time>2022-05-23T11:07:51+02:00</time>
      </trkpt>
      <trkpt lat="44.42392" lon="6.93269">
        <ele>2542</ele>
        <time>2022-05-23T11:07:52+02:00</time>
      </trkpt>
      <trkpt lat="44.42392" lon="6.93268">
        <ele>2542</ele>
        <time>2022-05-23T11:07:54+02:00</time>
      </trkpt>
      <trkpt lat="44.42394" lon="6.93267">
        <ele>2542</ele>
        <time>2022-05-23T11:08:03+02:00</time>
      </trkpt>
      <trkpt lat="44.4239" lon="6.93265">
        <ele>2543</ele>
        <time>2022-05-23T11:08:09+02:00</time>
      </trkpt>
      <trkpt lat="44.42388" lon="6.93264">
        <ele>2544</ele>
        <time>2022-05-23T11:08:11+02:00</time>
      </trkpt>
      <trkpt lat="44.42379" lon="6.93258">
        <ele>2546</ele>
        <time>2022-05-23T11:08:23+02:00</time>
      </trkpt>
      <trkpt lat="44.42379" lon="6.93257">
        <ele>2547</ele>
        <time>2022-05-23T11:08:28+02:00</time>
      </trkpt>
      <trkpt lat="44.42374" lon="6.93253">
        <ele>2548</ele>
        <time>2022-05-23T11:08:35+02:00</time>
      </trkpt>
      <trkpt lat="44.42374" lon="6.93251">
        <ele>2549</ele>
        <time>2022-05-23T11:08:37+02:00</time>
      </trkpt>
      <trkpt lat="44.42373" lon="6.93249">
        <ele>2550</ele>
        <time>2022-05-23T11:08:40+02:00</time>
      </trkpt>
      <trkpt lat="44.42368" lon="6.93245">
        <ele>2552</ele>
        <time>2022-05-23T11:08:47+02:00</time>
      </trkpt>
      <trkpt lat="44.42366" lon="6.93243">
        <ele>2553</ele>
        <time>2022-05-23T11:08:56+02:00</time>
      </trkpt>
      <trkpt lat="44.42362" lon="6.93246">
        <ele>2552</ele>
        <time>2022-05-23T11:09:10+02:00</time>
      </trkpt>
      <trkpt lat="44.42357" lon="6.93247">
        <ele>2552</ele>
        <time>2022-05-23T11:09:17+02:00</time>
      </trkpt>
      <trkpt lat="44.42353" lon="6.93246">
        <ele>2552</ele>
        <time>2022-05-23T11:09:24+02:00</time>
      </trkpt>
      <trkpt lat="44.42352" lon="6.93245">
        <ele>2552</ele>
        <time>2022-05-23T11:09:26+02:00</time>
      </trkpt>
      <trkpt lat="44.42347" lon="6.9324">
        <ele>2555</ele>
        <time>2022-05-23T11:09:41+02:00</time>
      </trkpt>
      <trkpt lat="44.42346" lon="6.9324">
        <ele>2556</ele>
        <time>2022-05-23T11:09:44+02:00</time>
      </trkpt>
      <trkpt lat="44.42342" lon="6.93242">
        <ele>2555</ele>
        <time>2022-05-23T11:09:51+02:00</time>
      </trkpt>
      <trkpt lat="44.42336" lon="6.93238">
        <ele>2557</ele>
        <time>2022-05-23T11:10:06+02:00</time>
      </trkpt>
      <trkpt lat="44.42334" lon="6.93237">
        <ele>2558</ele>
        <time>2022-05-23T11:10:11+02:00</time>
      </trkpt>
      <trkpt lat="44.42332" lon="6.93236">
        <ele>2559</ele>
        <time>2022-05-23T11:10:17+02:00</time>
      </trkpt>
      <trkpt lat="44.42324" lon="6.93232">
        <ele>2561</ele>
        <time>2022-05-23T11:10:34+02:00</time>
      </trkpt>
      <trkpt lat="44.42321" lon="6.93232">
        <ele>2561</ele>
        <time>2022-05-23T11:10:39+02:00</time>
      </trkpt>
      <trkpt lat="44.42318" lon="6.93231">
        <ele>2562</ele>
        <time>2022-05-23T11:10:46+02:00</time>
      </trkpt>
      <trkpt lat="44.42309" lon="6.93227">
        <ele>2564</ele>
        <time>2022-05-23T11:10:59+02:00</time>
      </trkpt>
      <trkpt lat="44.42302" lon="6.93223">
        <ele>2566</ele>
        <time>2022-05-23T11:11:15+02:00</time>
      </trkpt>
      <trkpt lat="44.42298" lon="6.93221">
        <ele>2567</ele>
        <time>2022-05-23T11:11:31+02:00</time>
      </trkpt>
      <trkpt lat="44.42293" lon="6.93217">
        <ele>2569</ele>
        <time>2022-05-23T11:11:48+02:00</time>
      </trkpt>
      <trkpt lat="44.4229" lon="6.93215">
        <ele>2569</ele>
        <time>2022-05-23T11:11:58+02:00</time>
      </trkpt>
      <trkpt lat="44.42289" lon="6.93211">
        <ele>2570</ele>
        <time>2022-05-23T11:12:17+02:00</time>
      </trkpt>
      <trkpt lat="44.42288" lon="6.93212">
        <ele>2570</ele>
        <time>2022-05-23T11:12:44+02:00</time>
      </trkpt>
      <trkpt lat="44.42278" lon="6.93219">
        <ele>2569</ele>
        <time>2022-05-23T11:12:55+02:00</time>
      </trkpt>
      <trkpt lat="44.4228" lon="6.93218">
        <ele>2569</ele>
        <time>2022-05-23T11:13:09+02:00</time>
      </trkpt>
      <trkpt lat="44.42284" lon="6.93215">
        <ele>2569</ele>
        <time>2022-05-23T11:13:15+02:00</time>
      </trkpt>
      <trkpt lat="44.42287" lon="6.93212">
        <ele>2570</ele>
        <time>2022-05-23T11:13:35+02:00</time>
      </trkpt>
      <trkpt lat="44.42295" lon="6.93201">
        <ele>2573</ele>
        <time>2022-05-23T11:13:53+02:00</time>
      </trkpt>
      <trkpt lat="44.42302" lon="6.93193">
        <ele>2576</ele>
        <time>2022-05-23T11:14:09+02:00</time>
      </trkpt>
      <trkpt lat="44.42304" lon="6.93191">
        <ele>2577</ele>
        <time>2022-05-23T11:14:24+02:00</time>
      </trkpt>
      <trkpt lat="44.42309" lon="6.93184">
        <ele>2578</ele>
        <time>2022-05-23T11:14:46+02:00</time>
      </trkpt>
      <trkpt lat="44.42312" lon="6.93181">
        <ele>2579</ele>
        <time>2022-05-23T11:15:07+02:00</time>
      </trkpt>
      <trkpt lat="44.4232" lon="6.93179">
        <ele>2581</ele>
        <time>2022-05-23T11:15:22+02:00</time>
      </trkpt>
      <trkpt lat="44.42325" lon="6.93172">
        <ele>2584</ele>
        <time>2022-05-23T11:15:39+02:00</time>
      </trkpt>
      <trkpt lat="44.42329" lon="6.93171">
        <ele>2585</ele>
        <time>2022-05-23T11:15:54+02:00</time>
      </trkpt>
      <trkpt lat="44.42335" lon="6.93168">
        <ele>2588</ele>
        <time>2022-05-23T11:16:03+02:00</time>
      </trkpt>
      <trkpt lat="44.4234" lon="6.93166">
        <ele>2589</ele>
        <time>2022-05-23T11:16:18+02:00</time>
      </trkpt>
      <trkpt lat="44.4235" lon="6.93162">
        <ele>2591</ele>
        <time>2022-05-23T11:16:36+02:00</time>
      </trkpt>
      <trkpt lat="44.42359" lon="6.93157">
        <ele>2594</ele>
        <time>2022-05-23T11:16:53+02:00</time>
      </trkpt>
      <trkpt lat="44.42364" lon="6.93152">
        <ele>2597</ele>
        <time>2022-05-23T11:17:12+02:00</time>
      </trkpt>
      <trkpt lat="44.42366" lon="6.93148">
        <ele>2598</ele>
        <time>2022-05-23T11:17:23+02:00</time>
      </trkpt>
      <trkpt lat="44.42368" lon="6.93144">
        <ele>2600</ele>
        <time>2022-05-23T11:17:33+02:00</time>
      </trkpt>
      <trkpt lat="44.42378" lon="6.93138">
        <ele>2606</ele>
        <time>2022-05-23T11:17:54+02:00</time>
      </trkpt>
      <trkpt lat="44.42381" lon="6.93135">
        <ele>2607</ele>
        <time>2022-05-23T11:18:13+02:00</time>
      </trkpt>
      <trkpt lat="44.42381" lon="6.93134">
        <ele>2607</ele>
        <time>2022-05-23T11:18:14+02:00</time>
      </trkpt>
      <trkpt lat="44.42381" lon="6.93134">
        <ele>2607</ele>
        <time>2022-05-23T11:18:29+02:00</time>
      </trkpt>
      <trkpt lat="44.42383" lon="6.93133">
        <ele>2608</ele>
        <time>2022-05-23T11:18:38+02:00</time>
      </trkpt>
      <trkpt lat="44.42382" lon="6.93136">
        <ele>2607</ele>
        <time>2022-05-23T11:18:44+02:00</time>
      </trkpt>
      <trkpt lat="44.42385" lon="6.93134">
        <ele>2609</ele>
        <time>2022-05-23T11:18:51+02:00</time>
      </trkpt>
      <trkpt lat="44.42391" lon="6.9313">
        <ele>2610</ele>
        <time>2022-05-23T11:19:08+02:00</time>
      </trkpt>
      <trkpt lat="44.42396" lon="6.93129">
        <ele>2608</ele>
        <time>2022-05-23T11:19:26+02:00</time>
      </trkpt>
      <trkpt lat="44.42397" lon="6.93127">
        <ele>2608</ele>
        <time>2022-05-23T11:19:42+02:00</time>
      </trkpt>
      <trkpt lat="44.42396" lon="6.93127">
        <ele>2609</ele>
        <time>2022-05-23T11:20:00+02:00</time>
      </trkpt>
      <trkpt lat="44.42394" lon="6.93129">
        <ele>2609</ele>
        <time>2022-05-23T11:20:11+02:00</time>
      </trkpt>
      <trkpt lat="44.42394" lon="6.93132">
        <ele>2608</ele>
        <time>2022-05-23T11:20:24+02:00</time>
      </trkpt>
      <trkpt lat="44.42393" lon="6.93132">
        <ele>2609</ele>
        <time>2022-05-23T11:20:29+02:00</time>
      </trkpt>
      <trkpt lat="44.42396" lon="6.93128">
        <ele>2608</ele>
        <time>2022-05-23T11:20:44+02:00</time>
      </trkpt>
      <trkpt lat="44.42397" lon="6.93129">
        <ele>2608</ele>
        <time>2022-05-23T11:20:45+02:00</time>
      </trkpt>
      <trkpt lat="44.42398" lon="6.93128">
        <ele>2608</ele>
        <time>2022-05-23T11:20:54+02:00</time>
      </trkpt>
      <trkpt lat="44.42398" lon="6.93125">
        <ele>2609</ele>
        <time>2022-05-23T11:21:10+02:00</time>
      </trkpt>
      <trkpt lat="44.42403" lon="6.93114">
        <ele>2611</ele>
        <time>2022-05-23T11:21:24+02:00</time>
      </trkpt>
      <trkpt lat="44.42408" lon="6.93107">
        <ele>2612</ele>
        <time>2022-05-23T11:21:35+02:00</time>
      </trkpt>
      <trkpt lat="44.42414" lon="6.93102">
        <ele>2613</ele>
        <time>2022-05-23T11:21:43+02:00</time>
      </trkpt>
      <trkpt lat="44.42415" lon="6.931">
        <ele>2613</ele>
        <time>2022-05-23T11:21:46+02:00</time>
      </trkpt>
      <trkpt lat="44.42416" lon="6.93097">
        <ele>2614</ele>
        <time>2022-05-23T11:21:51+02:00</time>
      </trkpt>
      <trkpt lat="44.42416" lon="6.93097">
        <ele>2614</ele>
        <time>2022-05-23T11:21:52+02:00</time>
      </trkpt>
      <trkpt lat="44.42419" lon="6.9309">
        <ele>2615</ele>
        <time>2022-05-23T11:22:01+02:00</time>
      </trkpt>
      <trkpt lat="44.42419" lon="6.93089">
        <ele>2615</ele>
        <time>2022-05-23T11:22:02+02:00</time>
      </trkpt>
      <trkpt lat="44.4242" lon="6.93086">
        <ele>2616</ele>
        <time>2022-05-23T11:22:04+02:00</time>
      </trkpt>
      <trkpt lat="44.42421" lon="6.93082">
        <ele>2616</ele>
        <time>2022-05-23T11:22:12+02:00</time>
      </trkpt>
      <trkpt lat="44.42421" lon="6.9308">
        <ele>2616</ele>
        <time>2022-05-23T11:22:15+02:00</time>
      </trkpt>
      <trkpt lat="44.42422" lon="6.93078">
        <ele>2616</ele>
        <time>2022-05-23T11:22:17+02:00</time>
      </trkpt>
      <trkpt lat="44.42422" lon="6.93077">
        <ele>2616</ele>
        <time>2022-05-23T11:22:18+02:00</time>
      </trkpt>
      <trkpt lat="44.42423" lon="6.93072">
        <ele>2616</ele>
        <time>2022-05-23T11:22:21+02:00</time>
      </trkpt>
      <trkpt lat="44.42423" lon="6.93069">
        <ele>2616</ele>
        <time>2022-05-23T11:22:23+02:00</time>
      </trkpt>
      <trkpt lat="44.42422" lon="6.93064">
        <ele>2617</ele>
        <time>2022-05-23T11:22:33+02:00</time>
      </trkpt>
      <trkpt lat="44.42421" lon="6.93063">
        <ele>2617</ele>
        <time>2022-05-23T11:22:39+02:00</time>
      </trkpt>
      <trkpt lat="44.42421" lon="6.93063">
        <ele>2617</ele>
        <time>2022-05-23T11:22:40+02:00</time>
      </trkpt>
      <trkpt lat="44.4242" lon="6.93064">
        <ele>2618</ele>
        <time>2022-05-23T11:22:41+02:00</time>
      </trkpt>
      <trkpt lat="44.42418" lon="6.9307">
        <ele>2618</ele>
        <time>2022-05-23T11:22:46+02:00</time>
      </trkpt>
      <trkpt lat="44.42418" lon="6.93071">
        <ele>2618</ele>
        <time>2022-05-23T11:22:47+02:00</time>
      </trkpt>
      <trkpt lat="44.42417" lon="6.93072">
        <ele>2618</ele>
        <time>2022-05-23T11:22:49+02:00</time>
      </trkpt>
      <trkpt lat="44.42417" lon="6.93072">
        <ele>2618</ele>
        <time>2022-05-23T11:22:51+02:00</time>
      </trkpt>
      <trkpt lat="44.42417" lon="6.93077">
        <ele>2618</ele>
        <time>2022-05-23T11:22:56+02:00</time>
      </trkpt>
      <trkpt lat="44.42416" lon="6.93078">
        <ele>2618</ele>
        <time>2022-05-23T11:22:58+02:00</time>
      </trkpt>
      <trkpt lat="44.42415" lon="6.93081">
        <ele>2618</ele>
        <time>2022-05-23T11:23:01+02:00</time>
      </trkpt>
      <trkpt lat="44.42413" lon="6.93087">
        <ele>2616</ele>
        <time>2022-05-23T11:23:09+02:00</time>
      </trkpt>
      <trkpt lat="44.42412" lon="6.93089">
        <ele>2616</ele>
        <time>2022-05-23T11:23:10+02:00</time>
      </trkpt>
      <trkpt lat="44.42411" lon="6.93092">
        <ele>2615</ele>
        <time>2022-05-23T11:23:13+02:00</time>
      </trkpt>
      <trkpt lat="44.4241" lon="6.93094">
        <ele>2614</ele>
        <time>2022-05-23T11:23:15+02:00</time>
      </trkpt>
      <trkpt lat="44.4241" lon="6.93095">
        <ele>2614</ele>
        <time>2022-05-23T11:23:17+02:00</time>
      </trkpt>
      <trkpt lat="44.4241" lon="6.93094">
        <ele>2614</ele>
        <time>2022-05-23T11:23:18+02:00</time>
      </trkpt>
      <trkpt lat="44.42409" lon="6.93095">
        <ele>2614</ele>
        <time>2022-05-23T11:23:21+02:00</time>
      </trkpt>
      <trkpt lat="44.42409" lon="6.93094">
        <ele>2614</ele>
        <time>2022-05-23T11:23:25+02:00</time>
      </trkpt>
      <trkpt lat="44.42408" lon="6.93094">
        <ele>2614</ele>
        <time>2022-05-23T11:23:26+02:00</time>
      </trkpt>
      <trkpt lat="44.42408" lon="6.93094">
        <ele>2614</ele>
        <time>2022-05-23T11:23:28+02:00</time>
      </trkpt>
      <trkpt lat="44.42407" lon="6.93095">
        <ele>2614</ele>
        <time>2022-05-23T11:23:29+02:00</time>
      </trkpt>
      <trkpt lat="44.42406" lon="6.93096">
        <ele>2614</ele>
        <time>2022-05-23T11:23:32+02:00</time>
      </trkpt>
      <trkpt lat="44.42406" lon="6.93096">
        <ele>2614</ele>
        <time>2022-05-23T11:23:33+02:00</time>
      </trkpt>
      <trkpt lat="44.42407" lon="6.93097">
        <ele>2614</ele>
        <time>2022-05-23T11:23:35+02:00</time>
      </trkpt>
      <trkpt lat="44.42406" lon="6.93097">
        <ele>2614</ele>
        <time>2022-05-23T11:23:37+02:00</time>
      </trkpt>
      <trkpt lat="44.42406" lon="6.93097">
        <ele>2614</ele>
        <time>2022-05-23T11:23:39+02:00</time>
      </trkpt>
      <trkpt lat="44.42405" lon="6.93098">
        <ele>2614</ele>
        <time>2022-05-23T11:23:49+02:00</time>
      </trkpt>
      <trkpt lat="44.42404" lon="6.931">
        <ele>2613</ele>
        <time>2022-05-23T11:23:52+02:00</time>
      </trkpt>
      <trkpt lat="44.42403" lon="6.93101">
        <ele>2613</ele>
        <time>2022-05-23T11:23:54+02:00</time>
      </trkpt>
      <trkpt lat="44.42402" lon="6.93102">
        <ele>2613</ele>
        <time>2022-05-23T11:24:04+02:00</time>
      </trkpt>
      <trkpt lat="44.42401" lon="6.93101">
        <ele>2613</ele>
        <time>2022-05-23T11:24:07+02:00</time>
      </trkpt>
      <trkpt lat="44.42393" lon="6.93106">
        <ele>2614</ele>
        <time>2022-05-23T11:24:20+02:00</time>
      </trkpt>
      <trkpt lat="44.42393" lon="6.93106">
        <ele>2614</ele>
        <time>2022-05-23T11:24:22+02:00</time>
      </trkpt>
      <trkpt lat="44.42388" lon="6.93111">
        <ele>2614</ele>
        <time>2022-05-23T11:24:37+02:00</time>
      </trkpt>
      <trkpt lat="44.42382" lon="6.93116">
        <ele>2610</ele>
        <time>2022-05-23T11:24:50+02:00</time>
      </trkpt>
      <trkpt lat="44.4238" lon="6.93116">
        <ele>2609</ele>
        <time>2022-05-23T11:25:05+02:00</time>
      </trkpt>
      <trkpt lat="44.42378" lon="6.93115">
        <ele>2608</ele>
        <time>2022-05-23T11:25:08+02:00</time>
      </trkpt>
      <trkpt lat="44.42376" lon="6.93116">
        <ele>2606</ele>
        <time>2022-05-23T11:25:18+02:00</time>
      </trkpt>
      <trkpt lat="44.42375" lon="6.93117">
        <ele>2606</ele>
        <time>2022-05-23T11:25:21+02:00</time>
      </trkpt>
      <trkpt lat="44.42373" lon="6.93117">
        <ele>2605</ele>
        <time>2022-05-23T11:25:24+02:00</time>
      </trkpt>
      <trkpt lat="44.4237" lon="6.93122">
        <ele>2603</ele>
        <time>2022-05-23T11:25:39+02:00</time>
      </trkpt>
      <trkpt lat="44.42364" lon="6.93127">
        <ele>2600</ele>
        <time>2022-05-23T11:25:53+02:00</time>
      </trkpt>
      <trkpt lat="44.42362" lon="6.9313">
        <ele>2599</ele>
        <time>2022-05-23T11:26:03+02:00</time>
      </trkpt>
      <trkpt lat="44.42361" lon="6.93129">
        <ele>2599</ele>
        <time>2022-05-23T11:26:04+02:00</time>
      </trkpt>
      <trkpt lat="44.42356" lon="6.9313">
        <ele>2596</ele>
        <time>2022-05-23T11:26:20+02:00</time>
      </trkpt>
      <trkpt lat="44.42352" lon="6.93132">
        <ele>2594</ele>
        <time>2022-05-23T11:26:34+02:00</time>
      </trkpt>
      <trkpt lat="44.42352" lon="6.93131">
        <ele>2594</ele>
        <time>2022-05-23T11:26:39+02:00</time>
      </trkpt>
      <trkpt lat="44.42352" lon="6.93138">
        <ele>2595</ele>
        <time>2022-05-23T11:26:55+02:00</time>
      </trkpt>
      <trkpt lat="44.4235" lon="6.93141">
        <ele>2594</ele>
        <time>2022-05-23T11:27:00+02:00</time>
      </trkpt>
      <trkpt lat="44.42348" lon="6.93142">
        <ele>2593</ele>
        <time>2022-05-23T11:27:09+02:00</time>
      </trkpt>
      <trkpt lat="44.42345" lon="6.93153">
        <ele>2590</ele>
        <time>2022-05-23T11:27:23+02:00</time>
      </trkpt>
      <trkpt lat="44.42342" lon="6.9316">
        <ele>2589</ele>
        <time>2022-05-23T11:27:36+02:00</time>
      </trkpt>
      <trkpt lat="44.42342" lon="6.93161">
        <ele>2589</ele>
        <time>2022-05-23T11:27:41+02:00</time>
      </trkpt>
      <trkpt lat="44.42339" lon="6.9317">
        <ele>2588</ele>
        <time>2022-05-23T11:27:56+02:00</time>
      </trkpt>
      <trkpt lat="44.42338" lon="6.9317">
        <ele>2588</ele>
        <time>2022-05-23T11:27:57+02:00</time>
      </trkpt>
      <trkpt lat="44.42338" lon="6.93171">
        <ele>2587</ele>
        <time>2022-05-23T11:28:01+02:00</time>
      </trkpt>
      <trkpt lat="44.42336" lon="6.93172">
        <ele>2587</ele>
        <time>2022-05-23T11:28:07+02:00</time>
      </trkpt>
      <trkpt lat="44.42332" lon="6.93175">
        <ele>2585</ele>
        <time>2022-05-23T11:28:13+02:00</time>
      </trkpt>
      <trkpt lat="44.4233" lon="6.93175">
        <ele>2585</ele>
        <time>2022-05-23T11:28:14+02:00</time>
      </trkpt>
      <trkpt lat="44.42325" lon="6.93179">
        <ele>2582</ele>
        <time>2022-05-23T11:28:23+02:00</time>
      </trkpt>
      <trkpt lat="44.42321" lon="6.93176">
        <ele>2582</ele>
        <time>2022-05-23T11:28:49+02:00</time>
      </trkpt>
      <trkpt lat="44.4232" lon="6.93177">
        <ele>2582</ele>
        <time>2022-05-23T11:28:57+02:00</time>
      </trkpt>
      <trkpt lat="44.42319" lon="6.93176">
        <ele>2581</ele>
        <time>2022-05-23T11:29:19+02:00</time>
      </trkpt>
      <trkpt lat="44.42319" lon="6.93175">
        <ele>2581</ele>
        <time>2022-05-23T11:29:28+02:00</time>
      </trkpt>
      <trkpt lat="44.42319" lon="6.93176">
        <ele>2581</ele>
        <time>2022-05-23T11:29:52+02:00</time>
      </trkpt>
      <trkpt lat="44.42319" lon="6.93184">
        <ele>2580</ele>
        <time>2022-05-23T11:30:16+02:00</time>
      </trkpt>
      <trkpt lat="44.42318" lon="6.93184">
        <ele>2580</ele>
        <time>2022-05-23T11:30:18+02:00</time>
      </trkpt>
      <trkpt lat="44.42315" lon="6.93184">
        <ele>2579</ele>
        <time>2022-05-23T11:30:22+02:00</time>
      </trkpt>
      <trkpt lat="44.42313" lon="6.93186">
        <ele>2579</ele>
        <time>2022-05-23T11:30:27+02:00</time>
      </trkpt>
      <trkpt lat="44.4231" lon="6.93188">
        <ele>2578</ele>
        <time>2022-05-23T11:30:38+02:00</time>
      </trkpt>
      <trkpt lat="44.42306" lon="6.93189">
        <ele>2577</ele>
        <time>2022-05-23T11:30:53+02:00</time>
      </trkpt>
      <trkpt lat="44.42305" lon="6.9319">
        <ele>2577</ele>
        <time>2022-05-23T11:30:58+02:00</time>
      </trkpt>
      <trkpt lat="44.42304" lon="6.93193">
        <ele>2577</ele>
        <time>2022-05-23T11:31:08+02:00</time>
      </trkpt>
      <trkpt lat="44.42303" lon="6.93193">
        <ele>2577</ele>
        <time>2022-05-23T11:31:09+02:00</time>
      </trkpt>
      <trkpt lat="44.42302" lon="6.93196">
        <ele>2576</ele>
        <time>2022-05-23T11:31:12+02:00</time>
      </trkpt>
      <trkpt lat="44.42298" lon="6.932">
        <ele>2574</ele>
        <time>2022-05-23T11:31:17+02:00</time>
      </trkpt>
      <trkpt lat="44.42297" lon="6.93203">
        <ele>2573</ele>
        <time>2022-05-23T11:31:19+02:00</time>
      </trkpt>
      <trkpt lat="44.42295" lon="6.93206">
        <ele>2572</ele>
        <time>2022-05-23T11:31:21+02:00</time>
      </trkpt>
      <trkpt lat="44.42293" lon="6.93209">
        <ele>2571</ele>
        <time>2022-05-23T11:31:23+02:00</time>
      </trkpt>
      <trkpt lat="44.42287" lon="6.93218">
        <ele>2569</ele>
        <time>2022-05-23T11:31:38+02:00</time>
      </trkpt>
      <trkpt lat="44.42292" lon="6.93221">
        <ele>2568</ele>
        <time>2022-05-23T11:31:50+02:00</time>
      </trkpt>
      <trkpt lat="44.42293" lon="6.93221">
        <ele>2568</ele>
        <time>2022-05-23T11:31:51+02:00</time>
      </trkpt>
      <trkpt lat="44.423" lon="6.93224">
        <ele>2566</ele>
        <time>2022-05-23T11:32:04+02:00</time>
      </trkpt>
      <trkpt lat="44.42306" lon="6.9323">
        <ele>2562</ele>
        <time>2022-05-23T11:32:14+02:00</time>
      </trkpt>
      <trkpt lat="44.42311" lon="6.93235">
        <ele>2560</ele>
        <time>2022-05-23T11:32:29+02:00</time>
      </trkpt>
      <trkpt lat="44.42315" lon="6.93239">
        <ele>2558</ele>
        <time>2022-05-23T11:32:37+02:00</time>
      </trkpt>
      <trkpt lat="44.42318" lon="6.93243">
        <ele>2555</ele>
        <time>2022-05-23T11:32:43+02:00</time>
      </trkpt>
      <trkpt lat="44.42318" lon="6.93243">
        <ele>2555</ele>
        <time>2022-05-23T11:32:44+02:00</time>
      </trkpt>
      <trkpt lat="44.42319" lon="6.93243">
        <ele>2555</ele>
        <time>2022-05-23T11:32:45+02:00</time>
      </trkpt>
      <trkpt lat="44.4232" lon="6.93244">
        <ele>2555</ele>
        <time>2022-05-23T11:32:47+02:00</time>
      </trkpt>
      <trkpt lat="44.4232" lon="6.93246">
        <ele>2554</ele>
        <time>2022-05-23T11:32:51+02:00</time>
      </trkpt>
      <trkpt lat="44.42319" lon="6.93247">
        <ele>2553</ele>
        <time>2022-05-23T11:32:54+02:00</time>
      </trkpt>
      <trkpt lat="44.42318" lon="6.9325">
        <ele>2552</ele>
        <time>2022-05-23T11:32:58+02:00</time>
      </trkpt>
      <trkpt lat="44.42315" lon="6.93253">
        <ele>2551</ele>
        <time>2022-05-23T11:33:05+02:00</time>
      </trkpt>
      <trkpt lat="44.42312" lon="6.93258">
        <ele>2549</ele>
        <time>2022-05-23T11:33:20+02:00</time>
      </trkpt>
      <trkpt lat="44.42314" lon="6.93262">
        <ele>2546</ele>
        <time>2022-05-23T11:33:34+02:00</time>
      </trkpt>
      <trkpt lat="44.42317" lon="6.93267">
        <ele>2545</ele>
        <time>2022-05-23T11:33:55+02:00</time>
      </trkpt>
      <trkpt lat="44.4232" lon="6.93274">
        <ele>2542</ele>
        <time>2022-05-23T11:34:09+02:00</time>
      </trkpt>
      <trkpt lat="44.42321" lon="6.93275">
        <ele>2541</ele>
        <time>2022-05-23T11:34:16+02:00</time>
      </trkpt>
      <trkpt lat="44.42323" lon="6.9328">
        <ele>2539</ele>
        <time>2022-05-23T11:34:21+02:00</time>
      </trkpt>
      <trkpt lat="44.42324" lon="6.9329">
        <ele>2536</ele>
        <time>2022-05-23T11:34:36+02:00</time>
      </trkpt>
      <trkpt lat="44.42328" lon="6.93293">
        <ele>2535</ele>
        <time>2022-05-23T11:34:47+02:00</time>
      </trkpt>
      <trkpt lat="44.42328" lon="6.93294">
        <ele>2535</ele>
        <time>2022-05-23T11:34:48+02:00</time>
      </trkpt>
      <trkpt lat="44.42328" lon="6.93296">
        <ele>2534</ele>
        <time>2022-05-23T11:34:51+02:00</time>
      </trkpt>
      <trkpt lat="44.42329" lon="6.93299">
        <ele>2533</ele>
        <time>2022-05-23T11:34:54+02:00</time>
      </trkpt>
      <trkpt lat="44.42332" lon="6.93307">
        <ele>2531</ele>
        <time>2022-05-23T11:35:04+02:00</time>
      </trkpt>
      <trkpt lat="44.42334" lon="6.93309">
        <ele>2530</ele>
        <time>2022-05-23T11:35:07+02:00</time>
      </trkpt>
      <trkpt lat="44.42334" lon="6.93309">
        <ele>2530</ele>
        <time>2022-05-23T11:35:08+02:00</time>
      </trkpt>
      <trkpt lat="44.42336" lon="6.93311">
        <ele>2529</ele>
        <time>2022-05-23T11:35:18+02:00</time>
      </trkpt>
      <trkpt lat="44.42331" lon="6.93321">
        <ele>2525</ele>
        <time>2022-05-23T11:35:31+02:00</time>
      </trkpt>
      <trkpt lat="44.42331" lon="6.93321">
        <ele>2525</ele>
        <time>2022-05-23T11:35:32+02:00</time>
      </trkpt>
      <trkpt lat="44.4233" lon="6.93323">
        <ele>2525</ele>
        <time>2022-05-23T11:35:34+02:00</time>
      </trkpt>
      <trkpt lat="44.42329" lon="6.93326">
        <ele>2524</ele>
        <time>2022-05-23T11:35:36+02:00</time>
      </trkpt>
      <trkpt lat="44.42329" lon="6.93328">
        <ele>2523</ele>
        <time>2022-05-23T11:35:40+02:00</time>
      </trkpt>
      <trkpt lat="44.42332" lon="6.93333">
        <ele>2521</ele>
        <time>2022-05-23T11:35:45+02:00</time>
      </trkpt>
      <trkpt lat="44.42335" lon="6.9334">
        <ele>2519</ele>
        <time>2022-05-23T11:35:52+02:00</time>
      </trkpt>
      <trkpt lat="44.42335" lon="6.93347">
        <ele>2516</ele>
        <time>2022-05-23T11:35:59+02:00</time>
      </trkpt>
      <trkpt lat="44.42335" lon="6.93345">
        <ele>2517</ele>
        <time>2022-05-23T11:36:03+02:00</time>
      </trkpt>
      <trkpt lat="44.42334" lon="6.93346">
        <ele>2516</ele>
        <time>2022-05-23T11:36:06+02:00</time>
      </trkpt>
      <trkpt lat="44.42332" lon="6.9335">
        <ele>2515</ele>
        <time>2022-05-23T11:36:11+02:00</time>
      </trkpt>
      <trkpt lat="44.4233" lon="6.93352">
        <ele>2514</ele>
        <time>2022-05-23T11:36:14+02:00</time>
      </trkpt>
      <trkpt lat="44.42329" lon="6.93355">
        <ele>2513</ele>
        <time>2022-05-23T11:36:16+02:00</time>
      </trkpt>
      <trkpt lat="44.42327" lon="6.93359">
        <ele>2511</ele>
        <time>2022-05-23T11:36:19+02:00</time>
      </trkpt>
      <trkpt lat="44.42323" lon="6.9337">
        <ele>2507</ele>
        <time>2022-05-23T11:36:30+02:00</time>
      </trkpt>
      <trkpt lat="44.42323" lon="6.9337">
        <ele>2507</ele>
        <time>2022-05-23T11:36:33+02:00</time>
      </trkpt>
      <trkpt lat="44.42323" lon="6.9337">
        <ele>2507</ele>
        <time>2022-05-23T11:36:39+02:00</time>
      </trkpt>
      <trkpt lat="44.42323" lon="6.93371">
        <ele>2507</ele>
        <time>2022-05-23T11:36:41+02:00</time>
      </trkpt>
      <trkpt lat="44.42323" lon="6.93374">
        <ele>2505</ele>
        <time>2022-05-23T11:36:52+02:00</time>
      </trkpt>
      <trkpt lat="44.42321" lon="6.93375">
        <ele>2505</ele>
        <time>2022-05-23T11:36:56+02:00</time>
      </trkpt>
      <trkpt lat="44.42319" lon="6.93378">
        <ele>2504</ele>
        <time>2022-05-23T11:36:59+02:00</time>
      </trkpt>
      <trkpt lat="44.42319" lon="6.93382">
        <ele>2502</ele>
        <time>2022-05-23T11:37:06+02:00</time>
      </trkpt>
      <trkpt lat="44.42322" lon="6.93386">
        <ele>2501</ele>
        <time>2022-05-23T11:37:11+02:00</time>
      </trkpt>
      <trkpt lat="44.42323" lon="6.93387">
        <ele>2500</ele>
        <time>2022-05-23T11:37:12+02:00</time>
      </trkpt>
      <trkpt lat="44.42327" lon="6.93391">
        <ele>2499</ele>
        <time>2022-05-23T11:37:20+02:00</time>
      </trkpt>
      <trkpt lat="44.42324" lon="6.93393">
        <ele>2498</ele>
        <time>2022-05-23T11:37:25+02:00</time>
      </trkpt>
      <trkpt lat="44.42318" lon="6.934">
        <ele>2495</ele>
        <time>2022-05-23T11:37:33+02:00</time>
      </trkpt>
      <trkpt lat="44.42317" lon="6.93401">
        <ele>2495</ele>
        <time>2022-05-23T11:37:34+02:00</time>
      </trkpt>
      <trkpt lat="44.42311" lon="6.93409">
        <ele>2492</ele>
        <time>2022-05-23T11:37:49+02:00</time>
      </trkpt>
      <trkpt lat="44.42307" lon="6.9341">
        <ele>2492</ele>
        <time>2022-05-23T11:37:54+02:00</time>
      </trkpt>
      <trkpt lat="44.42299" lon="6.93413">
        <ele>2492</ele>
        <time>2022-05-23T11:38:12+02:00</time>
      </trkpt>
      <trkpt lat="44.42294" lon="6.93415">
        <ele>2492</ele>
        <time>2022-05-23T11:38:18+02:00</time>
      </trkpt>
      <trkpt lat="44.42289" lon="6.9342">
        <ele>2490</ele>
        <time>2022-05-23T11:38:24+02:00</time>
      </trkpt>
      <trkpt lat="44.42284" lon="6.9343">
        <ele>2487</ele>
        <time>2022-05-23T11:38:39+02:00</time>
      </trkpt>
      <trkpt lat="44.42282" lon="6.93437">
        <ele>2484</ele>
        <time>2022-05-23T11:38:55+02:00</time>
      </trkpt>
      <trkpt lat="44.42283" lon="6.9344">
        <ele>2483</ele>
        <time>2022-05-23T11:39:11+02:00</time>
      </trkpt>
      <trkpt lat="44.42276" lon="6.93443">
        <ele>2483</ele>
        <time>2022-05-23T11:39:28+02:00</time>
      </trkpt>
      <trkpt lat="44.42269" lon="6.93447">
        <ele>2482</ele>
        <time>2022-05-23T11:39:40+02:00</time>
      </trkpt>
      <trkpt lat="44.42267" lon="6.93452">
        <ele>2481</ele>
        <time>2022-05-23T11:39:57+02:00</time>
      </trkpt>
      <trkpt lat="44.42267" lon="6.93457">
        <ele>2479</ele>
        <time>2022-05-23T11:40:08+02:00</time>
      </trkpt>
      <trkpt lat="44.42266" lon="6.93459">
        <ele>2478</ele>
        <time>2022-05-23T11:40:26+02:00</time>
      </trkpt>
      <trkpt lat="44.42266" lon="6.9346">
        <ele>2478</ele>
        <time>2022-05-23T11:40:33+02:00</time>
      </trkpt>
      <trkpt lat="44.42266" lon="6.93461">
        <ele>2477</ele>
        <time>2022-05-23T11:40:40+02:00</time>
      </trkpt>
      <trkpt lat="44.42267" lon="6.93461">
        <ele>2477</ele>
        <time>2022-05-23T11:40:47+02:00</time>
      </trkpt>
      <trkpt lat="44.42264" lon="6.93462">
        <ele>2477</ele>
        <time>2022-05-23T11:40:50+02:00</time>
      </trkpt>
      <trkpt lat="44.42259" lon="6.93467">
        <ele>2476</ele>
        <time>2022-05-23T11:40:59+02:00</time>
      </trkpt>
      <trkpt lat="44.42258" lon="6.93467">
        <ele>2476</ele>
        <time>2022-05-23T11:41:00+02:00</time>
      </trkpt>
      <trkpt lat="44.42254" lon="6.9347">
        <ele>2476</ele>
        <time>2022-05-23T11:41:06+02:00</time>
      </trkpt>
      <trkpt lat="44.42254" lon="6.93473">
        <ele>2474</ele>
        <time>2022-05-23T11:41:10+02:00</time>
      </trkpt>
      <trkpt lat="44.42254" lon="6.93479">
        <ele>2472</ele>
        <time>2022-05-23T11:41:18+02:00</time>
      </trkpt>
      <trkpt lat="44.42254" lon="6.93485">
        <ele>2470</ele>
        <time>2022-05-23T11:41:27+02:00</time>
      </trkpt>
      <trkpt lat="44.42254" lon="6.93485">
        <ele>2470</ele>
        <time>2022-05-23T11:41:30+02:00</time>
      </trkpt>
      <trkpt lat="44.42252" lon="6.93488">
        <ele>2469</ele>
        <time>2022-05-23T11:41:34+02:00</time>
      </trkpt>
      <trkpt lat="44.42251" lon="6.93494">
        <ele>2467</ele>
        <time>2022-05-23T11:41:47+02:00</time>
      </trkpt>
      <trkpt lat="44.4225" lon="6.93498">
        <ele>2466</ele>
        <time>2022-05-23T11:41:52+02:00</time>
      </trkpt>
      <trkpt lat="44.42248" lon="6.93503">
        <ele>2465</ele>
        <time>2022-05-23T11:41:58+02:00</time>
      </trkpt>
      <trkpt lat="44.42248" lon="6.93504">
        <ele>2464</ele>
        <time>2022-05-23T11:41:59+02:00</time>
      </trkpt>
      <trkpt lat="44.42247" lon="6.93509">
        <ele>2463</ele>
        <time>2022-05-23T11:42:03+02:00</time>
      </trkpt>
      <trkpt lat="44.42246" lon="6.93514">
        <ele>2461</ele>
        <time>2022-05-23T11:42:08+02:00</time>
      </trkpt>
      <trkpt lat="44.42245" lon="6.93517">
        <ele>2460</ele>
        <time>2022-05-23T11:42:11+02:00</time>
      </trkpt>
      <trkpt lat="44.42245" lon="6.93521">
        <ele>2459</ele>
        <time>2022-05-23T11:42:17+02:00</time>
      </trkpt>
      <trkpt lat="44.42245" lon="6.93525">
        <ele>2458</ele>
        <time>2022-05-23T11:42:23+02:00</time>
      </trkpt>
      <trkpt lat="44.42247" lon="6.93533">
        <ele>2454</ele>
        <time>2022-05-23T11:42:34+02:00</time>
      </trkpt>
      <trkpt lat="44.42247" lon="6.93535">
        <ele>2453</ele>
        <time>2022-05-23T11:42:36+02:00</time>
      </trkpt>
      <trkpt lat="44.42248" lon="6.93539">
        <ele>2451</ele>
        <time>2022-05-23T11:42:43+02:00</time>
      </trkpt>
      <trkpt lat="44.42247" lon="6.93549">
        <ele>2448</ele>
        <time>2022-05-23T11:42:55+02:00</time>
      </trkpt>
      <trkpt lat="44.42246" lon="6.93553">
        <ele>2447</ele>
        <time>2022-05-23T11:42:59+02:00</time>
      </trkpt>
      <trkpt lat="44.42244" lon="6.93562">
        <ele>2445</ele>
        <time>2022-05-23T11:43:07+02:00</time>
      </trkpt>
      <trkpt lat="44.42244" lon="6.93564">
        <ele>2444</ele>
        <time>2022-05-23T11:43:09+02:00</time>
      </trkpt>
      <trkpt lat="44.42244" lon="6.93567">
        <ele>2443</ele>
        <time>2022-05-23T11:43:13+02:00</time>
      </trkpt>
      <trkpt lat="44.42243" lon="6.93569">
        <ele>2442</ele>
        <time>2022-05-23T11:43:15+02:00</time>
      </trkpt>
      <trkpt lat="44.42243" lon="6.93577">
        <ele>2440</ele>
        <time>2022-05-23T11:43:26+02:00</time>
      </trkpt>
      <trkpt lat="44.42243" lon="6.93588">
        <ele>2437</ele>
        <time>2022-05-23T11:43:39+02:00</time>
      </trkpt>
      <trkpt lat="44.42244" lon="6.93594">
        <ele>2435</ele>
        <time>2022-05-23T11:43:47+02:00</time>
      </trkpt>
      <trkpt lat="44.42245" lon="6.936">
        <ele>2434</ele>
        <time>2022-05-23T11:43:52+02:00</time>
      </trkpt>
      <trkpt lat="44.42248" lon="6.93612">
        <ele>2430</ele>
        <time>2022-05-23T11:44:08+02:00</time>
      </trkpt>
      <trkpt lat="44.42246" lon="6.93614">
        <ele>2431</ele>
        <time>2022-05-23T11:44:25+02:00</time>
      </trkpt>
      <trkpt lat="44.42244" lon="6.93613">
        <ele>2431</ele>
        <time>2022-05-23T11:44:38+02:00</time>
      </trkpt>
      <trkpt lat="44.42244" lon="6.93609">
        <ele>2431</ele>
        <time>2022-05-23T11:44:59+02:00</time>
      </trkpt>
      <trkpt lat="44.42245" lon="6.93608">
        <ele>2431</ele>
        <time>2022-05-23T11:45:06+02:00</time>
      </trkpt>
      <trkpt lat="44.42227" lon="6.9362">
        <ele>2432</ele>
        <time>2022-05-23T11:45:24+02:00</time>
      </trkpt>
      <trkpt lat="44.42217" lon="6.93626">
        <ele>2433</ele>
        <time>2022-05-23T11:45:36+02:00</time>
      </trkpt>
      <trkpt lat="44.42212" lon="6.93627">
        <ele>2433</ele>
        <time>2022-05-23T11:45:55+02:00</time>
      </trkpt>
      <trkpt lat="44.42204" lon="6.93629">
        <ele>2434</ele>
        <time>2022-05-23T11:46:03+02:00</time>
      </trkpt>
      <trkpt lat="44.42195" lon="6.93633">
        <ele>2434</ele>
        <time>2022-05-23T11:46:19+02:00</time>
      </trkpt>
      <trkpt lat="44.42193" lon="6.93637">
        <ele>2434</ele>
        <time>2022-05-23T11:46:24+02:00</time>
      </trkpt>
      <trkpt lat="44.42177" lon="6.93647">
        <ele>2435</ele>
        <time>2022-05-23T11:46:41+02:00</time>
      </trkpt>
      <trkpt lat="44.42161" lon="6.93663">
        <ele>2434</ele>
        <time>2022-05-23T11:46:59+02:00</time>
      </trkpt>
      <trkpt lat="44.42145" lon="6.93675">
        <ele>2434</ele>
        <time>2022-05-23T11:47:15+02:00</time>
      </trkpt>
      <trkpt lat="44.42142" lon="6.93677">
        <ele>2434</ele>
        <time>2022-05-23T11:47:18+02:00</time>
      </trkpt>
      <trkpt lat="44.42125" lon="6.93687">
        <ele>2434</ele>
        <time>2022-05-23T11:47:35+02:00</time>
      </trkpt>
      <trkpt lat="44.42118" lon="6.93693">
        <ele>2433</ele>
        <time>2022-05-23T11:47:41+02:00</time>
      </trkpt>
      <trkpt lat="44.42112" lon="6.93694">
        <ele>2433</ele>
        <time>2022-05-23T11:47:46+02:00</time>
      </trkpt>
      <trkpt lat="44.42098" lon="6.937">
        <ele>2434</ele>
        <time>2022-05-23T11:47:58+02:00</time>
      </trkpt>
      <trkpt lat="44.42096" lon="6.93701">
        <ele>2434</ele>
        <time>2022-05-23T11:48:00+02:00</time>
      </trkpt>
      <trkpt lat="44.42092" lon="6.93704">
        <ele>2434</ele>
        <time>2022-05-23T11:48:05+02:00</time>
      </trkpt>
      <trkpt lat="44.42082" lon="6.93712">
        <ele>2433</ele>
        <time>2022-05-23T11:48:19+02:00</time>
      </trkpt>
      <trkpt lat="44.42071" lon="6.93719">
        <ele>2433</ele>
        <time>2022-05-23T11:48:34+02:00</time>
      </trkpt>
      <trkpt lat="44.42058" lon="6.93742">
        <ele>2433</ele>
        <time>2022-05-23T11:48:51+02:00</time>
      </trkpt>
      <trkpt lat="44.42056" lon="6.93743">
        <ele>2433</ele>
        <time>2022-05-23T11:48:53+02:00</time>
      </trkpt>
      <trkpt lat="44.42046" lon="6.9375">
        <ele>2432</ele>
        <time>2022-05-23T11:49:03+02:00</time>
      </trkpt>
      <trkpt lat="44.42036" lon="6.93759">
        <ele>2432</ele>
        <time>2022-05-23T11:49:13+02:00</time>
      </trkpt>
      <trkpt lat="44.42022" lon="6.93772">
        <ele>2431</ele>
        <time>2022-05-23T11:49:32+02:00</time>
      </trkpt>
      <trkpt lat="44.42016" lon="6.93776">
        <ele>2429</ele>
        <time>2022-05-23T11:49:42+02:00</time>
      </trkpt>
      <trkpt lat="44.42008" lon="6.93781">
        <ele>2427</ele>
        <time>2022-05-23T11:49:51+02:00</time>
      </trkpt>
      <trkpt lat="44.42005" lon="6.93783">
        <ele>2426</ele>
        <time>2022-05-23T11:49:55+02:00</time>
      </trkpt>
      <trkpt lat="44.42003" lon="6.93786">
        <ele>2426</ele>
        <time>2022-05-23T11:49:59+02:00</time>
      </trkpt>
      <trkpt lat="44.42002" lon="6.93788">
        <ele>2426</ele>
        <time>2022-05-23T11:50:02+02:00</time>
      </trkpt>
      <trkpt lat="44.42001" lon="6.93789">
        <ele>2426</ele>
        <time>2022-05-23T11:50:03+02:00</time>
      </trkpt>
      <trkpt lat="44.41998" lon="6.93791">
        <ele>2425</ele>
        <time>2022-05-23T11:50:08+02:00</time>
      </trkpt>
      <trkpt lat="44.41995" lon="6.93796">
        <ele>2425</ele>
        <time>2022-05-23T11:50:13+02:00</time>
      </trkpt>
      <trkpt lat="44.41989" lon="6.93807">
        <ele>2424</ele>
        <time>2022-05-23T11:50:26+02:00</time>
      </trkpt>
      <trkpt lat="44.41987" lon="6.93815">
        <ele>2423</ele>
        <time>2022-05-23T11:50:38+02:00</time>
      </trkpt>
      <trkpt lat="44.41987" lon="6.93814">
        <ele>2423</ele>
        <time>2022-05-23T11:50:42+02:00</time>
      </trkpt>
      <trkpt lat="44.41983" lon="6.93824">
        <ele>2421</ele>
        <time>2022-05-23T11:50:57+02:00</time>
      </trkpt>
      <trkpt lat="44.41982" lon="6.93825">
        <ele>2421</ele>
        <time>2022-05-23T11:50:58+02:00</time>
      </trkpt>
      <trkpt lat="44.41981" lon="6.9383">
        <ele>2420</ele>
        <time>2022-05-23T11:51:04+02:00</time>
      </trkpt>
      <trkpt lat="44.41979" lon="6.93832">
        <ele>2420</ele>
        <time>2022-05-23T11:51:07+02:00</time>
      </trkpt>
      <trkpt lat="44.41979" lon="6.93841">
        <ele>2420</ele>
        <time>2022-05-23T11:51:18+02:00</time>
      </trkpt>
      <trkpt lat="44.41973" lon="6.93844">
        <ele>2418</ele>
        <time>2022-05-23T11:51:28+02:00</time>
      </trkpt>
      <trkpt lat="44.4197" lon="6.93845">
        <ele>2417</ele>
        <time>2022-05-23T11:51:32+02:00</time>
      </trkpt>
      <trkpt lat="44.41968" lon="6.93848">
        <ele>2417</ele>
        <time>2022-05-23T11:51:36+02:00</time>
      </trkpt>
      <trkpt lat="44.41962" lon="6.93856">
        <ele>2415</ele>
        <time>2022-05-23T11:51:45+02:00</time>
      </trkpt>
      <trkpt lat="44.41956" lon="6.93871">
        <ele>2415</ele>
        <time>2022-05-23T11:52:03+02:00</time>
      </trkpt>
      <trkpt lat="44.4195" lon="6.93878">
        <ele>2413</ele>
        <time>2022-05-23T11:52:17+02:00</time>
      </trkpt>
      <trkpt lat="44.41946" lon="6.93887">
        <ele>2413</ele>
        <time>2022-05-23T11:52:32+02:00</time>
      </trkpt>
      <trkpt lat="44.41932" lon="6.93898">
        <ele>2412</ele>
        <time>2022-05-23T11:52:49+02:00</time>
      </trkpt>
      <trkpt lat="44.41931" lon="6.939">
        <ele>2413</ele>
        <time>2022-05-23T11:53:07+02:00</time>
      </trkpt>
      <trkpt lat="44.41928" lon="6.93902">
        <ele>2413</ele>
        <time>2022-05-23T11:53:23+02:00</time>
      </trkpt>
      <trkpt lat="44.4193" lon="6.93914">
        <ele>2415</ele>
        <time>2022-05-23T11:53:38+02:00</time>
      </trkpt>
      <trkpt lat="44.41929" lon="6.93923">
        <ele>2418</ele>
        <time>2022-05-23T11:53:55+02:00</time>
      </trkpt>
      <trkpt lat="44.41929" lon="6.93923">
        <ele>2418</ele>
        <time>2022-05-23T11:53:56+02:00</time>
      </trkpt>
      <trkpt lat="44.41923" lon="6.93932">
        <ele>2419</ele>
        <time>2022-05-23T11:54:09+02:00</time>
      </trkpt>
      <trkpt lat="44.4192" lon="6.93933">
        <ele>2418</ele>
        <time>2022-05-23T11:54:19+02:00</time>
      </trkpt>
      <trkpt lat="44.41908" lon="6.93928">
        <ele>2414</ele>
        <time>2022-05-23T11:54:36+02:00</time>
      </trkpt>
      <trkpt lat="44.41899" lon="6.93919">
        <ele>2412</ele>
        <time>2022-05-23T11:54:53+02:00</time>
      </trkpt>
      <trkpt lat="44.41899" lon="6.93918">
        <ele>2412</ele>
        <time>2022-05-23T11:55:11+02:00</time>
      </trkpt>
      <trkpt lat="44.41906" lon="6.93922">
        <ele>2413</ele>
        <time>2022-05-23T11:55:37+02:00</time>
      </trkpt>
      <trkpt lat="44.41901" lon="6.93921">
        <ele>2412</ele>
        <time>2022-05-23T11:55:50+02:00</time>
      </trkpt>
      <trkpt lat="44.41899" lon="6.93917">
        <ele>2411</ele>
        <time>2022-05-23T11:56:14+02:00</time>
      </trkpt>
      <trkpt lat="44.41898" lon="6.93917">
        <ele>2411</ele>
        <time>2022-05-23T11:56:17+02:00</time>
      </trkpt>
      <trkpt lat="44.419" lon="6.93917">
        <ele>2411</ele>
        <time>2022-05-23T11:56:24+02:00</time>
      </trkpt>
      <trkpt lat="44.41897" lon="6.93923">
        <ele>2412</ele>
        <time>2022-05-23T12:18:29+02:00</time>
      </trkpt>
      <trkpt lat="44.41897" lon="6.93922">
        <ele>2412</ele>
        <time>2022-05-23T12:18:30+02:00</time>
      </trkpt>
      <trkpt lat="44.41896" lon="6.93917">
        <ele>2411</ele>
        <time>2022-05-23T12:18:38+02:00</time>
      </trkpt>
      <trkpt lat="44.41891" lon="6.93919">
        <ele>2411</ele>
        <time>2022-05-23T12:18:47+02:00</time>
      </trkpt>
      <trkpt lat="44.41892" lon="6.93917">
        <ele>2411</ele>
        <time>2022-05-23T12:18:50+02:00</time>
      </trkpt>
      <trkpt lat="44.41898" lon="6.93923">
        <ele>2412</ele>
        <time>2022-05-23T12:19:05+02:00</time>
      </trkpt>
      <trkpt lat="44.41897" lon="6.93925">
        <ele>2413</ele>
        <time>2022-05-23T12:19:08+02:00</time>
      </trkpt>
      <trkpt lat="44.41896" lon="6.93926">
        <ele>2413</ele>
        <time>2022-05-23T12:19:13+02:00</time>
      </trkpt>
      <trkpt lat="44.41849" lon="6.94215">
        <ele>2432</ele>
        <time>2022-05-23T12:19:17+02:00</time>
      </trkpt>
      <trkpt lat="44.41893" lon="6.93935">
        <ele>2414</ele>
        <time>2022-05-23T12:19:23+02:00</time>
      </trkpt>
      <trkpt lat="44.4189" lon="6.93944">
        <ele>2414</ele>
        <time>2022-05-23T12:19:32+02:00</time>
      </trkpt>
      <trkpt lat="44.4189" lon="6.93945">
        <ele>2415</ele>
        <time>2022-05-23T12:19:33+02:00</time>
      </trkpt>
      <trkpt lat="44.41885" lon="6.93955">
        <ele>2419</ele>
        <time>2022-05-23T12:19:47+02:00</time>
      </trkpt>
      <trkpt lat="44.41884" lon="6.93956">
        <ele>2419</ele>
        <time>2022-05-23T12:19:49+02:00</time>
      </trkpt>
      <trkpt lat="44.41882" lon="6.93956">
        <ele>2420</ele>
        <time>2022-05-23T12:19:54+02:00</time>
      </trkpt>
      <trkpt lat="44.41876" lon="6.93963">
        <ele>2422</ele>
        <time>2022-05-23T12:20:07+02:00</time>
      </trkpt>
      <trkpt lat="44.41872" lon="6.93968">
        <ele>2423</ele>
        <time>2022-05-23T12:20:14+02:00</time>
      </trkpt>
      <trkpt lat="44.41868" lon="6.93971">
        <ele>2424</ele>
        <time>2022-05-23T12:20:18+02:00</time>
      </trkpt>
      <trkpt lat="44.41861" lon="6.93977">
        <ele>2425</ele>
        <time>2022-05-23T12:20:31+02:00</time>
      </trkpt>
      <trkpt lat="44.41849" lon="6.93984">
        <ele>2428</ele>
        <time>2022-05-23T12:20:49+02:00</time>
      </trkpt>
      <trkpt lat="44.41845" lon="6.93992">
        <ele>2431</ele>
        <time>2022-05-23T12:20:59+02:00</time>
      </trkpt>
      <trkpt lat="44.41845" lon="6.93994">
        <ele>2431</ele>
        <time>2022-05-23T12:21:03+02:00</time>
      </trkpt>
      <trkpt lat="44.41844" lon="6.93996">
        <ele>2432</ele>
        <time>2022-05-23T12:21:07+02:00</time>
      </trkpt>
      <trkpt lat="44.41844" lon="6.93997">
        <ele>2432</ele>
        <time>2022-05-23T12:21:09+02:00</time>
      </trkpt>
      <trkpt lat="44.41842" lon="6.94001">
        <ele>2433</ele>
        <time>2022-05-23T12:21:14+02:00</time>
      </trkpt>
      <trkpt lat="44.41841" lon="6.94003">
        <ele>2433</ele>
        <time>2022-05-23T12:21:16+02:00</time>
      </trkpt>
      <trkpt lat="44.4184" lon="6.94011">
        <ele>2436</ele>
        <time>2022-05-23T12:21:26+02:00</time>
      </trkpt>
      <trkpt lat="44.41839" lon="6.94012">
        <ele>2436</ele>
        <time>2022-05-23T12:21:27+02:00</time>
      </trkpt>
      <trkpt lat="44.41837" lon="6.94022">
        <ele>2438</ele>
        <time>2022-05-23T12:21:43+02:00</time>
      </trkpt>
      <trkpt lat="44.41836" lon="6.9403">
        <ele>2440</ele>
        <time>2022-05-23T12:21:54+02:00</time>
      </trkpt>
      <trkpt lat="44.41836" lon="6.94031">
        <ele>2440</ele>
        <time>2022-05-23T12:22:00+02:00</time>
      </trkpt>
      <trkpt lat="44.41836" lon="6.94038">
        <ele>2442</ele>
        <time>2022-05-23T12:22:09+02:00</time>
      </trkpt>
      <trkpt lat="44.41837" lon="6.94047">
        <ele>2444</ele>
        <time>2022-05-23T12:22:21+02:00</time>
      </trkpt>
      <trkpt lat="44.41836" lon="6.94056">
        <ele>2446</ele>
        <time>2022-05-23T12:22:31+02:00</time>
      </trkpt>
      <trkpt lat="44.41836" lon="6.94058">
        <ele>2446</ele>
        <time>2022-05-23T12:22:32+02:00</time>
      </trkpt>
      <trkpt lat="44.41837" lon="6.94066">
        <ele>2449</ele>
        <time>2022-05-23T12:22:42+02:00</time>
      </trkpt>
      <trkpt lat="44.41836" lon="6.9407">
        <ele>2450</ele>
        <time>2022-05-23T12:22:49+02:00</time>
      </trkpt>
      <trkpt lat="44.41839" lon="6.94086">
        <ele>2454</ele>
        <time>2022-05-23T12:23:05+02:00</time>
      </trkpt>
      <trkpt lat="44.41841" lon="6.94106">
        <ele>2455</ele>
        <time>2022-05-23T12:23:24+02:00</time>
      </trkpt>
      <trkpt lat="44.41843" lon="6.94121">
        <ele>2453</ele>
        <time>2022-05-23T12:23:37+02:00</time>
      </trkpt>
      <trkpt lat="44.4185" lon="6.94133">
        <ele>2451</ele>
        <time>2022-05-23T12:23:54+02:00</time>
      </trkpt>
      <trkpt lat="44.41851" lon="6.94134">
        <ele>2451</ele>
        <time>2022-05-23T12:23:57+02:00</time>
      </trkpt>
      <trkpt lat="44.41858" lon="6.94135">
        <ele>2450</ele>
        <time>2022-05-23T12:24:05+02:00</time>
      </trkpt>
      <trkpt lat="44.41859" lon="6.94135">
        <ele>2450</ele>
        <time>2022-05-23T12:24:06+02:00</time>
      </trkpt>
      <trkpt lat="44.41873" lon="6.94134">
        <ele>2449</ele>
        <time>2022-05-23T12:24:21+02:00</time>
      </trkpt>
      <trkpt lat="44.41874" lon="6.94133">
        <ele>2449</ele>
        <time>2022-05-23T12:24:22+02:00</time>
      </trkpt>
      <trkpt lat="44.41875" lon="6.94133">
        <ele>2449</ele>
        <time>2022-05-23T12:24:23+02:00</time>
      </trkpt>
      <trkpt lat="44.41878" lon="6.94133">
        <ele>2448</ele>
        <time>2022-05-23T12:24:26+02:00</time>
      </trkpt>
      <trkpt lat="44.41882" lon="6.94133">
        <ele>2448</ele>
        <time>2022-05-23T12:24:31+02:00</time>
      </trkpt>
      <trkpt lat="44.41886" lon="6.94134">
        <ele>2447</ele>
        <time>2022-05-23T12:24:35+02:00</time>
      </trkpt>
      <trkpt lat="44.41899" lon="6.94134">
        <ele>2445</ele>
        <time>2022-05-23T12:24:49+02:00</time>
      </trkpt>
      <trkpt lat="44.41903" lon="6.94134">
        <ele>2444</ele>
        <time>2022-05-23T12:24:53+02:00</time>
      </trkpt>
      <trkpt lat="44.41906" lon="6.94135">
        <ele>2444</ele>
        <time>2022-05-23T12:24:56+02:00</time>
      </trkpt>
      <trkpt lat="44.41908" lon="6.94136">
        <ele>2443</ele>
        <time>2022-05-23T12:24:58+02:00</time>
      </trkpt>
      <trkpt lat="44.41911" lon="6.94137">
        <ele>2442</ele>
        <time>2022-05-23T12:25:02+02:00</time>
      </trkpt>
      <trkpt lat="44.41924" lon="6.94137">
        <ele>2441</ele>
        <time>2022-05-23T12:25:18+02:00</time>
      </trkpt>
      <trkpt lat="44.41927" lon="6.94136">
        <ele>2440</ele>
        <time>2022-05-23T12:25:21+02:00</time>
      </trkpt>
      <trkpt lat="44.4193" lon="6.94138">
        <ele>2440</ele>
        <time>2022-05-23T12:25:25+02:00</time>
      </trkpt>
      <trkpt lat="44.41931" lon="6.94138">
        <ele>2440</ele>
        <time>2022-05-23T12:25:26+02:00</time>
      </trkpt>
      <trkpt lat="44.41934" lon="6.94139">
        <ele>2439</ele>
        <time>2022-05-23T12:25:29+02:00</time>
      </trkpt>
      <trkpt lat="44.41938" lon="6.94141">
        <ele>2439</ele>
        <time>2022-05-23T12:25:36+02:00</time>
      </trkpt>
      <trkpt lat="44.41938" lon="6.94142">
        <ele>2439</ele>
        <time>2022-05-23T12:25:37+02:00</time>
      </trkpt>
      <trkpt lat="44.41937" lon="6.94146">
        <ele>2439</ele>
        <time>2022-05-23T12:25:39+02:00</time>
      </trkpt>
      <trkpt lat="44.41938" lon="6.94149">
        <ele>2439</ele>
        <time>2022-05-23T12:25:41+02:00</time>
      </trkpt>
      <trkpt lat="44.41939" lon="6.94151">
        <ele>2439</ele>
        <time>2022-05-23T12:25:42+02:00</time>
      </trkpt>
      <trkpt lat="44.4194" lon="6.94161">
        <ele>2439</ele>
        <time>2022-05-23T12:25:54+02:00</time>
      </trkpt>
      <trkpt lat="44.41939" lon="6.94161">
        <ele>2439</ele>
        <time>2022-05-23T12:26:03+02:00</time>
      </trkpt>
      <trkpt lat="44.41937" lon="6.94161">
        <ele>2439</ele>
        <time>2022-05-23T12:26:21+02:00</time>
      </trkpt>
      <trkpt lat="44.4194" lon="6.94162">
        <ele>2439</ele>
        <time>2022-05-23T12:26:46+02:00</time>
      </trkpt>
      <trkpt lat="44.41939" lon="6.94161">
        <ele>2439</ele>
        <time>2022-05-23T12:27:07+02:00</time>
      </trkpt>
      <trkpt lat="44.41937" lon="6.94159">
        <ele>2439</ele>
        <time>2022-05-23T12:27:17+02:00</time>
      </trkpt>
      <trkpt lat="44.41933" lon="6.9416">
        <ele>2439</ele>
        <time>2022-05-23T12:27:21+02:00</time>
      </trkpt>
      <trkpt lat="44.41921" lon="6.94172">
        <ele>2438</ele>
        <time>2022-05-23T12:27:33+02:00</time>
      </trkpt>
      <trkpt lat="44.41918" lon="6.94177">
        <ele>2438</ele>
        <time>2022-05-23T12:27:37+02:00</time>
      </trkpt>
      <trkpt lat="44.41917" lon="6.94178">
        <ele>2438</ele>
        <time>2022-05-23T12:27:38+02:00</time>
      </trkpt>
      <trkpt lat="44.41915" lon="6.94179">
        <ele>2438</ele>
        <time>2022-05-23T12:27:40+02:00</time>
      </trkpt>
      <trkpt lat="44.41913" lon="6.94179">
        <ele>2438</ele>
        <time>2022-05-23T12:27:43+02:00</time>
      </trkpt>
      <trkpt lat="44.41914" lon="6.94178">
        <ele>2438</ele>
        <time>2022-05-23T12:27:44+02:00</time>
      </trkpt>
      <trkpt lat="44.41913" lon="6.94178">
        <ele>2438</ele>
        <time>2022-05-23T12:27:49+02:00</time>
      </trkpt>
      <trkpt lat="44.41913" lon="6.94178">
        <ele>2438</ele>
        <time>2022-05-23T12:27:50+02:00</time>
      </trkpt>
      <trkpt lat="44.41913" lon="6.94179">
        <ele>2438</ele>
        <time>2022-05-23T12:27:51+02:00</time>
      </trkpt>
      <trkpt lat="44.41912" lon="6.94181">
        <ele>2438</ele>
        <time>2022-05-23T12:27:53+02:00</time>
      </trkpt>
      <trkpt lat="44.41911" lon="6.94187">
        <ele>2437</ele>
        <time>2022-05-23T12:27:57+02:00</time>
      </trkpt>
      <trkpt lat="44.41911" lon="6.94189">
        <ele>2437</ele>
        <time>2022-05-23T12:27:59+02:00</time>
      </trkpt>
      <trkpt lat="44.41911" lon="6.94189">
        <ele>2437</ele>
        <time>2022-05-23T12:28:01+02:00</time>
      </trkpt>
      <trkpt lat="44.41911" lon="6.94189">
        <ele>2437</ele>
        <time>2022-05-23T12:28:05+02:00</time>
      </trkpt>
      <trkpt lat="44.4191" lon="6.94188">
        <ele>2437</ele>
        <time>2022-05-23T12:28:06+02:00</time>
      </trkpt>
      <trkpt lat="44.41905" lon="6.94184">
        <ele>2437</ele>
        <time>2022-05-23T12:28:11+02:00</time>
      </trkpt>
      <trkpt lat="44.41904" lon="6.94184">
        <ele>2437</ele>
        <time>2022-05-23T12:28:12+02:00</time>
      </trkpt>
      <trkpt lat="44.41886" lon="6.94183">
        <ele>2435</ele>
        <time>2022-05-23T12:28:27+02:00</time>
      </trkpt>
      <trkpt lat="44.41881" lon="6.94189">
        <ele>2434</ele>
        <time>2022-05-23T12:28:34+02:00</time>
      </trkpt>
      <trkpt lat="44.41875" lon="6.94192">
        <ele>2433</ele>
        <time>2022-05-23T12:28:40+02:00</time>
      </trkpt>
      <trkpt lat="44.41869" lon="6.94198">
        <ele>2432</ele>
        <time>2022-05-23T12:28:48+02:00</time>
      </trkpt>
      <trkpt lat="44.41863" lon="6.94203">
        <ele>2431</ele>
        <time>2022-05-23T12:28:54+02:00</time>
      </trkpt>
      <trkpt lat="44.41854" lon="6.94214">
        <ele>2431</ele>
        <time>2022-05-23T12:29:04+02:00</time>
      </trkpt>
      <trkpt lat="44.41853" lon="6.94215">
        <ele>2431</ele>
        <time>2022-05-23T12:29:05+02:00</time>
      </trkpt>
      <trkpt lat="44.41849" lon="6.9422">
        <ele>2432</ele>
        <time>2022-05-23T12:29:10+02:00</time>
      </trkpt>
      <trkpt lat="44.41847" lon="6.94222">
        <ele>2432</ele>
        <time>2022-05-23T12:29:12+02:00</time>
      </trkpt>
      <trkpt lat="44.41845" lon="6.94221">
        <ele>2432</ele>
        <time>2022-05-23T12:29:14+02:00</time>
      </trkpt>
      <trkpt lat="44.41844" lon="6.94221">
        <ele>2432</ele>
        <time>2022-05-23T12:29:16+02:00</time>
      </trkpt>
      <trkpt lat="44.41842" lon="6.94222">
        <ele>2433</ele>
        <time>2022-05-23T12:29:19+02:00</time>
      </trkpt>
      <trkpt lat="44.41835" lon="6.94239">
        <ele>2431</ele>
        <time>2022-05-23T12:29:35+02:00</time>
      </trkpt>
      <trkpt lat="44.41835" lon="6.9424">
        <ele>2431</ele>
        <time>2022-05-23T12:29:36+02:00</time>
      </trkpt>
      <trkpt lat="44.41833" lon="6.94241">
        <ele>2431</ele>
        <time>2022-05-23T12:29:38+02:00</time>
      </trkpt>
      <trkpt lat="44.41831" lon="6.94246">
        <ele>2431</ele>
        <time>2022-05-23T12:29:42+02:00</time>
      </trkpt>
      <trkpt lat="44.41831" lon="6.94248">
        <ele>2431</ele>
        <time>2022-05-23T12:29:44+02:00</time>
      </trkpt>
      <trkpt lat="44.4183" lon="6.94249">
        <ele>2431</ele>
        <time>2022-05-23T12:29:46+02:00</time>
      </trkpt>
      <trkpt lat="44.41829" lon="6.94249">
        <ele>2431</ele>
        <time>2022-05-23T12:29:48+02:00</time>
      </trkpt>
      <trkpt lat="44.41819" lon="6.94272">
        <ele>2430</ele>
        <time>2022-05-23T12:30:06+02:00</time>
      </trkpt>
      <trkpt lat="44.41813" lon="6.9428">
        <ele>2431</ele>
        <time>2022-05-23T12:30:17+02:00</time>
      </trkpt>
      <trkpt lat="44.41808" lon="6.94283">
        <ele>2432</ele>
        <time>2022-05-23T12:30:26+02:00</time>
      </trkpt>
      <trkpt lat="44.41803" lon="6.94295">
        <ele>2433</ele>
        <time>2022-05-23T12:30:40+02:00</time>
      </trkpt>
      <trkpt lat="44.41803" lon="6.94296">
        <ele>2433</ele>
        <time>2022-05-23T12:30:41+02:00</time>
      </trkpt>
      <trkpt lat="44.41798" lon="6.94303">
        <ele>2434</ele>
        <time>2022-05-23T12:30:51+02:00</time>
      </trkpt>
      <trkpt lat="44.41792" lon="6.94308">
        <ele>2434</ele>
        <time>2022-05-23T12:30:58+02:00</time>
      </trkpt>
      <trkpt lat="44.41792" lon="6.94308">
        <ele>2435</ele>
        <time>2022-05-23T12:30:59+02:00</time>
      </trkpt>
      <trkpt lat="44.41789" lon="6.94312">
        <ele>2434</ele>
        <time>2022-05-23T12:31:03+02:00</time>
      </trkpt>
      <trkpt lat="44.41789" lon="6.94313">
        <ele>2434</ele>
        <time>2022-05-23T12:31:04+02:00</time>
      </trkpt>
      <trkpt lat="44.41785" lon="6.94317">
        <ele>2435</ele>
        <time>2022-05-23T12:31:10+02:00</time>
      </trkpt>
      <trkpt lat="44.41783" lon="6.94319">
        <ele>2435</ele>
        <time>2022-05-23T12:31:12+02:00</time>
      </trkpt>
      <trkpt lat="44.41778" lon="6.94326">
        <ele>2435</ele>
        <time>2022-05-23T12:31:25+02:00</time>
      </trkpt>
      <trkpt lat="44.41775" lon="6.94332">
        <ele>2434</ele>
        <time>2022-05-23T12:31:30+02:00</time>
      </trkpt>
      <trkpt lat="44.41772" lon="6.94338">
        <ele>2433</ele>
        <time>2022-05-23T12:31:37+02:00</time>
      </trkpt>
      <trkpt lat="44.41769" lon="6.9434">
        <ele>2433</ele>
        <time>2022-05-23T12:31:41+02:00</time>
      </trkpt>
      <trkpt lat="44.41766" lon="6.94343">
        <ele>2433</ele>
        <time>2022-05-23T12:31:45+02:00</time>
      </trkpt>
      <trkpt lat="44.4176" lon="6.94345">
        <ele>2433</ele>
        <time>2022-05-23T12:31:50+02:00</time>
      </trkpt>
      <trkpt lat="44.41755" lon="6.94348">
        <ele>2434</ele>
        <time>2022-05-23T12:31:56+02:00</time>
      </trkpt>
      <trkpt lat="44.41751" lon="6.94353">
        <ele>2434</ele>
        <time>2022-05-23T12:32:06+02:00</time>
      </trkpt>
      <trkpt lat="44.41745" lon="6.94358">
        <ele>2433</ele>
        <time>2022-05-23T12:32:13+02:00</time>
      </trkpt>
      <trkpt lat="44.41746" lon="6.94362">
        <ele>2433</ele>
        <time>2022-05-23T12:32:24+02:00</time>
      </trkpt>
      <trkpt lat="44.41746" lon="6.94363">
        <ele>2433</ele>
        <time>2022-05-23T12:32:25+02:00</time>
      </trkpt>
      <trkpt lat="44.41747" lon="6.94365">
        <ele>2433</ele>
        <time>2022-05-23T12:32:27+02:00</time>
      </trkpt>
      <trkpt lat="44.41748" lon="6.9437">
        <ele>2432</ele>
        <time>2022-05-23T12:32:34+02:00</time>
      </trkpt>
      <trkpt lat="44.41747" lon="6.94371">
        <ele>2431</ele>
        <time>2022-05-23T12:32:35+02:00</time>
      </trkpt>
      <trkpt lat="44.41747" lon="6.94372">
        <ele>2431</ele>
        <time>2022-05-23T12:32:38+02:00</time>
      </trkpt>
      <trkpt lat="44.41746" lon="6.94372">
        <ele>2431</ele>
        <time>2022-05-23T12:32:50+02:00</time>
      </trkpt>
      <trkpt lat="44.41745" lon="6.94373">
        <ele>2431</ele>
        <time>2022-05-23T12:32:51+02:00</time>
      </trkpt>
      <trkpt lat="44.41745" lon="6.94373">
        <ele>2430</ele>
        <time>2022-05-23T12:32:52+02:00</time>
      </trkpt>
      <trkpt lat="44.41743" lon="6.94373">
        <ele>2430</ele>
        <time>2022-05-23T12:32:55+02:00</time>
      </trkpt>
      <trkpt lat="44.41743" lon="6.94374">
        <ele>2430</ele>
        <time>2022-05-23T12:32:57+02:00</time>
      </trkpt>
      <trkpt lat="44.41743" lon="6.94374">
        <ele>2430</ele>
        <time>2022-05-23T12:32:58+02:00</time>
      </trkpt>
      <trkpt lat="44.41743" lon="6.94374">
        <ele>2430</ele>
        <time>2022-05-23T12:33:01+02:00</time>
      </trkpt>
      <trkpt lat="44.41744" lon="6.94374">
        <ele>2430</ele>
        <time>2022-05-23T12:33:02+02:00</time>
      </trkpt>
      <trkpt lat="44.41747" lon="6.94369">
        <ele>2432</ele>
        <time>2022-05-23T12:33:09+02:00</time>
      </trkpt>
      <trkpt lat="44.41747" lon="6.94369">
        <ele>2432</ele>
        <time>2022-05-23T12:33:10+02:00</time>
      </trkpt>
      <trkpt lat="44.41749" lon="6.94367">
        <ele>2432</ele>
        <time>2022-05-23T12:33:12+02:00</time>
      </trkpt>
      <trkpt lat="44.41748" lon="6.94368">
        <ele>2432</ele>
        <time>2022-05-23T12:33:13+02:00</time>
      </trkpt>
      <trkpt lat="44.41748" lon="6.94368">
        <ele>2432</ele>
        <time>2022-05-23T12:33:18+02:00</time>
      </trkpt>
      <trkpt lat="44.41747" lon="6.94368">
        <ele>2432</ele>
        <time>2022-05-23T12:33:20+02:00</time>
      </trkpt>
      <trkpt lat="44.41748" lon="6.94369">
        <ele>2432</ele>
        <time>2022-05-23T12:33:21+02:00</time>
      </trkpt>
      <trkpt lat="44.41747" lon="6.9437">
        <ele>2431</ele>
        <time>2022-05-23T12:33:23+02:00</time>
      </trkpt>
      <trkpt lat="44.41746" lon="6.94371">
        <ele>2431</ele>
        <time>2022-05-23T12:33:24+02:00</time>
      </trkpt>
      <trkpt lat="44.41746" lon="6.94372">
        <ele>2431</ele>
        <time>2022-05-23T12:33:32+02:00</time>
      </trkpt>
      <trkpt lat="44.41746" lon="6.94372">
        <ele>2431</ele>
        <time>2022-05-23T12:33:35+02:00</time>
      </trkpt>
      <trkpt lat="44.41745" lon="6.94371">
        <ele>2431</ele>
        <time>2022-05-23T12:33:41+02:00</time>
      </trkpt>
      <trkpt lat="44.41745" lon="6.9437">
        <ele>2431</ele>
        <time>2022-05-23T12:34:06+02:00</time>
      </trkpt>
      <trkpt lat="44.41747" lon="6.94372">
        <ele>2431</ele>
        <time>2022-05-23T12:34:07+02:00</time>
      </trkpt>
      <trkpt lat="44.41747" lon="6.94372">
        <ele>2431</ele>
        <time>2022-05-23T12:34:10+02:00</time>
      </trkpt>
      <trkpt lat="44.41746" lon="6.94372">
        <ele>2431</ele>
        <time>2022-05-23T12:34:15+02:00</time>
      </trkpt>
      <trkpt lat="44.41745" lon="6.94373">
        <ele>2431</ele>
        <time>2022-05-23T12:34:18+02:00</time>
      </trkpt>
      <trkpt lat="44.41744" lon="6.94377">
        <ele>2429</ele>
        <time>2022-05-23T12:34:25+02:00</time>
      </trkpt>
      <trkpt lat="44.41743" lon="6.94378">
        <ele>2429</ele>
        <time>2022-05-23T12:34:27+02:00</time>
      </trkpt>
      <trkpt lat="44.41739" lon="6.94382">
        <ele>2427</ele>
        <time>2022-05-23T12:34:38+02:00</time>
      </trkpt>
      <trkpt lat="44.41739" lon="6.94387">
        <ele>2426</ele>
        <time>2022-05-23T12:34:42+02:00</time>
      </trkpt>
      <trkpt lat="44.41738" lon="6.94388">
        <ele>2426</ele>
        <time>2022-05-23T12:34:44+02:00</time>
      </trkpt>
      <trkpt lat="44.41736" lon="6.94392">
        <ele>2424</ele>
        <time>2022-05-23T12:34:50+02:00</time>
      </trkpt>
      <trkpt lat="44.41736" lon="6.94395">
        <ele>2423</ele>
        <time>2022-05-23T12:34:55+02:00</time>
      </trkpt>
      <trkpt lat="44.41733" lon="6.94397">
        <ele>2422</ele>
        <time>2022-05-23T12:35:08+02:00</time>
      </trkpt>
      <trkpt lat="44.41725" lon="6.94408">
        <ele>2419</ele>
        <time>2022-05-23T12:35:22+02:00</time>
      </trkpt>
      <trkpt lat="44.41719" lon="6.94418">
        <ele>2417</ele>
        <time>2022-05-23T12:35:34+02:00</time>
      </trkpt>
      <trkpt lat="44.41718" lon="6.94418">
        <ele>2417</ele>
        <time>2022-05-23T12:35:35+02:00</time>
      </trkpt>
      <trkpt lat="44.41712" lon="6.94425">
        <ele>2415</ele>
        <time>2022-05-23T12:35:43+02:00</time>
      </trkpt>
      <trkpt lat="44.41712" lon="6.94425">
        <ele>2414</ele>
        <time>2022-05-23T12:35:44+02:00</time>
      </trkpt>
      <trkpt lat="44.41706" lon="6.94431">
        <ele>2413</ele>
        <time>2022-05-23T12:35:58+02:00</time>
      </trkpt>
      <trkpt lat="44.41705" lon="6.94433">
        <ele>2412</ele>
        <time>2022-05-23T12:36:01+02:00</time>
      </trkpt>
      <trkpt lat="44.41699" lon="6.94441">
        <ele>2411</ele>
        <time>2022-05-23T12:36:13+02:00</time>
      </trkpt>
      <trkpt lat="44.41699" lon="6.94446">
        <ele>2410</ele>
        <time>2022-05-23T12:36:17+02:00</time>
      </trkpt>
      <trkpt lat="44.41689" lon="6.94454">
        <ele>2408</ele>
        <time>2022-05-23T12:36:30+02:00</time>
      </trkpt>
      <trkpt lat="44.41688" lon="6.94462">
        <ele>2406</ele>
        <time>2022-05-23T12:36:37+02:00</time>
      </trkpt>
      <trkpt lat="44.41687" lon="6.94471">
        <ele>2404</ele>
        <time>2022-05-23T12:36:50+02:00</time>
      </trkpt>
      <trkpt lat="44.41688" lon="6.94478">
        <ele>2402</ele>
        <time>2022-05-23T12:37:04+02:00</time>
      </trkpt>
      <trkpt lat="44.41688" lon="6.94482">
        <ele>2400</ele>
        <time>2022-05-23T12:37:16+02:00</time>
      </trkpt>
      <trkpt lat="44.41686" lon="6.94489">
        <ele>2398</ele>
        <time>2022-05-23T12:37:31+02:00</time>
      </trkpt>
      <trkpt lat="44.41688" lon="6.9449">
        <ele>2397</ele>
        <time>2022-05-23T12:37:45+02:00</time>
      </trkpt>
      <trkpt lat="44.41686" lon="6.94494">
        <ele>2396</ele>
        <time>2022-05-23T12:38:03+02:00</time>
      </trkpt>
      <trkpt lat="44.41685" lon="6.94499">
        <ele>2394</ele>
        <time>2022-05-23T12:38:16+02:00</time>
      </trkpt>
      <trkpt lat="44.41682" lon="6.94506">
        <ele>2392</ele>
        <time>2022-05-23T12:38:30+02:00</time>
      </trkpt>
      <trkpt lat="44.41681" lon="6.9451">
        <ele>2391</ele>
        <time>2022-05-23T12:38:39+02:00</time>
      </trkpt>
      <trkpt lat="44.41681" lon="6.9451">
        <ele>2391</ele>
        <time>2022-05-23T12:38:40+02:00</time>
      </trkpt>
      <trkpt lat="44.4168" lon="6.94514">
        <ele>2390</ele>
        <time>2022-05-23T12:38:43+02:00</time>
      </trkpt>
      <trkpt lat="44.41679" lon="6.94515">
        <ele>2390</ele>
        <time>2022-05-23T12:38:45+02:00</time>
      </trkpt>
      <trkpt lat="44.41675" lon="6.94526">
        <ele>2387</ele>
        <time>2022-05-23T12:38:58+02:00</time>
      </trkpt>
      <trkpt lat="44.41671" lon="6.94534">
        <ele>2385</ele>
        <time>2022-05-23T12:39:16+02:00</time>
      </trkpt>
      <trkpt lat="44.41663" lon="6.94543">
        <ele>2385</ele>
        <time>2022-05-23T12:39:32+02:00</time>
      </trkpt>
      <trkpt lat="44.4166" lon="6.9455">
        <ele>2383</ele>
        <time>2022-05-23T12:39:48+02:00</time>
      </trkpt>
      <trkpt lat="44.41661" lon="6.94551">
        <ele>2383</ele>
        <time>2022-05-23T12:39:49+02:00</time>
      </trkpt>
      <trkpt lat="44.4166" lon="6.94552">
        <ele>2383</ele>
        <time>2022-05-23T12:39:50+02:00</time>
      </trkpt>
      <trkpt lat="44.41659" lon="6.94552">
        <ele>2383</ele>
        <time>2022-05-23T12:39:52+02:00</time>
      </trkpt>
      <trkpt lat="44.41661" lon="6.94556">
        <ele>2381</ele>
        <time>2022-05-23T12:40:13+02:00</time>
      </trkpt>
      <trkpt lat="44.41661" lon="6.94555">
        <ele>2381</ele>
        <time>2022-05-23T12:40:32+02:00</time>
      </trkpt>
      <trkpt lat="44.41653" lon="6.94563">
        <ele>2381</ele>
        <time>2022-05-23T12:40:45+02:00</time>
      </trkpt>
      <trkpt lat="44.4165" lon="6.94566">
        <ele>2381</ele>
        <time>2022-05-23T12:40:48+02:00</time>
      </trkpt>
      <trkpt lat="44.41637" lon="6.94571">
        <ele>2383</ele>
        <time>2022-05-23T12:41:04+02:00</time>
      </trkpt>
      <trkpt lat="44.41628" lon="6.94573">
        <ele>2384</ele>
        <time>2022-05-23T12:41:14+02:00</time>
      </trkpt>
      <trkpt lat="44.41612" lon="6.94572">
        <ele>2389</ele>
        <time>2022-05-23T12:41:33+02:00</time>
      </trkpt>
      <trkpt lat="44.41599" lon="6.94572">
        <ele>2388</ele>
        <time>2022-05-23T12:41:50+02:00</time>
      </trkpt>
      <trkpt lat="44.41596" lon="6.94571">
        <ele>2388</ele>
        <time>2022-05-23T12:41:54+02:00</time>
      </trkpt>
      <trkpt lat="44.41592" lon="6.94573">
        <ele>2387</ele>
        <time>2022-05-23T12:42:11+02:00</time>
      </trkpt>
      <trkpt lat="44.41592" lon="6.94572">
        <ele>2388</ele>
        <time>2022-05-23T12:42:16+02:00</time>
      </trkpt>
      <trkpt lat="44.41593" lon="6.94572">
        <ele>2388</ele>
        <time>2022-05-23T12:42:23+02:00</time>
      </trkpt>
      <trkpt lat="44.41593" lon="6.94572">
        <ele>2388</ele>
        <time>2022-05-23T12:42:33+02:00</time>
      </trkpt>
      <trkpt lat="44.41593" lon="6.94572">
        <ele>2388</ele>
        <time>2022-05-23T12:42:35+02:00</time>
      </trkpt>
      <trkpt lat="44.41594" lon="6.94572">
        <ele>2388</ele>
        <time>2022-05-23T12:42:37+02:00</time>
      </trkpt>
      <trkpt lat="44.41594" lon="6.94572">
        <ele>2388</ele>
        <time>2022-05-23T12:42:39+02:00</time>
      </trkpt>
      <trkpt lat="44.41593" lon="6.94572">
        <ele>2388</ele>
        <time>2022-05-23T12:42:41+02:00</time>
      </trkpt>
      <trkpt lat="44.41593" lon="6.94572">
        <ele>2388</ele>
        <time>2022-05-23T12:42:44+02:00</time>
      </trkpt>
      <trkpt lat="44.41594" lon="6.94572">
        <ele>2388</ele>
        <time>2022-05-23T12:42:58+02:00</time>
      </trkpt>
      <trkpt lat="44.41594" lon="6.94572">
        <ele>2388</ele>
        <time>2022-05-23T12:43:00+02:00</time>
      </trkpt>
      <trkpt lat="44.41594" lon="6.94572">
        <ele>2388</ele>
        <time>2022-05-23T12:43:01+02:00</time>
      </trkpt>
      <trkpt lat="44.41593" lon="6.94571">
        <ele>2388</ele>
        <time>2022-05-23T12:43:03+02:00</time>
      </trkpt>
      <trkpt lat="44.41593" lon="6.94571">
        <ele>2388</ele>
        <time>2022-05-23T12:43:04+02:00</time>
      </trkpt>
      <trkpt lat="44.4159" lon="6.94571">
        <ele>2388</ele>
        <time>2022-05-23T12:43:08+02:00</time>
      </trkpt>
      <trkpt lat="44.41589" lon="6.94571">
        <ele>2388</ele>
        <time>2022-05-23T12:43:09+02:00</time>
      </trkpt>
      <trkpt lat="44.41588" lon="6.94572">
        <ele>2387</ele>
        <time>2022-05-23T12:43:11+02:00</time>
      </trkpt>
      <trkpt lat="44.41586" lon="6.94573">
        <ele>2387</ele>
        <time>2022-05-23T12:43:15+02:00</time>
      </trkpt>
      <trkpt lat="44.41586" lon="6.94573">
        <ele>2387</ele>
        <time>2022-05-23T12:43:16+02:00</time>
      </trkpt>
      <trkpt lat="44.41584" lon="6.94573">
        <ele>2387</ele>
        <time>2022-05-23T12:43:19+02:00</time>
      </trkpt>
      <trkpt lat="44.41583" lon="6.94572">
        <ele>2387</ele>
        <time>2022-05-23T12:43:20+02:00</time>
      </trkpt>
      <trkpt lat="44.41582" lon="6.94572">
        <ele>2386</ele>
        <time>2022-05-23T12:43:22+02:00</time>
      </trkpt>
      <trkpt lat="44.41581" lon="6.94573">
        <ele>2386</ele>
        <time>2022-05-23T12:43:24+02:00</time>
      </trkpt>
      <trkpt lat="44.41575" lon="6.94577">
        <ele>2383</ele>
        <time>2022-05-23T12:43:38+02:00</time>
      </trkpt>
      <trkpt lat="44.4157" lon="6.94578">
        <ele>2381</ele>
        <time>2022-05-23T12:43:47+02:00</time>
      </trkpt>
      <trkpt lat="44.41569" lon="6.94579">
        <ele>2380</ele>
        <time>2022-05-23T12:43:51+02:00</time>
      </trkpt>
      <trkpt lat="44.41565" lon="6.94581">
        <ele>2378</ele>
        <time>2022-05-23T12:43:57+02:00</time>
      </trkpt>
      <trkpt lat="44.41564" lon="6.94583">
        <ele>2378</ele>
        <time>2022-05-23T12:44:00+02:00</time>
      </trkpt>
      <trkpt lat="44.41564" lon="6.94583">
        <ele>2377</ele>
        <time>2022-05-23T12:44:01+02:00</time>
      </trkpt>
      <trkpt lat="44.41563" lon="6.94583">
        <ele>2377</ele>
        <time>2022-05-23T12:44:03+02:00</time>
      </trkpt>
      <trkpt lat="44.41563" lon="6.94584">
        <ele>2377</ele>
        <time>2022-05-23T12:44:04+02:00</time>
      </trkpt>
      <trkpt lat="44.41558" lon="6.94586">
        <ele>2375</ele>
        <time>2022-05-23T12:44:14+02:00</time>
      </trkpt>
      <trkpt lat="44.41556" lon="6.94586">
        <ele>2374</ele>
        <time>2022-05-23T12:44:18+02:00</time>
      </trkpt>
      <trkpt lat="44.41556" lon="6.94587">
        <ele>2374</ele>
        <time>2022-05-23T12:44:19+02:00</time>
      </trkpt>
      <trkpt lat="44.41554" lon="6.94591">
        <ele>2374</ele>
        <time>2022-05-23T12:44:23+02:00</time>
      </trkpt>
      <trkpt lat="44.41551" lon="6.94592">
        <ele>2373</ele>
        <time>2022-05-23T12:44:27+02:00</time>
      </trkpt>
      <trkpt lat="44.41551" lon="6.9459">
        <ele>2373</ele>
        <time>2022-05-23T12:44:30+02:00</time>
      </trkpt>
      <trkpt lat="44.41547" lon="6.94588">
        <ele>2372</ele>
        <time>2022-05-23T12:44:35+02:00</time>
      </trkpt>
      <trkpt lat="44.41543" lon="6.94593">
        <ele>2370</ele>
        <time>2022-05-23T12:44:43+02:00</time>
      </trkpt>
      <trkpt lat="44.41542" lon="6.94594">
        <ele>2369</ele>
        <time>2022-05-23T12:44:44+02:00</time>
      </trkpt>
      <trkpt lat="44.4154" lon="6.94598">
        <ele>2368</ele>
        <time>2022-05-23T12:45:01+02:00</time>
      </trkpt>
      <trkpt lat="44.41539" lon="6.94602">
        <ele>2367</ele>
        <time>2022-05-23T12:45:13+02:00</time>
      </trkpt>
      <trkpt lat="44.41534" lon="6.94618">
        <ele>2362</ele>
        <time>2022-05-23T12:45:31+02:00</time>
      </trkpt>
      <trkpt lat="44.41534" lon="6.94621">
        <ele>2362</ele>
        <time>2022-05-23T12:45:34+02:00</time>
      </trkpt>
      <trkpt lat="44.4153" lon="6.94633">
        <ele>2358</ele>
        <time>2022-05-23T12:45:49+02:00</time>
      </trkpt>
      <trkpt lat="44.4153" lon="6.94636">
        <ele>2357</ele>
        <time>2022-05-23T12:45:51+02:00</time>
      </trkpt>
      <trkpt lat="44.41543" lon="6.94662">
        <ele>2360</ele>
        <time>2022-05-23T12:46:10+02:00</time>
      </trkpt>
      <trkpt lat="44.4155" lon="6.94672">
        <ele>2362</ele>
        <time>2022-05-23T12:46:18+02:00</time>
      </trkpt>
      <trkpt lat="44.41556" lon="6.94679">
        <ele>2364</ele>
        <time>2022-05-23T12:46:26+02:00</time>
      </trkpt>
      <trkpt lat="44.41565" lon="6.94687">
        <ele>2363</ele>
        <time>2022-05-23T12:46:41+02:00</time>
      </trkpt>
      <trkpt lat="44.41564" lon="6.94693">
        <ele>2363</ele>
        <time>2022-05-23T12:46:46+02:00</time>
      </trkpt>
      <trkpt lat="44.41559" lon="6.94706">
        <ele>2362</ele>
        <time>2022-05-23T12:46:56+02:00</time>
      </trkpt>
      <trkpt lat="44.41553" lon="6.9471">
        <ele>2361</ele>
        <time>2022-05-23T12:47:07+02:00</time>
      </trkpt>
      <trkpt lat="44.41551" lon="6.94712">
        <ele>2361</ele>
        <time>2022-05-23T12:47:09+02:00</time>
      </trkpt>
      <trkpt lat="44.4155" lon="6.94712">
        <ele>2361</ele>
        <time>2022-05-23T12:47:10+02:00</time>
      </trkpt>
      <trkpt lat="44.41547" lon="6.94713">
        <ele>2361</ele>
        <time>2022-05-23T12:47:13+02:00</time>
      </trkpt>
      <trkpt lat="44.41538" lon="6.9471">
        <ele>2360</ele>
        <time>2022-05-23T12:47:23+02:00</time>
      </trkpt>
      <trkpt lat="44.41539" lon="6.94697">
        <ele>2361</ele>
        <time>2022-05-23T12:47:39+02:00</time>
      </trkpt>
      <trkpt lat="44.41537" lon="6.94688">
        <ele>2360</ele>
        <time>2022-05-23T12:47:52+02:00</time>
      </trkpt>
      <trkpt lat="44.41532" lon="6.94689">
        <ele>2359</ele>
        <time>2022-05-23T12:48:04+02:00</time>
      </trkpt>
      <trkpt lat="44.41531" lon="6.94682">
        <ele>2358</ele>
        <time>2022-05-23T12:48:18+02:00</time>
      </trkpt>
      <trkpt lat="44.41529" lon="6.94682">
        <ele>2357</ele>
        <time>2022-05-23T12:48:24+02:00</time>
      </trkpt>
      <trkpt lat="44.41521" lon="6.94686">
        <ele>2355</ele>
        <time>2022-05-23T12:48:34+02:00</time>
      </trkpt>
      <trkpt lat="44.41514" lon="6.94689">
        <ele>2354</ele>
        <time>2022-05-23T12:48:41+02:00</time>
      </trkpt>
      <trkpt lat="44.4151" lon="6.94694">
        <ele>2352</ele>
        <time>2022-05-23T12:48:46+02:00</time>
      </trkpt>
      <trkpt lat="44.41509" lon="6.94696">
        <ele>2351</ele>
        <time>2022-05-23T12:48:47+02:00</time>
      </trkpt>
      <trkpt lat="44.41505" lon="6.94699">
        <ele>2350</ele>
        <time>2022-05-23T12:48:50+02:00</time>
      </trkpt>
      <trkpt lat="44.415" lon="6.9471">
        <ele>2349</ele>
        <time>2022-05-23T12:49:00+02:00</time>
      </trkpt>
      <trkpt lat="44.41495" lon="6.94713">
        <ele>2349</ele>
        <time>2022-05-23T12:49:05+02:00</time>
      </trkpt>
      <trkpt lat="44.41493" lon="6.94713">
        <ele>2349</ele>
        <time>2022-05-23T12:49:07+02:00</time>
      </trkpt>
      <trkpt lat="44.41491" lon="6.94715">
        <ele>2349</ele>
        <time>2022-05-23T12:49:11+02:00</time>
      </trkpt>
      <trkpt lat="44.41487" lon="6.94724">
        <ele>2350</ele>
        <time>2022-05-23T12:49:18+02:00</time>
      </trkpt>
      <trkpt lat="44.41483" lon="6.94739">
        <ele>2352</ele>
        <time>2022-05-23T12:49:36+02:00</time>
      </trkpt>
      <trkpt lat="44.41483" lon="6.94743">
        <ele>2352</ele>
        <time>2022-05-23T12:50:01+02:00</time>
      </trkpt>
      <trkpt lat="44.41483" lon="6.94742">
        <ele>2352</ele>
        <time>2022-05-23T12:50:09+02:00</time>
      </trkpt>
      <trkpt lat="44.41484" lon="6.94742">
        <ele>2352</ele>
        <time>2022-05-23T12:50:28+02:00</time>
      </trkpt>
      <trkpt lat="44.41481" lon="6.94758">
        <ele>2353</ele>
        <time>2022-05-23T12:50:42+02:00</time>
      </trkpt>
      <trkpt lat="44.41486" lon="6.94782">
        <ele>2355</ele>
        <time>2022-05-23T12:50:59+02:00</time>
      </trkpt>
      <trkpt lat="44.41488" lon="6.9479">
        <ele>2356</ele>
        <time>2022-05-23T12:51:06+02:00</time>
      </trkpt>
      <trkpt lat="44.41489" lon="6.94792">
        <ele>2356</ele>
        <time>2022-05-23T12:51:08+02:00</time>
      </trkpt>
      <trkpt lat="44.41494" lon="6.94799">
        <ele>2358</ele>
        <time>2022-05-23T12:51:16+02:00</time>
      </trkpt>
      <trkpt lat="44.41497" lon="6.94801">
        <ele>2358</ele>
        <time>2022-05-23T12:51:20+02:00</time>
      </trkpt>
      <trkpt lat="44.41505" lon="6.94811">
        <ele>2358</ele>
        <time>2022-05-23T12:51:34+02:00</time>
      </trkpt>
      <trkpt lat="44.41505" lon="6.94815">
        <ele>2358</ele>
        <time>2022-05-23T12:51:39+02:00</time>
      </trkpt>
      <trkpt lat="44.41505" lon="6.94817">
        <ele>2358</ele>
        <time>2022-05-23T12:51:44+02:00</time>
      </trkpt>
      <trkpt lat="44.41505" lon="6.94826">
        <ele>2358</ele>
        <time>2022-05-23T12:52:01+02:00</time>
      </trkpt>
      <trkpt lat="44.41506" lon="6.9483">
        <ele>2358</ele>
        <time>2022-05-23T12:52:16+02:00</time>
      </trkpt>
      <trkpt lat="44.41505" lon="6.94837">
        <ele>2358</ele>
        <time>2022-05-23T12:52:20+02:00</time>
      </trkpt>
      <trkpt lat="44.41505" lon="6.94843">
        <ele>2358</ele>
        <time>2022-05-23T12:52:24+02:00</time>
      </trkpt>
      <trkpt lat="44.41507" lon="6.94851">
        <ele>2357</ele>
        <time>2022-05-23T12:52:32+02:00</time>
      </trkpt>
      <trkpt lat="44.41507" lon="6.94852">
        <ele>2357</ele>
        <time>2022-05-23T12:52:33+02:00</time>
      </trkpt>
      <trkpt lat="44.41525" lon="6.94875">
        <ele>2356</ele>
        <time>2022-05-23T12:52:53+02:00</time>
      </trkpt>
      <trkpt lat="44.41537" lon="6.94874">
        <ele>2356</ele>
        <time>2022-05-23T12:53:07+02:00</time>
      </trkpt>
      <trkpt lat="44.41538" lon="6.94873">
        <ele>2356</ele>
        <time>2022-05-23T12:53:09+02:00</time>
      </trkpt>
      <trkpt lat="44.41555" lon="6.94866">
        <ele>2356</ele>
        <time>2022-05-23T12:53:26+02:00</time>
      </trkpt>
      <trkpt lat="44.41562" lon="6.94869">
        <ele>2357</ele>
        <time>2022-05-23T12:53:41+02:00</time>
      </trkpt>
      <trkpt lat="44.41561" lon="6.94869">
        <ele>2357</ele>
        <time>2022-05-23T12:53:47+02:00</time>
      </trkpt>
      <trkpt lat="44.4156" lon="6.94869">
        <ele>2357</ele>
        <time>2022-05-23T12:53:51+02:00</time>
      </trkpt>
      <trkpt lat="44.41569" lon="6.9487">
        <ele>2357</ele>
        <time>2022-05-23T12:54:07+02:00</time>
      </trkpt>
      <trkpt lat="44.41575" lon="6.9487">
        <ele>2357</ele>
        <time>2022-05-23T12:54:17+02:00</time>
      </trkpt>
      <trkpt lat="44.41589" lon="6.94863">
        <ele>2357</ele>
        <time>2022-05-23T12:54:34+02:00</time>
      </trkpt>
      <trkpt lat="44.41598" lon="6.94853">
        <ele>2356</ele>
        <time>2022-05-23T12:54:49+02:00</time>
      </trkpt>
      <trkpt lat="44.41603" lon="6.94848">
        <ele>2356</ele>
        <time>2022-05-23T12:55:06+02:00</time>
      </trkpt>
      <trkpt lat="44.4161" lon="6.94844">
        <ele>2356</ele>
        <time>2022-05-23T12:55:19+02:00</time>
      </trkpt>
      <trkpt lat="44.41621" lon="6.94835">
        <ele>2357</ele>
        <time>2022-05-23T12:55:33+02:00</time>
      </trkpt>
      <trkpt lat="44.41636" lon="6.94822">
        <ele>2358</ele>
        <time>2022-05-23T12:55:50+02:00</time>
      </trkpt>
      <trkpt lat="44.41638" lon="6.94821">
        <ele>2358</ele>
        <time>2022-05-23T12:55:52+02:00</time>
      </trkpt>
      <trkpt lat="44.41644" lon="6.94817">
        <ele>2358</ele>
        <time>2022-05-23T12:55:58+02:00</time>
      </trkpt>
      <trkpt lat="44.41656" lon="6.94815">
        <ele>2359</ele>
        <time>2022-05-23T12:56:10+02:00</time>
      </trkpt>
      <trkpt lat="44.41658" lon="6.94814">
        <ele>2360</ele>
        <time>2022-05-23T12:56:13+02:00</time>
      </trkpt>
      <trkpt lat="44.41663" lon="6.94812">
        <ele>2360</ele>
        <time>2022-05-23T12:56:18+02:00</time>
      </trkpt>
      <trkpt lat="44.41675" lon="6.94803">
        <ele>2363</ele>
        <time>2022-05-23T12:56:38+02:00</time>
      </trkpt>
      <trkpt lat="44.41681" lon="6.94798">
        <ele>2364</ele>
        <time>2022-05-23T12:56:51+02:00</time>
      </trkpt>
      <trkpt lat="44.41688" lon="6.94787">
        <ele>2365</ele>
        <time>2022-05-23T12:57:05+02:00</time>
      </trkpt>
      <trkpt lat="44.41694" lon="6.94777">
        <ele>2366</ele>
        <time>2022-05-23T12:57:22+02:00</time>
      </trkpt>
      <trkpt lat="44.417" lon="6.94769">
        <ele>2368</ele>
        <time>2022-05-23T12:57:37+02:00</time>
      </trkpt>
      <trkpt lat="44.417" lon="6.94758">
        <ele>2366</ele>
        <time>2022-05-23T12:57:52+02:00</time>
      </trkpt>
      <trkpt lat="44.41701" lon="6.94744">
        <ele>2365</ele>
        <time>2022-05-23T12:58:05+02:00</time>
      </trkpt>
      <trkpt lat="44.41702" lon="6.94729">
        <ele>2365</ele>
        <time>2022-05-23T12:58:20+02:00</time>
      </trkpt>
      <trkpt lat="44.41702" lon="6.94728">
        <ele>2365</ele>
        <time>2022-05-23T12:58:21+02:00</time>
      </trkpt>
      <trkpt lat="44.41703" lon="6.94724">
        <ele>2366</ele>
        <time>2022-05-23T12:58:25+02:00</time>
      </trkpt>
      <trkpt lat="44.41708" lon="6.94712">
        <ele>2366</ele>
        <time>2022-05-23T12:58:40+02:00</time>
      </trkpt>
      <trkpt lat="44.41717" lon="6.94693">
        <ele>2366</ele>
        <time>2022-05-23T12:59:00+02:00</time>
      </trkpt>
      <trkpt lat="44.41723" lon="6.94676">
        <ele>2365</ele>
        <time>2022-05-23T12:59:17+02:00</time>
      </trkpt>
      <trkpt lat="44.41728" lon="6.94659">
        <ele>2365</ele>
        <time>2022-05-23T12:59:35+02:00</time>
      </trkpt>
      <trkpt lat="44.41734" lon="6.94645">
        <ele>2366</ele>
        <time>2022-05-23T12:59:50+02:00</time>
      </trkpt>
      <trkpt lat="44.41736" lon="6.9464">
        <ele>2366</ele>
        <time>2022-05-23T12:59:54+02:00</time>
      </trkpt>
      <trkpt lat="44.41738" lon="6.94622">
        <ele>2366</ele>
        <time>2022-05-23T13:00:08+02:00</time>
      </trkpt>
      <trkpt lat="44.41738" lon="6.94609">
        <ele>2366</ele>
        <time>2022-05-23T13:00:22+02:00</time>
      </trkpt>
      <trkpt lat="44.41738" lon="6.94596">
        <ele>2365</ele>
        <time>2022-05-23T13:00:36+02:00</time>
      </trkpt>
      <trkpt lat="44.41732" lon="6.94579">
        <ele>2364</ele>
        <time>2022-05-23T13:00:51+02:00</time>
      </trkpt>
      <trkpt lat="44.41734" lon="6.94558">
        <ele>2366</ele>
        <time>2022-05-23T13:01:07+02:00</time>
      </trkpt>
      <trkpt lat="44.41732" lon="6.94543">
        <ele>2369</ele>
        <time>2022-05-23T13:01:21+02:00</time>
      </trkpt>
      <trkpt lat="44.41735" lon="6.94529">
        <ele>2372</ele>
        <time>2022-05-23T13:01:38+02:00</time>
      </trkpt>
      <trkpt lat="44.41738" lon="6.94519">
        <ele>2375</ele>
        <time>2022-05-23T13:01:55+02:00</time>
      </trkpt>
      <trkpt lat="44.41744" lon="6.94506">
        <ele>2379</ele>
        <time>2022-05-23T13:02:13+02:00</time>
      </trkpt>
      <trkpt lat="44.41745" lon="6.94505">
        <ele>2379</ele>
        <time>2022-05-23T13:02:15+02:00</time>
      </trkpt>
      <trkpt lat="44.41753" lon="6.94495">
        <ele>2382</ele>
        <time>2022-05-23T13:02:30+02:00</time>
      </trkpt>
      <trkpt lat="44.41762" lon="6.94488">
        <ele>2383</ele>
        <time>2022-05-23T13:02:47+02:00</time>
      </trkpt>
      <trkpt lat="44.41766" lon="6.9448">
        <ele>2386</ele>
        <time>2022-05-23T13:02:56+02:00</time>
      </trkpt>
      <trkpt lat="44.41766" lon="6.94482">
        <ele>2385</ele>
        <time>2022-05-23T13:03:07+02:00</time>
      </trkpt>
      <trkpt lat="44.4177" lon="6.94477">
        <ele>2386</ele>
        <time>2022-05-23T13:03:15+02:00</time>
      </trkpt>
      <trkpt lat="44.41777" lon="6.94472">
        <ele>2387</ele>
        <time>2022-05-23T13:03:25+02:00</time>
      </trkpt>
      <trkpt lat="44.41787" lon="6.94461">
        <ele>2389</ele>
        <time>2022-05-23T13:03:41+02:00</time>
      </trkpt>
      <trkpt lat="44.41791" lon="6.94459">
        <ele>2390</ele>
        <time>2022-05-23T13:03:48+02:00</time>
      </trkpt>
      <trkpt lat="44.41801" lon="6.94452">
        <ele>2392</ele>
        <time>2022-05-23T13:04:03+02:00</time>
      </trkpt>
      <trkpt lat="44.41808" lon="6.94447">
        <ele>2394</ele>
        <time>2022-05-23T13:04:11+02:00</time>
      </trkpt>
      <trkpt lat="44.41809" lon="6.94446">
        <ele>2394</ele>
        <time>2022-05-23T13:04:12+02:00</time>
      </trkpt>
      <trkpt lat="44.41812" lon="6.94442">
        <ele>2395</ele>
        <time>2022-05-23T13:04:16+02:00</time>
      </trkpt>
      <trkpt lat="44.41814" lon="6.9444">
        <ele>2395</ele>
        <time>2022-05-23T13:04:18+02:00</time>
      </trkpt>
      <trkpt lat="44.41814" lon="6.94439">
        <ele>2395</ele>
        <time>2022-05-23T13:04:19+02:00</time>
      </trkpt>
      <trkpt lat="44.41817" lon="6.94437">
        <ele>2395</ele>
        <time>2022-05-23T13:04:22+02:00</time>
      </trkpt>
      <trkpt lat="44.41823" lon="6.94429">
        <ele>2396</ele>
        <time>2022-05-23T13:04:30+02:00</time>
      </trkpt>
      <trkpt lat="44.41824" lon="6.94427">
        <ele>2397</ele>
        <time>2022-05-23T13:04:32+02:00</time>
      </trkpt>
      <trkpt lat="44.41831" lon="6.94416">
        <ele>2398</ele>
        <time>2022-05-23T13:04:43+02:00</time>
      </trkpt>
      <trkpt lat="44.41836" lon="6.94403">
        <ele>2400</ele>
        <time>2022-05-23T13:04:54+02:00</time>
      </trkpt>
      <trkpt lat="44.41837" lon="6.94398">
        <ele>2400</ele>
        <time>2022-05-23T13:04:57+02:00</time>
      </trkpt>
      <trkpt lat="44.41838" lon="6.94391">
        <ele>2401</ele>
        <time>2022-05-23T13:05:02+02:00</time>
      </trkpt>
      <trkpt lat="44.41844" lon="6.94374">
        <ele>2404</ele>
        <time>2022-05-23T13:05:15+02:00</time>
      </trkpt>
      <trkpt lat="44.41852" lon="6.94358">
        <ele>2405</ele>
        <time>2022-05-23T13:05:30+02:00</time>
      </trkpt>
      <trkpt lat="44.41862" lon="6.94343">
        <ele>2407</ele>
        <time>2022-05-23T13:05:47+02:00</time>
      </trkpt>
      <trkpt lat="44.41872" lon="6.94326">
        <ele>2410</ele>
        <time>2022-05-23T13:06:05+02:00</time>
      </trkpt>
      <trkpt lat="44.41877" lon="6.94318">
        <ele>2412</ele>
        <time>2022-05-23T13:06:15+02:00</time>
      </trkpt>
      <trkpt lat="44.41879" lon="6.94313">
        <ele>2413</ele>
        <time>2022-05-23T13:06:24+02:00</time>
      </trkpt>
      <trkpt lat="44.4188" lon="6.94311">
        <ele>2413</ele>
        <time>2022-05-23T13:06:29+02:00</time>
      </trkpt>
      <trkpt lat="44.41884" lon="6.94306">
        <ele>2414</ele>
        <time>2022-05-23T13:06:39+02:00</time>
      </trkpt>
      <trkpt lat="44.4189" lon="6.94295">
        <ele>2416</ele>
        <time>2022-05-23T13:06:54+02:00</time>
      </trkpt>
      <trkpt lat="44.41892" lon="6.94286">
        <ele>2419</ele>
        <time>2022-05-23T13:07:06+02:00</time>
      </trkpt>
      <trkpt lat="44.41892" lon="6.94286">
        <ele>2419</ele>
        <time>2022-05-23T13:07:07+02:00</time>
      </trkpt>
      <trkpt lat="44.41887" lon="6.94284">
        <ele>2419</ele>
        <time>2022-05-23T13:07:23+02:00</time>
      </trkpt>
      <trkpt lat="44.41887" lon="6.94284">
        <ele>2419</ele>
        <time>2022-05-23T13:07:25+02:00</time>
      </trkpt>
      <trkpt lat="44.41886" lon="6.94272">
        <ele>2421</ele>
        <time>2022-05-23T13:07:34+02:00</time>
      </trkpt>
      <trkpt lat="44.41888" lon="6.94261">
        <ele>2423</ele>
        <time>2022-05-23T13:07:48+02:00</time>
      </trkpt>
      <trkpt lat="44.41892" lon="6.94258">
        <ele>2424</ele>
        <time>2022-05-23T13:08:09+02:00</time>
      </trkpt>
      <trkpt lat="44.419" lon="6.94248">
        <ele>2428</ele>
        <time>2022-05-23T13:08:26+02:00</time>
      </trkpt>
      <trkpt lat="44.41905" lon="6.94235">
        <ele>2431</ele>
        <time>2022-05-23T13:08:41+02:00</time>
      </trkpt>
      <trkpt lat="44.4191" lon="6.94229">
        <ele>2433</ele>
        <time>2022-05-23T13:08:56+02:00</time>
      </trkpt>
      <trkpt lat="44.41912" lon="6.94224">
        <ele>2434</ele>
        <time>2022-05-23T13:09:07+02:00</time>
      </trkpt>
      <trkpt lat="44.41918" lon="6.94214">
        <ele>2437</ele>
        <time>2022-05-23T13:09:21+02:00</time>
      </trkpt>
      <trkpt lat="44.41919" lon="6.94214">
        <ele>2437</ele>
        <time>2022-05-23T13:09:25+02:00</time>
      </trkpt>
      <trkpt lat="44.4192" lon="6.94213">
        <ele>2437</ele>
        <time>2022-05-23T13:09:27+02:00</time>
      </trkpt>
      <trkpt lat="44.4193" lon="6.942">
        <ele>2440</ele>
        <time>2022-05-23T13:09:43+02:00</time>
      </trkpt>
      <trkpt lat="44.41938" lon="6.94189">
        <ele>2441</ele>
        <time>2022-05-23T13:09:57+02:00</time>
      </trkpt>
      <trkpt lat="44.41945" lon="6.94183">
        <ele>2442</ele>
        <time>2022-05-23T13:10:13+02:00</time>
      </trkpt>
      <trkpt lat="44.41953" lon="6.94188">
        <ele>2443</ele>
        <time>2022-05-23T13:10:24+02:00</time>
      </trkpt>
      <trkpt lat="44.41951" lon="6.94177">
        <ele>2442</ele>
        <time>2022-05-23T13:10:42+02:00</time>
      </trkpt>
      <trkpt lat="44.41954" lon="6.94168">
        <ele>2441</ele>
        <time>2022-05-23T13:10:57+02:00</time>
      </trkpt>
      <trkpt lat="44.41958" lon="6.94164">
        <ele>2441</ele>
        <time>2022-05-23T13:11:03+02:00</time>
      </trkpt>
      <trkpt lat="44.41963" lon="6.94154">
        <ele>2440</ele>
        <time>2022-05-23T13:11:17+02:00</time>
      </trkpt>
      <trkpt lat="44.41968" lon="6.94145">
        <ele>2438</ele>
        <time>2022-05-23T13:11:30+02:00</time>
      </trkpt>
      <trkpt lat="44.41971" lon="6.94144">
        <ele>2438</ele>
        <time>2022-05-23T13:11:33+02:00</time>
      </trkpt>
      <trkpt lat="44.41984" lon="6.94138">
        <ele>2436</ele>
        <time>2022-05-23T13:11:46+02:00</time>
      </trkpt>
      <trkpt lat="44.41986" lon="6.94138">
        <ele>2436</ele>
        <time>2022-05-23T13:11:59+02:00</time>
      </trkpt>
      <trkpt lat="44.41988" lon="6.94137">
        <ele>2436</ele>
        <time>2022-05-23T13:12:15+02:00</time>
      </trkpt>
      <trkpt lat="44.41988" lon="6.94136">
        <ele>2436</ele>
        <time>2022-05-23T13:12:33+02:00</time>
      </trkpt>
      <trkpt lat="44.41987" lon="6.94135">
        <ele>2436</ele>
        <time>2022-05-23T13:13:05+02:00</time>
      </trkpt>
      <trkpt lat="44.41986" lon="6.94136">
        <ele>2436</ele>
        <time>2022-05-23T13:13:35+02:00</time>
      </trkpt>
      <trkpt lat="44.41986" lon="6.94136">
        <ele>2436</ele>
        <time>2022-05-23T13:13:36+02:00</time>
      </trkpt>
      <trkpt lat="44.41987" lon="6.94136">
        <ele>2436</ele>
        <time>2022-05-23T13:13:43+02:00</time>
      </trkpt>
      <trkpt lat="44.41987" lon="6.94136">
        <ele>2436</ele>
        <time>2022-05-23T13:13:50+02:00</time>
      </trkpt>
      <trkpt lat="44.4199" lon="6.94133">
        <ele>2435</ele>
        <time>2022-05-23T13:14:06+02:00</time>
      </trkpt>
      <trkpt lat="44.41993" lon="6.94133">
        <ele>2435</ele>
        <time>2022-05-23T13:14:12+02:00</time>
      </trkpt>
      <trkpt lat="44.41995" lon="6.94134">
        <ele>2435</ele>
        <time>2022-05-23T13:14:18+02:00</time>
      </trkpt>
      <trkpt lat="44.42014" lon="6.94136">
        <ele>2434</ele>
        <time>2022-05-23T13:14:36+02:00</time>
      </trkpt>
      <trkpt lat="44.42039" lon="6.94142">
        <ele>2433</ele>
        <time>2022-05-23T13:14:56+02:00</time>
      </trkpt>
      <trkpt lat="44.42066" lon="6.94152">
        <ele>2434</ele>
        <time>2022-05-23T13:15:17+02:00</time>
      </trkpt>
      <trkpt lat="44.42088" lon="6.9415">
        <ele>2434</ele>
        <time>2022-05-23T13:15:36+02:00</time>
      </trkpt>
      <trkpt lat="44.42104" lon="6.94144">
        <ele>2435</ele>
        <time>2022-05-23T13:15:50+02:00</time>
      </trkpt>
      <trkpt lat="44.42118" lon="6.94132">
        <ele>2434</ele>
        <time>2022-05-23T13:16:04+02:00</time>
      </trkpt>
      <trkpt lat="44.42121" lon="6.94126">
        <ele>2434</ele>
        <time>2022-05-23T13:16:10+02:00</time>
      </trkpt>
      <trkpt lat="44.42135" lon="6.94113">
        <ele>2435</ele>
        <time>2022-05-23T13:16:27+02:00</time>
      </trkpt>
      <trkpt lat="44.42159" lon="6.94101">
        <ele>2436</ele>
        <time>2022-05-23T13:16:48+02:00</time>
      </trkpt>
      <trkpt lat="44.42178" lon="6.94094">
        <ele>2436</ele>
        <time>2022-05-23T13:17:06+02:00</time>
      </trkpt>
      <trkpt lat="44.42188" lon="6.9409">
        <ele>2436</ele>
        <time>2022-05-23T13:17:16+02:00</time>
      </trkpt>
      <trkpt lat="44.42204" lon="6.94077">
        <ele>2436</ele>
        <time>2022-05-23T13:17:33+02:00</time>
      </trkpt>
      <trkpt lat="44.42219" lon="6.94064">
        <ele>2436</ele>
        <time>2022-05-23T13:17:50+02:00</time>
      </trkpt>
      <trkpt lat="44.42232" lon="6.94059">
        <ele>2437</ele>
        <time>2022-05-23T13:18:03+02:00</time>
      </trkpt>
      <trkpt lat="44.4225" lon="6.94047">
        <ele>2437</ele>
        <time>2022-05-23T13:18:20+02:00</time>
      </trkpt>
      <trkpt lat="44.42264" lon="6.94031">
        <ele>2437</ele>
        <time>2022-05-23T13:18:37+02:00</time>
      </trkpt>
      <trkpt lat="44.42268" lon="6.94011">
        <ele>2438</ele>
        <time>2022-05-23T13:18:51+02:00</time>
      </trkpt>
      <trkpt lat="44.42267" lon="6.9398">
        <ele>2438</ele>
        <time>2022-05-23T13:19:11+02:00</time>
      </trkpt>
      <trkpt lat="44.42266" lon="6.93965">
        <ele>2439</ele>
        <time>2022-05-23T13:19:22+02:00</time>
      </trkpt>
      <trkpt lat="44.42257" lon="6.93942">
        <ele>2438</ele>
        <time>2022-05-23T13:19:39+02:00</time>
      </trkpt>
      <trkpt lat="44.4225" lon="6.93932">
        <ele>2437</ele>
        <time>2022-05-23T13:19:52+02:00</time>
      </trkpt>
      <trkpt lat="44.42243" lon="6.93923">
        <ele>2437</ele>
        <time>2022-05-23T13:20:04+02:00</time>
      </trkpt>
      <trkpt lat="44.42239" lon="6.93901">
        <ele>2437</ele>
        <time>2022-05-23T13:20:18+02:00</time>
      </trkpt>
      <trkpt lat="44.4224" lon="6.9388">
        <ele>2437</ele>
        <time>2022-05-23T13:20:31+02:00</time>
      </trkpt>
      <trkpt lat="44.42243" lon="6.93857">
        <ele>2437</ele>
        <time>2022-05-23T13:20:48+02:00</time>
      </trkpt>
      <trkpt lat="44.42243" lon="6.93855">
        <ele>2437</ele>
        <time>2022-05-23T13:21:00+02:00</time>
      </trkpt>
      <trkpt lat="44.42243" lon="6.93852">
        <ele>2436</ele>
        <time>2022-05-23T13:21:06+02:00</time>
      </trkpt>
      <trkpt lat="44.42246" lon="6.93839">
        <ele>2435</ele>
        <time>2022-05-23T13:21:18+02:00</time>
      </trkpt>
      <trkpt lat="44.42246" lon="6.93835">
        <ele>2434</ele>
        <time>2022-05-23T13:21:22+02:00</time>
      </trkpt>
      <trkpt lat="44.42246" lon="6.93831">
        <ele>2434</ele>
        <time>2022-05-23T13:21:25+02:00</time>
      </trkpt>
      <trkpt lat="44.42247" lon="6.93827">
        <ele>2433</ele>
        <time>2022-05-23T13:21:28+02:00</time>
      </trkpt>
      <trkpt lat="44.42245" lon="6.93806">
        <ele>2430</ele>
        <time>2022-05-23T13:21:41+02:00</time>
      </trkpt>
      <trkpt lat="44.42246" lon="6.93803">
        <ele>2430</ele>
        <time>2022-05-23T13:21:45+02:00</time>
      </trkpt>
      <trkpt lat="44.42246" lon="6.938">
        <ele>2430</ele>
        <time>2022-05-23T13:21:48+02:00</time>
      </trkpt>
      <trkpt lat="44.42246" lon="6.93793">
        <ele>2430</ele>
        <time>2022-05-23T13:22:04+02:00</time>
      </trkpt>
      <trkpt lat="44.42245" lon="6.93792">
        <ele>2430</ele>
        <time>2022-05-23T13:22:14+02:00</time>
      </trkpt>
      <trkpt lat="44.42244" lon="6.93793">
        <ele>2430</ele>
        <time>2022-05-23T13:22:27+02:00</time>
      </trkpt>
      <trkpt lat="44.42243" lon="6.93794">
        <ele>2430</ele>
        <time>2022-05-23T13:22:42+02:00</time>
      </trkpt>
      <trkpt lat="44.42242" lon="6.93792">
        <ele>2430</ele>
        <time>2022-05-23T13:23:12+02:00</time>
      </trkpt>
      <trkpt lat="44.4224" lon="6.93793">
        <ele>2430</ele>
        <time>2022-05-23T13:23:34+02:00</time>
      </trkpt>
      <trkpt lat="44.42242" lon="6.93795">
        <ele>2430</ele>
        <time>2022-05-23T13:23:40+02:00</time>
      </trkpt>
      <trkpt lat="44.42244" lon="6.93796">
        <ele>2430</ele>
        <time>2022-05-23T13:24:02+02:00</time>
      </trkpt>
      <trkpt lat="44.42248" lon="6.93796">
        <ele>2430</ele>
        <time>2022-05-23T13:24:17+02:00</time>
      </trkpt>
      <trkpt lat="44.42246" lon="6.93799">
        <ele>2430</ele>
        <time>2022-05-23T13:24:26+02:00</time>
      </trkpt>
      <trkpt lat="44.42243" lon="6.93806">
        <ele>2430</ele>
        <time>2022-05-23T13:24:31+02:00</time>
      </trkpt>
      <trkpt lat="44.42239" lon="6.93814">
        <ele>2431</ele>
        <time>2022-05-23T13:24:42+02:00</time>
      </trkpt>
      <trkpt lat="44.42246" lon="6.93821">
        <ele>2432</ele>
        <time>2022-05-23T13:24:50+02:00</time>
      </trkpt>
      <trkpt lat="44.42261" lon="6.93828">
        <ele>2434</ele>
        <time>2022-05-23T13:25:05+02:00</time>
      </trkpt>
      <trkpt lat="44.42269" lon="6.9383">
        <ele>2434</ele>
        <time>2022-05-23T13:25:19+02:00</time>
      </trkpt>
      <trkpt lat="44.42275" lon="6.93831">
        <ele>2434</ele>
        <time>2022-05-23T13:25:29+02:00</time>
      </trkpt>
      <trkpt lat="44.42283" lon="6.93829">
        <ele>2434</ele>
        <time>2022-05-23T13:25:38+02:00</time>
      </trkpt>
      <trkpt lat="44.42288" lon="6.93828">
        <ele>2434</ele>
        <time>2022-05-23T13:25:44+02:00</time>
      </trkpt>
      <trkpt lat="44.42293" lon="6.93828">
        <ele>2434</ele>
        <time>2022-05-23T13:25:49+02:00</time>
      </trkpt>
      <trkpt lat="44.42304" lon="6.9383">
        <ele>2435</ele>
        <time>2022-05-23T13:25:59+02:00</time>
      </trkpt>
      <trkpt lat="44.42317" lon="6.93829">
        <ele>2434</ele>
        <time>2022-05-23T13:26:11+02:00</time>
      </trkpt>
      <trkpt lat="44.4233" lon="6.93829">
        <ele>2434</ele>
        <time>2022-05-23T13:26:24+02:00</time>
      </trkpt>
      <trkpt lat="44.42348" lon="6.93821">
        <ele>2433</ele>
        <time>2022-05-23T13:26:40+02:00</time>
      </trkpt>
      <trkpt lat="44.42365" lon="6.93816">
        <ele>2433</ele>
        <time>2022-05-23T13:26:54+02:00</time>
      </trkpt>
      <trkpt lat="44.42367" lon="6.93816">
        <ele>2433</ele>
        <time>2022-05-23T13:26:56+02:00</time>
      </trkpt>
      <trkpt lat="44.4238" lon="6.93813">
        <ele>2432</ele>
        <time>2022-05-23T13:27:07+02:00</time>
      </trkpt>
      <trkpt lat="44.42391" lon="6.93804">
        <ele>2430</ele>
        <time>2022-05-23T13:27:18+02:00</time>
      </trkpt>
      <trkpt lat="44.42392" lon="6.93803">
        <ele>2430</ele>
        <time>2022-05-23T13:27:19+02:00</time>
      </trkpt>
      <trkpt lat="44.42404" lon="6.93801">
        <ele>2431</ele>
        <time>2022-05-23T13:27:30+02:00</time>
      </trkpt>
      <trkpt lat="44.4241" lon="6.938">
        <ele>2432</ele>
        <time>2022-05-23T13:27:35+02:00</time>
      </trkpt>
      <trkpt lat="44.42411" lon="6.93799">
        <ele>2432</ele>
        <time>2022-05-23T13:27:36+02:00</time>
      </trkpt>
      <trkpt lat="44.42416" lon="6.93792">
        <ele>2431</ele>
        <time>2022-05-23T13:27:43+02:00</time>
      </trkpt>
      <trkpt lat="44.42416" lon="6.9379">
        <ele>2431</ele>
        <time>2022-05-23T13:27:44+02:00</time>
      </trkpt>
      <trkpt lat="44.42417" lon="6.93788">
        <ele>2431</ele>
        <time>2022-05-23T13:27:45+02:00</time>
      </trkpt>
      <trkpt lat="44.42419" lon="6.93769">
        <ele>2431</ele>
        <time>2022-05-23T13:27:59+02:00</time>
      </trkpt>
      <trkpt lat="44.42422" lon="6.93755">
        <ele>2431</ele>
        <time>2022-05-23T13:28:10+02:00</time>
      </trkpt>
      <trkpt lat="44.42428" lon="6.93742">
        <ele>2432</ele>
        <time>2022-05-23T13:28:24+02:00</time>
      </trkpt>
      <trkpt lat="44.42428" lon="6.9374">
        <ele>2432</ele>
        <time>2022-05-23T13:28:31+02:00</time>
      </trkpt>
      <trkpt lat="44.42433" lon="6.93729">
        <ele>2433</ele>
        <time>2022-05-23T13:28:41+02:00</time>
      </trkpt>
      <trkpt lat="44.42437" lon="6.93724">
        <ele>2434</ele>
        <time>2022-05-23T13:28:46+02:00</time>
      </trkpt>
      <trkpt lat="44.42439" lon="6.93709">
        <ele>2435</ele>
        <time>2022-05-23T13:28:57+02:00</time>
      </trkpt>
      <trkpt lat="44.42438" lon="6.93704">
        <ele>2435</ele>
        <time>2022-05-23T13:29:01+02:00</time>
      </trkpt>
      <trkpt lat="44.42437" lon="6.93699">
        <ele>2435</ele>
        <time>2022-05-23T13:29:05+02:00</time>
      </trkpt>
      <trkpt lat="44.42438" lon="6.93692">
        <ele>2437</ele>
        <time>2022-05-23T13:29:13+02:00</time>
      </trkpt>
      <trkpt lat="44.42445" lon="6.93683">
        <ele>2440</ele>
        <time>2022-05-23T13:29:25+02:00</time>
      </trkpt>
      <trkpt lat="44.4245" lon="6.93675">
        <ele>2442</ele>
        <time>2022-05-23T13:29:36+02:00</time>
      </trkpt>
      <trkpt lat="44.42454" lon="6.93669">
        <ele>2445</ele>
        <time>2022-05-23T13:29:52+02:00</time>
      </trkpt>
      <trkpt lat="44.42461" lon="6.93665">
        <ele>2447</ele>
        <time>2022-05-23T13:30:06+02:00</time>
      </trkpt>
      <trkpt lat="44.42464" lon="6.93661">
        <ele>2449</ele>
        <time>2022-05-23T13:30:21+02:00</time>
      </trkpt>
      <trkpt lat="44.42471" lon="6.93657">
        <ele>2451</ele>
        <time>2022-05-23T13:30:37+02:00</time>
      </trkpt>
      <trkpt lat="44.42478" lon="6.93654">
        <ele>2453</ele>
        <time>2022-05-23T13:30:51+02:00</time>
      </trkpt>
      <trkpt lat="44.42488" lon="6.93652">
        <ele>2455</ele>
        <time>2022-05-23T13:31:06+02:00</time>
      </trkpt>
      <trkpt lat="44.42498" lon="6.93648">
        <ele>2456</ele>
        <time>2022-05-23T13:31:20+02:00</time>
      </trkpt>
      <trkpt lat="44.42508" lon="6.93643">
        <ele>2458</ele>
        <time>2022-05-23T13:31:32+02:00</time>
      </trkpt>
      <trkpt lat="44.42522" lon="6.93634">
        <ele>2461</ele>
        <time>2022-05-23T13:31:49+02:00</time>
      </trkpt>
      <trkpt lat="44.42525" lon="6.9363">
        <ele>2462</ele>
        <time>2022-05-23T13:31:54+02:00</time>
      </trkpt>
      <trkpt lat="44.42521" lon="6.93611">
        <ele>2465</ele>
        <time>2022-05-23T13:32:09+02:00</time>
      </trkpt>
      <trkpt lat="44.42521" lon="6.93607">
        <ele>2466</ele>
        <time>2022-05-23T13:32:12+02:00</time>
      </trkpt>
      <trkpt lat="44.42514" lon="6.936">
        <ele>2468</ele>
        <time>2022-05-23T13:32:27+02:00</time>
      </trkpt>
      <trkpt lat="44.42512" lon="6.936">
        <ele>2468</ele>
        <time>2022-05-23T13:32:30+02:00</time>
      </trkpt>
      <trkpt lat="44.42504" lon="6.93599">
        <ele>2469</ele>
        <time>2022-05-23T13:32:43+02:00</time>
      </trkpt>
      <trkpt lat="44.4251" lon="6.93593">
        <ele>2470</ele>
        <time>2022-05-23T13:32:56+02:00</time>
      </trkpt>
      <trkpt lat="44.4251" lon="6.93588">
        <ele>2472</ele>
        <time>2022-05-23T13:33:10+02:00</time>
      </trkpt>
      <trkpt lat="44.42506" lon="6.93584">
        <ele>2473</ele>
        <time>2022-05-23T13:33:19+02:00</time>
      </trkpt>
      <trkpt lat="44.425" lon="6.93572">
        <ele>2477</ele>
        <time>2022-05-23T13:33:35+02:00</time>
      </trkpt>
      <trkpt lat="44.42498" lon="6.93566">
        <ele>2478</ele>
        <time>2022-05-23T13:33:51+02:00</time>
      </trkpt>
      <trkpt lat="44.42498" lon="6.93558">
        <ele>2480</ele>
        <time>2022-05-23T13:34:06+02:00</time>
      </trkpt>
      <trkpt lat="44.42504" lon="6.93546">
        <ele>2483</ele>
        <time>2022-05-23T13:34:20+02:00</time>
      </trkpt>
      <trkpt lat="44.42505" lon="6.93542">
        <ele>2484</ele>
        <time>2022-05-23T13:34:23+02:00</time>
      </trkpt>
      <trkpt lat="44.42505" lon="6.93541">
        <ele>2484</ele>
        <time>2022-05-23T13:34:24+02:00</time>
      </trkpt>
      <trkpt lat="44.4251" lon="6.93539">
        <ele>2484</ele>
        <time>2022-05-23T13:34:30+02:00</time>
      </trkpt>
      <trkpt lat="44.42512" lon="6.9354">
        <ele>2484</ele>
        <time>2022-05-23T13:34:32+02:00</time>
      </trkpt>
      <trkpt lat="44.42524" lon="6.9354">
        <ele>2484</ele>
        <time>2022-05-23T13:34:44+02:00</time>
      </trkpt>
      <trkpt lat="44.42536" lon="6.93537">
        <ele>2484</ele>
        <time>2022-05-23T13:34:58+02:00</time>
      </trkpt>
      <trkpt lat="44.42545" lon="6.93534">
        <ele>2485</ele>
        <time>2022-05-23T13:35:12+02:00</time>
      </trkpt>
      <trkpt lat="44.42547" lon="6.93533">
        <ele>2485</ele>
        <time>2022-05-23T13:35:25+02:00</time>
      </trkpt>
      <trkpt lat="44.42546" lon="6.93533">
        <ele>2485</ele>
        <time>2022-05-23T13:35:28+02:00</time>
      </trkpt>
      <trkpt lat="44.42543" lon="6.93528">
        <ele>2486</ele>
        <time>2022-05-23T13:35:49+02:00</time>
      </trkpt>
      <trkpt lat="44.42545" lon="6.93531">
        <ele>2485</ele>
        <time>2022-05-23T13:36:10+02:00</time>
      </trkpt>
      <trkpt lat="44.42542" lon="6.93531">
        <ele>2486</ele>
        <time>2022-05-23T13:36:33+02:00</time>
      </trkpt>
      <trkpt lat="44.42543" lon="6.93532">
        <ele>2485</ele>
        <time>2022-05-23T13:36:35+02:00</time>
      </trkpt>
      <trkpt lat="44.42544" lon="6.93531">
        <ele>2486</ele>
        <time>2022-05-23T13:36:42+02:00</time>
      </trkpt>
      <trkpt lat="44.42544" lon="6.93531">
        <ele>2486</ele>
        <time>2022-05-23T13:36:43+02:00</time>
      </trkpt>
      <trkpt lat="44.42545" lon="6.93531">
        <ele>2486</ele>
        <time>2022-05-23T13:36:45+02:00</time>
      </trkpt>
      <trkpt lat="44.4256" lon="6.93532">
        <ele>2484</ele>
        <time>2022-05-23T13:37:02+02:00</time>
      </trkpt>
      <trkpt lat="44.42564" lon="6.93533">
        <ele>2484</ele>
        <time>2022-05-23T13:37:06+02:00</time>
      </trkpt>
      <trkpt lat="44.42574" lon="6.93526">
        <ele>2486</ele>
        <time>2022-05-23T13:37:17+02:00</time>
      </trkpt>
      <trkpt lat="44.42581" lon="6.93514">
        <ele>2488</ele>
        <time>2022-05-23T13:37:28+02:00</time>
      </trkpt>
      <trkpt lat="44.42584" lon="6.93512">
        <ele>2489</ele>
        <time>2022-05-23T13:37:32+02:00</time>
      </trkpt>
      <trkpt lat="44.42588" lon="6.93509">
        <ele>2489</ele>
        <time>2022-05-23T13:37:36+02:00</time>
      </trkpt>
      <trkpt lat="44.42601" lon="6.93494">
        <ele>2491</ele>
        <time>2022-05-23T13:37:51+02:00</time>
      </trkpt>
      <trkpt lat="44.42605" lon="6.93475">
        <ele>2492</ele>
        <time>2022-05-23T13:38:05+02:00</time>
      </trkpt>
      <trkpt lat="44.42612" lon="6.93451">
        <ele>2493</ele>
        <time>2022-05-23T13:38:22+02:00</time>
      </trkpt>
      <trkpt lat="44.42613" lon="6.93448">
        <ele>2493</ele>
        <time>2022-05-23T13:38:24+02:00</time>
      </trkpt>
      <trkpt lat="44.42619" lon="6.93423">
        <ele>2496</ele>
        <time>2022-05-23T13:38:41+02:00</time>
      </trkpt>
      <trkpt lat="44.42624" lon="6.93399">
        <ele>2497</ele>
        <time>2022-05-23T13:38:59+02:00</time>
      </trkpt>
      <trkpt lat="44.42633" lon="6.93375">
        <ele>2500</ele>
        <time>2022-05-23T13:39:18+02:00</time>
      </trkpt>
      <trkpt lat="44.4264" lon="6.93351">
        <ele>2501</ele>
        <time>2022-05-23T13:39:37+02:00</time>
      </trkpt>
      <trkpt lat="44.42639" lon="6.93352">
        <ele>2501</ele>
        <time>2022-05-23T13:39:39+02:00</time>
      </trkpt>
      <trkpt lat="44.42639" lon="6.9335">
        <ele>2501</ele>
        <time>2022-05-23T13:39:44+02:00</time>
      </trkpt>
      <trkpt lat="44.42636" lon="6.9333">
        <ele>2500</ele>
        <time>2022-05-23T13:39:58+02:00</time>
      </trkpt>
      <trkpt lat="44.42629" lon="6.93305">
        <ele>2500</ele>
        <time>2022-05-23T13:40:14+02:00</time>
      </trkpt>
      <trkpt lat="44.42629" lon="6.93299">
        <ele>2500</ele>
        <time>2022-05-23T13:40:18+02:00</time>
      </trkpt>
      <trkpt lat="44.42625" lon="6.9329">
        <ele>2500</ele>
        <time>2022-05-23T13:40:25+02:00</time>
      </trkpt>
      <trkpt lat="44.42623" lon="6.9329">
        <ele>2500</ele>
        <time>2022-05-23T13:40:27+02:00</time>
      </trkpt>
      <trkpt lat="44.42617" lon="6.93288">
        <ele>2500</ele>
        <time>2022-05-23T13:40:32+02:00</time>
      </trkpt>
      <trkpt lat="44.42613" lon="6.93281">
        <ele>2500</ele>
        <time>2022-05-23T13:40:37+02:00</time>
      </trkpt>
      <trkpt lat="44.42612" lon="6.93273">
        <ele>2500</ele>
        <time>2022-05-23T13:40:42+02:00</time>
      </trkpt>
      <trkpt lat="44.42607" lon="6.93255">
        <ele>2499</ele>
        <time>2022-05-23T13:40:53+02:00</time>
      </trkpt>
      <trkpt lat="44.42606" lon="6.93252">
        <ele>2499</ele>
        <time>2022-05-23T13:40:55+02:00</time>
      </trkpt>
      <trkpt lat="44.42602" lon="6.93232">
        <ele>2500</ele>
        <time>2022-05-23T13:41:11+02:00</time>
      </trkpt>
      <trkpt lat="44.42598" lon="6.93226">
        <ele>2501</ele>
        <time>2022-05-23T13:41:17+02:00</time>
      </trkpt>
      <trkpt lat="44.42598" lon="6.93217">
        <ele>2501</ele>
        <time>2022-05-23T13:41:26+02:00</time>
      </trkpt>
      <trkpt lat="44.42601" lon="6.93194">
        <ele>2502</ele>
        <time>2022-05-23T13:41:41+02:00</time>
      </trkpt>
      <trkpt lat="44.42607" lon="6.93174">
        <ele>2500</ele>
        <time>2022-05-23T13:41:55+02:00</time>
      </trkpt>
      <trkpt lat="44.42613" lon="6.93167">
        <ele>2499</ele>
        <time>2022-05-23T13:42:04+02:00</time>
      </trkpt>
      <trkpt lat="44.42624" lon="6.93158">
        <ele>2497</ele>
        <time>2022-05-23T13:42:18+02:00</time>
      </trkpt>
      <trkpt lat="44.42629" lon="6.93146">
        <ele>2496</ele>
        <time>2022-05-23T13:42:27+02:00</time>
      </trkpt>
      <trkpt lat="44.42632" lon="6.93141">
        <ele>2496</ele>
        <time>2022-05-23T13:42:31+02:00</time>
      </trkpt>
      <trkpt lat="44.42639" lon="6.93116">
        <ele>2493</ele>
        <time>2022-05-23T13:42:48+02:00</time>
      </trkpt>
      <trkpt lat="44.42644" lon="6.93095">
        <ele>2493</ele>
        <time>2022-05-23T13:43:04+02:00</time>
      </trkpt>
      <trkpt lat="44.4265" lon="6.93074">
        <ele>2492</ele>
        <time>2022-05-23T13:43:20+02:00</time>
      </trkpt>
      <trkpt lat="44.42649" lon="6.93069">
        <ele>2492</ele>
        <time>2022-05-23T13:43:26+02:00</time>
      </trkpt>
      <trkpt lat="44.42649" lon="6.93063">
        <ele>2492</ele>
        <time>2022-05-23T13:43:31+02:00</time>
      </trkpt>
      <trkpt lat="44.42651" lon="6.93056">
        <ele>2492</ele>
        <time>2022-05-23T13:43:36+02:00</time>
      </trkpt>
      <trkpt lat="44.42653" lon="6.93033">
        <ele>2491</ele>
        <time>2022-05-23T13:43:53+02:00</time>
      </trkpt>
      <trkpt lat="44.42658" lon="6.93026">
        <ele>2490</ele>
        <time>2022-05-23T13:44:02+02:00</time>
      </trkpt>
      <trkpt lat="44.42672" lon="6.93016">
        <ele>2486</ele>
        <time>2022-05-23T13:44:16+02:00</time>
      </trkpt>
      <trkpt lat="44.42678" lon="6.93007">
        <ele>2484</ele>
        <time>2022-05-23T13:44:24+02:00</time>
      </trkpt>
      <trkpt lat="44.42683" lon="6.92993">
        <ele>2483</ele>
        <time>2022-05-23T13:44:35+02:00</time>
      </trkpt>
      <trkpt lat="44.42681" lon="6.92988">
        <ele>2484</ele>
        <time>2022-05-23T13:44:39+02:00</time>
      </trkpt>
      <trkpt lat="44.42686" lon="6.92975">
        <ele>2483</ele>
        <time>2022-05-23T13:44:49+02:00</time>
      </trkpt>
      <trkpt lat="44.42706" lon="6.92952">
        <ele>2480</ele>
        <time>2022-05-23T13:45:10+02:00</time>
      </trkpt>
      <trkpt lat="44.42709" lon="6.92948">
        <ele>2480</ele>
        <time>2022-05-23T13:45:13+02:00</time>
      </trkpt>
      <trkpt lat="44.42713" lon="6.92943">
        <ele>2480</ele>
        <time>2022-05-23T13:45:17+02:00</time>
      </trkpt>
      <trkpt lat="44.42718" lon="6.92917">
        <ele>2479</ele>
        <time>2022-05-23T13:45:33+02:00</time>
      </trkpt>
      <trkpt lat="44.42719" lon="6.92915">
        <ele>2479</ele>
        <time>2022-05-23T13:45:35+02:00</time>
      </trkpt>
      <trkpt lat="44.42718" lon="6.92911">
        <ele>2479</ele>
        <time>2022-05-23T13:45:37+02:00</time>
      </trkpt>
      <trkpt lat="44.42729" lon="6.92891">
        <ele>2478</ele>
        <time>2022-05-23T13:45:53+02:00</time>
      </trkpt>
      <trkpt lat="44.4274" lon="6.92863">
        <ele>2476</ele>
        <time>2022-05-23T13:46:11+02:00</time>
      </trkpt>
      <trkpt lat="44.42749" lon="6.92836">
        <ele>2473</ele>
        <time>2022-05-23T13:46:29+02:00</time>
      </trkpt>
      <trkpt lat="44.42754" lon="6.92823">
        <ele>2472</ele>
        <time>2022-05-23T13:46:38+02:00</time>
      </trkpt>
      <trkpt lat="44.42756" lon="6.92818">
        <ele>2472</ele>
        <time>2022-05-23T13:46:41+02:00</time>
      </trkpt>
      <trkpt lat="44.42761" lon="6.92802">
        <ele>2470</ele>
        <time>2022-05-23T13:46:52+02:00</time>
      </trkpt>
      <trkpt lat="44.42764" lon="6.92795">
        <ele>2469</ele>
        <time>2022-05-23T13:46:58+02:00</time>
      </trkpt>
      <trkpt lat="44.42765" lon="6.92783">
        <ele>2467</ele>
        <time>2022-05-23T13:47:08+02:00</time>
      </trkpt>
      <trkpt lat="44.42765" lon="6.92781">
        <ele>2467</ele>
        <time>2022-05-23T13:47:09+02:00</time>
      </trkpt>
      <trkpt lat="44.42763" lon="6.92768">
        <ele>2466</ele>
        <time>2022-05-23T13:47:19+02:00</time>
      </trkpt>
      <trkpt lat="44.4276" lon="6.9275">
        <ele>2465</ele>
        <time>2022-05-23T13:47:35+02:00</time>
      </trkpt>
      <trkpt lat="44.42758" lon="6.92741">
        <ele>2464</ele>
        <time>2022-05-23T13:47:51+02:00</time>
      </trkpt>
      <trkpt lat="44.42756" lon="6.92742">
        <ele>2465</ele>
        <time>2022-05-23T13:48:06+02:00</time>
      </trkpt>
      <trkpt lat="44.42754" lon="6.92734">
        <ele>2464</ele>
        <time>2022-05-23T13:48:23+02:00</time>
      </trkpt>
      <trkpt lat="44.42752" lon="6.9272">
        <ele>2462</ele>
        <time>2022-05-23T13:48:36+02:00</time>
      </trkpt>
      <trkpt lat="44.42752" lon="6.92719">
        <ele>2462</ele>
        <time>2022-05-23T13:48:37+02:00</time>
      </trkpt>
      <trkpt lat="44.42753" lon="6.92713">
        <ele>2461</ele>
        <time>2022-05-23T13:48:55+02:00</time>
      </trkpt>
      <trkpt lat="44.42754" lon="6.927">
        <ele>2459</ele>
        <time>2022-05-23T13:49:06+02:00</time>
      </trkpt>
      <trkpt lat="44.42753" lon="6.92676">
        <ele>2457</ele>
        <time>2022-05-23T13:49:19+02:00</time>
      </trkpt>
      <trkpt lat="44.42754" lon="6.92664">
        <ele>2456</ele>
        <time>2022-05-23T13:49:26+02:00</time>
      </trkpt>
      <trkpt lat="44.42754" lon="6.92658">
        <ele>2456</ele>
        <time>2022-05-23T13:49:34+02:00</time>
      </trkpt>
      <trkpt lat="44.42754" lon="6.92657">
        <ele>2456</ele>
        <time>2022-05-23T13:49:51+02:00</time>
      </trkpt>
      <trkpt lat="44.42758" lon="6.92652">
        <ele>2454</ele>
        <time>2022-05-23T13:50:07+02:00</time>
      </trkpt>
      <trkpt lat="44.42759" lon="6.9265">
        <ele>2454</ele>
        <time>2022-05-23T13:50:09+02:00</time>
      </trkpt>
      <trkpt lat="44.42766" lon="6.92645">
        <ele>2452</ele>
        <time>2022-05-23T13:50:19+02:00</time>
      </trkpt>
      <trkpt lat="44.42771" lon="6.92635">
        <ele>2449</ele>
        <time>2022-05-23T13:50:29+02:00</time>
      </trkpt>
      <trkpt lat="44.42776" lon="6.92627">
        <ele>2447</ele>
        <time>2022-05-23T13:50:36+02:00</time>
      </trkpt>
      <trkpt lat="44.42785" lon="6.92624">
        <ele>2444</ele>
        <time>2022-05-23T13:50:47+02:00</time>
      </trkpt>
      <trkpt lat="44.42796" lon="6.92619">
        <ele>2439</ele>
        <time>2022-05-23T13:50:59+02:00</time>
      </trkpt>
      <trkpt lat="44.42804" lon="6.92602">
        <ele>2435</ele>
        <time>2022-05-23T13:51:13+02:00</time>
      </trkpt>
      <trkpt lat="44.42813" lon="6.92592">
        <ele>2432</ele>
        <time>2022-05-23T13:51:26+02:00</time>
      </trkpt>
      <trkpt lat="44.42821" lon="6.92583">
        <ele>2430</ele>
        <time>2022-05-23T13:51:36+02:00</time>
      </trkpt>
      <trkpt lat="44.4283" lon="6.92578">
        <ele>2428</ele>
        <time>2022-05-23T13:51:48+02:00</time>
      </trkpt>
      <trkpt lat="44.42839" lon="6.92569">
        <ele>2426</ele>
        <time>2022-05-23T13:51:58+02:00</time>
      </trkpt>
      <trkpt lat="44.42842" lon="6.92567">
        <ele>2426</ele>
        <time>2022-05-23T13:52:09+02:00</time>
      </trkpt>
      <trkpt lat="44.42851" lon="6.92567">
        <ele>2425</ele>
        <time>2022-05-23T13:52:16+02:00</time>
      </trkpt>
      <trkpt lat="44.42864" lon="6.92565">
        <ele>2423</ele>
        <time>2022-05-23T13:52:29+02:00</time>
      </trkpt>
      <trkpt lat="44.42872" lon="6.92561">
        <ele>2422</ele>
        <time>2022-05-23T13:52:44+02:00</time>
      </trkpt>
      <trkpt lat="44.42877" lon="6.92555">
        <ele>2421</ele>
        <time>2022-05-23T13:52:58+02:00</time>
      </trkpt>
      <trkpt lat="44.42897" lon="6.92542">
        <ele>2420</ele>
        <time>2022-05-23T13:53:13+02:00</time>
      </trkpt>
      <trkpt lat="44.42913" lon="6.92535">
        <ele>2419</ele>
        <time>2022-05-23T13:53:29+02:00</time>
      </trkpt>
      <trkpt lat="44.4292" lon="6.92532">
        <ele>2419</ele>
        <time>2022-05-23T13:53:38+02:00</time>
      </trkpt>
      <trkpt lat="44.4292" lon="6.92532">
        <ele>2419</ele>
        <time>2022-05-23T13:53:42+02:00</time>
      </trkpt>
      <trkpt lat="44.42926" lon="6.92528">
        <ele>2419</ele>
        <time>2022-05-23T13:53:57+02:00</time>
      </trkpt>
      <trkpt lat="44.42939" lon="6.92518">
        <ele>2419</ele>
        <time>2022-05-23T13:54:12+02:00</time>
      </trkpt>
      <trkpt lat="44.42943" lon="6.92518">
        <ele>2419</ele>
        <time>2022-05-23T13:54:25+02:00</time>
      </trkpt>
      <trkpt lat="44.42956" lon="6.92508">
        <ele>2419</ele>
        <time>2022-05-23T13:54:40+02:00</time>
      </trkpt>
      <trkpt lat="44.42974" lon="6.92495">
        <ele>2419</ele>
        <time>2022-05-23T13:54:55+02:00</time>
      </trkpt>
      <trkpt lat="44.4299" lon="6.92487">
        <ele>2418</ele>
        <time>2022-05-23T13:55:10+02:00</time>
      </trkpt>
      <trkpt lat="44.43006" lon="6.92478">
        <ele>2417</ele>
        <time>2022-05-23T13:55:26+02:00</time>
      </trkpt>
      <trkpt lat="44.43019" lon="6.92475">
        <ele>2416</ele>
        <time>2022-05-23T13:55:35+02:00</time>
      </trkpt>
      <trkpt lat="44.43029" lon="6.9247">
        <ele>2415</ele>
        <time>2022-05-23T13:55:48+02:00</time>
      </trkpt>
      <trkpt lat="44.43031" lon="6.92466">
        <ele>2414</ele>
        <time>2022-05-23T13:55:57+02:00</time>
      </trkpt>
      <trkpt lat="44.43045" lon="6.92469">
        <ele>2414</ele>
        <time>2022-05-23T13:56:09+02:00</time>
      </trkpt>
      <trkpt lat="44.43051" lon="6.92468">
        <ele>2413</ele>
        <time>2022-05-23T13:56:16+02:00</time>
      </trkpt>
      <trkpt lat="44.43055" lon="6.92467">
        <ele>2413</ele>
        <time>2022-05-23T13:56:18+02:00</time>
      </trkpt>
      <trkpt lat="44.43057" lon="6.92468">
        <ele>2413</ele>
        <time>2022-05-23T13:56:20+02:00</time>
      </trkpt>
      <trkpt lat="44.43065" lon="6.92468">
        <ele>2415</ele>
        <time>2022-05-23T13:56:27+02:00</time>
      </trkpt>
      <trkpt lat="44.43083" lon="6.92459">
        <ele>2416</ele>
        <time>2022-05-23T13:56:42+02:00</time>
      </trkpt>
      <trkpt lat="44.43091" lon="6.92448">
        <ele>2416</ele>
        <time>2022-05-23T13:56:52+02:00</time>
      </trkpt>
      <trkpt lat="44.43094" lon="6.92442">
        <ele>2416</ele>
        <time>2022-05-23T13:56:57+02:00</time>
      </trkpt>
      <trkpt lat="44.43107" lon="6.92431">
        <ele>2418</ele>
        <time>2022-05-23T13:57:12+02:00</time>
      </trkpt>
      <trkpt lat="44.43121" lon="6.92419">
        <ele>2419</ele>
        <time>2022-05-23T13:57:28+02:00</time>
      </trkpt>
      <trkpt lat="44.43136" lon="6.9241">
        <ele>2420</ele>
        <time>2022-05-23T13:57:42+02:00</time>
      </trkpt>
      <trkpt lat="44.43151" lon="6.92395">
        <ele>2421</ele>
        <time>2022-05-23T13:57:58+02:00</time>
      </trkpt>
      <trkpt lat="44.43161" lon="6.92376">
        <ele>2419</ele>
        <time>2022-05-23T13:58:13+02:00</time>
      </trkpt>
      <trkpt lat="44.43161" lon="6.92375">
        <ele>2419</ele>
        <time>2022-05-23T13:58:14+02:00</time>
      </trkpt>
      <trkpt lat="44.43173" lon="6.92356">
        <ele>2418</ele>
        <time>2022-05-23T13:58:30+02:00</time>
      </trkpt>
      <trkpt lat="44.43182" lon="6.92347">
        <ele>2419</ele>
        <time>2022-05-23T13:58:45+02:00</time>
      </trkpt>
      <trkpt lat="44.43195" lon="6.92324">
        <ele>2417</ele>
        <time>2022-05-23T13:59:01+02:00</time>
      </trkpt>
      <trkpt lat="44.43202" lon="6.92319">
        <ele>2417</ele>
        <time>2022-05-23T13:59:10+02:00</time>
      </trkpt>
      <trkpt lat="44.43214" lon="6.92313">
        <ele>2418</ele>
        <time>2022-05-23T13:59:25+02:00</time>
      </trkpt>
      <trkpt lat="44.43227" lon="6.92292">
        <ele>2416</ele>
        <time>2022-05-23T13:59:41+02:00</time>
      </trkpt>
      <trkpt lat="44.43247" lon="6.92274">
        <ele>2417</ele>
        <time>2022-05-23T14:00:00+02:00</time>
      </trkpt>
      <trkpt lat="44.43258" lon="6.92267">
        <ele>2418</ele>
        <time>2022-05-23T14:00:13+02:00</time>
      </trkpt>
      <trkpt lat="44.43266" lon="6.92258">
        <ele>2418</ele>
        <time>2022-05-23T14:00:23+02:00</time>
      </trkpt>
      <trkpt lat="44.43279" lon="6.9224">
        <ele>2417</ele>
        <time>2022-05-23T14:00:39+02:00</time>
      </trkpt>
      <trkpt lat="44.43284" lon="6.92231">
        <ele>2416</ele>
        <time>2022-05-23T14:00:46+02:00</time>
      </trkpt>
      <trkpt lat="44.43296" lon="6.92221">
        <ele>2417</ele>
        <time>2022-05-23T14:01:00+02:00</time>
      </trkpt>
      <trkpt lat="44.43305" lon="6.92199">
        <ele>2416</ele>
        <time>2022-05-23T14:01:14+02:00</time>
      </trkpt>
      <trkpt lat="44.43309" lon="6.92191">
        <ele>2416</ele>
        <time>2022-05-23T14:01:20+02:00</time>
      </trkpt>
      <trkpt lat="44.43312" lon="6.92183">
        <ele>2416</ele>
        <time>2022-05-23T14:01:25+02:00</time>
      </trkpt>
      <trkpt lat="44.43313" lon="6.92175">
        <ele>2416</ele>
        <time>2022-05-23T14:01:43+02:00</time>
      </trkpt>
      <trkpt lat="44.43314" lon="6.92175">
        <ele>2416</ele>
        <time>2022-05-23T14:01:57+02:00</time>
      </trkpt>
      <trkpt lat="44.4332" lon="6.92173">
        <ele>2417</ele>
        <time>2022-05-23T14:02:02+02:00</time>
      </trkpt>
      <trkpt lat="44.43325" lon="6.92158">
        <ele>2416</ele>
        <time>2022-05-23T14:02:11+02:00</time>
      </trkpt>
      <trkpt lat="44.43337" lon="6.92136">
        <ele>2415</ele>
        <time>2022-05-23T14:02:25+02:00</time>
      </trkpt>
      <trkpt lat="44.43346" lon="6.92123">
        <ele>2416</ele>
        <time>2022-05-23T14:02:34+02:00</time>
      </trkpt>
      <trkpt lat="44.43354" lon="6.9211">
        <ele>2415</ele>
        <time>2022-05-23T14:02:42+02:00</time>
      </trkpt>
      <trkpt lat="44.43359" lon="6.92104">
        <ele>2415</ele>
        <time>2022-05-23T14:02:47+02:00</time>
      </trkpt>
      <trkpt lat="44.43374" lon="6.92082">
        <ele>2415</ele>
        <time>2022-05-23T14:03:02+02:00</time>
      </trkpt>
      <trkpt lat="44.43378" lon="6.92078">
        <ele>2415</ele>
        <time>2022-05-23T14:03:06+02:00</time>
      </trkpt>
      <trkpt lat="44.43387" lon="6.92062">
        <ele>2415</ele>
        <time>2022-05-23T14:03:18+02:00</time>
      </trkpt>
      <trkpt lat="44.43388" lon="6.9206">
        <ele>2415</ele>
        <time>2022-05-23T14:03:19+02:00</time>
      </trkpt>
      <trkpt lat="44.43389" lon="6.92059">
        <ele>2415</ele>
        <time>2022-05-23T14:03:20+02:00</time>
      </trkpt>
      <trkpt lat="44.43394" lon="6.9205">
        <ele>2415</ele>
        <time>2022-05-23T14:03:27+02:00</time>
      </trkpt>
      <trkpt lat="44.43396" lon="6.92047">
        <ele>2415</ele>
        <time>2022-05-23T14:03:30+02:00</time>
      </trkpt>
      <trkpt lat="44.43408" lon="6.92018">
        <ele>2414</ele>
        <time>2022-05-23T14:03:49+02:00</time>
      </trkpt>
      <trkpt lat="44.43417" lon="6.91996">
        <ele>2413</ele>
        <time>2022-05-23T14:04:02+02:00</time>
      </trkpt>
      <trkpt lat="44.43417" lon="6.91993">
        <ele>2413</ele>
        <time>2022-05-23T14:04:04+02:00</time>
      </trkpt>
      <trkpt lat="44.43426" lon="6.91979">
        <ele>2413</ele>
        <time>2022-05-23T14:04:15+02:00</time>
      </trkpt>
      <trkpt lat="44.43435" lon="6.91962">
        <ele>2411</ele>
        <time>2022-05-23T14:04:27+02:00</time>
      </trkpt>
      <trkpt lat="44.43441" lon="6.91949">
        <ele>2410</ele>
        <time>2022-05-23T14:04:36+02:00</time>
      </trkpt>
      <trkpt lat="44.43453" lon="6.91931">
        <ele>2410</ele>
        <time>2022-05-23T14:04:52+02:00</time>
      </trkpt>
      <trkpt lat="44.43465" lon="6.9191">
        <ele>2409</ele>
        <time>2022-05-23T14:05:09+02:00</time>
      </trkpt>
      <trkpt lat="44.43467" lon="6.919">
        <ele>2407</ele>
        <time>2022-05-23T14:05:15+02:00</time>
      </trkpt>
      <trkpt lat="44.43468" lon="6.91897">
        <ele>2407</ele>
        <time>2022-05-23T14:05:17+02:00</time>
      </trkpt>
      <trkpt lat="44.4347" lon="6.91892">
        <ele>2406</ele>
        <time>2022-05-23T14:05:22+02:00</time>
      </trkpt>
      <trkpt lat="44.4348" lon="6.91878">
        <ele>2405</ele>
        <time>2022-05-23T14:05:36+02:00</time>
      </trkpt>
      <trkpt lat="44.4349" lon="6.91859">
        <ele>2403</ele>
        <time>2022-05-23T14:05:51+02:00</time>
      </trkpt>
      <trkpt lat="44.43508" lon="6.91834">
        <ele>2399</ele>
        <time>2022-05-23T14:06:11+02:00</time>
      </trkpt>
      <trkpt lat="44.43523" lon="6.91818">
        <ele>2397</ele>
        <time>2022-05-23T14:06:27+02:00</time>
      </trkpt>
      <trkpt lat="44.43541" lon="6.91807">
        <ele>2396</ele>
        <time>2022-05-23T14:06:40+02:00</time>
      </trkpt>
      <trkpt lat="44.43556" lon="6.91798">
        <ele>2396</ele>
        <time>2022-05-23T14:06:51+02:00</time>
      </trkpt>
      <trkpt lat="44.43565" lon="6.9179">
        <ele>2394</ele>
        <time>2022-05-23T14:06:59+02:00</time>
      </trkpt>
      <trkpt lat="44.43585" lon="6.91781">
        <ele>2392</ele>
        <time>2022-05-23T14:07:12+02:00</time>
      </trkpt>
      <trkpt lat="44.43599" lon="6.9177">
        <ele>2390</ele>
        <time>2022-05-23T14:07:23+02:00</time>
      </trkpt>
      <trkpt lat="44.43601" lon="6.9177">
        <ele>2390</ele>
        <time>2022-05-23T14:07:24+02:00</time>
      </trkpt>
      <trkpt lat="44.43604" lon="6.91767">
        <ele>2389</ele>
        <time>2022-05-23T14:07:28+02:00</time>
      </trkpt>
      <trkpt lat="44.43613" lon="6.91764">
        <ele>2389</ele>
        <time>2022-05-23T14:07:43+02:00</time>
      </trkpt>
      <trkpt lat="44.43629" lon="6.91756">
        <ele>2387</ele>
        <time>2022-05-23T14:07:59+02:00</time>
      </trkpt>
      <trkpt lat="44.43643" lon="6.91747">
        <ele>2384</ele>
        <time>2022-05-23T14:08:13+02:00</time>
      </trkpt>
      <trkpt lat="44.4366" lon="6.91735">
        <ele>2381</ele>
        <time>2022-05-23T14:08:32+02:00</time>
      </trkpt>
      <trkpt lat="44.43664" lon="6.91732">
        <ele>2380</ele>
        <time>2022-05-23T14:08:37+02:00</time>
      </trkpt>
      <trkpt lat="44.43667" lon="6.91731">
        <ele>2380</ele>
        <time>2022-05-23T14:08:42+02:00</time>
      </trkpt>
      <trkpt lat="44.43668" lon="6.9173">
        <ele>2380</ele>
        <time>2022-05-23T14:08:43+02:00</time>
      </trkpt>
      <trkpt lat="44.43681" lon="6.91729">
        <ele>2379</ele>
        <time>2022-05-23T14:08:54+02:00</time>
      </trkpt>
      <trkpt lat="44.437" lon="6.91706">
        <ele>2374</ele>
        <time>2022-05-23T14:09:11+02:00</time>
      </trkpt>
      <trkpt lat="44.43716" lon="6.91698">
        <ele>2373</ele>
        <time>2022-05-23T14:09:25+02:00</time>
      </trkpt>
      <trkpt lat="44.43718" lon="6.91697">
        <ele>2373</ele>
        <time>2022-05-23T14:09:27+02:00</time>
      </trkpt>
      <trkpt lat="44.43729" lon="6.91695">
        <ele>2373</ele>
        <time>2022-05-23T14:09:37+02:00</time>
      </trkpt>
      <trkpt lat="44.43744" lon="6.91678">
        <ele>2373</ele>
        <time>2022-05-23T14:09:52+02:00</time>
      </trkpt>
      <trkpt lat="44.43756" lon="6.91662">
        <ele>2372</ele>
        <time>2022-05-23T14:10:05+02:00</time>
      </trkpt>
      <trkpt lat="44.4377" lon="6.91644">
        <ele>2370</ele>
        <time>2022-05-23T14:10:21+02:00</time>
      </trkpt>
      <trkpt lat="44.43778" lon="6.91634">
        <ele>2370</ele>
        <time>2022-05-23T14:10:30+02:00</time>
      </trkpt>
      <trkpt lat="44.43779" lon="6.91634">
        <ele>2369</ele>
        <time>2022-05-23T14:10:31+02:00</time>
      </trkpt>
      <trkpt lat="44.4378" lon="6.91633">
        <ele>2369</ele>
        <time>2022-05-23T14:10:32+02:00</time>
      </trkpt>
      <trkpt lat="44.43785" lon="6.91626">
        <ele>2368</ele>
        <time>2022-05-23T14:10:37+02:00</time>
      </trkpt>
      <trkpt lat="44.43786" lon="6.91625">
        <ele>2368</ele>
        <time>2022-05-23T14:10:38+02:00</time>
      </trkpt>
      <trkpt lat="44.43786" lon="6.91623">
        <ele>2368</ele>
        <time>2022-05-23T14:10:39+02:00</time>
      </trkpt>
      <trkpt lat="44.43787" lon="6.91622">
        <ele>2368</ele>
        <time>2022-05-23T14:10:40+02:00</time>
      </trkpt>
      <trkpt lat="44.43788" lon="6.91621">
        <ele>2368</ele>
        <time>2022-05-23T14:10:41+02:00</time>
      </trkpt>
      <trkpt lat="44.43789" lon="6.9162">
        <ele>2367</ele>
        <time>2022-05-23T14:10:42+02:00</time>
      </trkpt>
      <trkpt lat="44.4379" lon="6.91618">
        <ele>2367</ele>
        <time>2022-05-23T14:10:43+02:00</time>
      </trkpt>
      <trkpt lat="44.43791" lon="6.91617">
        <ele>2367</ele>
        <time>2022-05-23T14:10:44+02:00</time>
      </trkpt>
      <trkpt lat="44.43792" lon="6.91616">
        <ele>2367</ele>
        <time>2022-05-23T14:10:45+02:00</time>
      </trkpt>
      <trkpt lat="44.43802" lon="6.91602">
        <ele>2365</ele>
        <time>2022-05-23T14:10:57+02:00</time>
      </trkpt>
      <trkpt lat="44.43816" lon="6.91584">
        <ele>2363</ele>
        <time>2022-05-23T14:11:14+02:00</time>
      </trkpt>
      <trkpt lat="44.43819" lon="6.91579">
        <ele>2363</ele>
        <time>2022-05-23T14:11:18+02:00</time>
      </trkpt>
      <trkpt lat="44.43823" lon="6.91575">
        <ele>2363</ele>
        <time>2022-05-23T14:11:23+02:00</time>
      </trkpt>
      <trkpt lat="44.43827" lon="6.91571">
        <ele>2364</ele>
        <time>2022-05-23T14:11:29+02:00</time>
      </trkpt>
      <trkpt lat="44.43828" lon="6.91569">
        <ele>2364</ele>
        <time>2022-05-23T14:11:30+02:00</time>
      </trkpt>
      <trkpt lat="44.43828" lon="6.91567">
        <ele>2364</ele>
        <time>2022-05-23T14:11:31+02:00</time>
      </trkpt>
      <trkpt lat="44.43833" lon="6.91539">
        <ele>2362</ele>
        <time>2022-05-23T14:11:48+02:00</time>
      </trkpt>
      <trkpt lat="44.43833" lon="6.91538">
        <ele>2361</ele>
        <time>2022-05-23T14:11:49+02:00</time>
      </trkpt>
      <trkpt lat="44.43833" lon="6.91536">
        <ele>2361</ele>
        <time>2022-05-23T14:11:50+02:00</time>
      </trkpt>
      <trkpt lat="44.43834" lon="6.91534">
        <ele>2361</ele>
        <time>2022-05-23T14:11:51+02:00</time>
      </trkpt>
      <trkpt lat="44.43834" lon="6.91533">
        <ele>2361</ele>
        <time>2022-05-23T14:11:52+02:00</time>
      </trkpt>
      <trkpt lat="44.43834" lon="6.91532">
        <ele>2361</ele>
        <time>2022-05-23T14:11:53+02:00</time>
      </trkpt>
      <trkpt lat="44.43834" lon="6.91531">
        <ele>2361</ele>
        <time>2022-05-23T14:11:54+02:00</time>
      </trkpt>
      <trkpt lat="44.43845" lon="6.91515">
        <ele>2359</ele>
        <time>2022-05-23T14:12:09+02:00</time>
      </trkpt>
      <trkpt lat="44.43845" lon="6.91513">
        <ele>2359</ele>
        <time>2022-05-23T14:12:10+02:00</time>
      </trkpt>
      <trkpt lat="44.43846" lon="6.91512">
        <ele>2359</ele>
        <time>2022-05-23T14:12:11+02:00</time>
      </trkpt>
      <trkpt lat="44.43848" lon="6.91509">
        <ele>2359</ele>
        <time>2022-05-23T14:12:14+02:00</time>
      </trkpt>
      <trkpt lat="44.43849" lon="6.91506">
        <ele>2359</ele>
        <time>2022-05-23T14:12:17+02:00</time>
      </trkpt>
      <trkpt lat="44.43852" lon="6.91502">
        <ele>2359</ele>
        <time>2022-05-23T14:12:21+02:00</time>
      </trkpt>
      <trkpt lat="44.43853" lon="6.91501">
        <ele>2358</ele>
        <time>2022-05-23T14:12:22+02:00</time>
      </trkpt>
      <trkpt lat="44.43853" lon="6.915">
        <ele>2358</ele>
        <time>2022-05-23T14:12:23+02:00</time>
      </trkpt>
      <trkpt lat="44.43854" lon="6.91499">
        <ele>2358</ele>
        <time>2022-05-23T14:12:24+02:00</time>
      </trkpt>
      <trkpt lat="44.43854" lon="6.91497">
        <ele>2358</ele>
        <time>2022-05-23T14:12:25+02:00</time>
      </trkpt>
      <trkpt lat="44.43855" lon="6.91496">
        <ele>2358</ele>
        <time>2022-05-23T14:12:26+02:00</time>
      </trkpt>
      <trkpt lat="44.43856" lon="6.91495">
        <ele>2357</ele>
        <time>2022-05-23T14:12:27+02:00</time>
      </trkpt>
      <trkpt lat="44.43856" lon="6.91494">
        <ele>2357</ele>
        <time>2022-05-23T14:12:28+02:00</time>
      </trkpt>
      <trkpt lat="44.43866" lon="6.91479">
        <ele>2356</ele>
        <time>2022-05-23T14:12:42+02:00</time>
      </trkpt>
      <trkpt lat="44.43867" lon="6.91477">
        <ele>2356</ele>
        <time>2022-05-23T14:12:43+02:00</time>
      </trkpt>
      <trkpt lat="44.43868" lon="6.91475">
        <ele>2356</ele>
        <time>2022-05-23T14:12:44+02:00</time>
      </trkpt>
      <trkpt lat="44.43868" lon="6.91474">
        <ele>2356</ele>
        <time>2022-05-23T14:12:45+02:00</time>
      </trkpt>
      <trkpt lat="44.43869" lon="6.91472">
        <ele>2356</ele>
        <time>2022-05-23T14:12:46+02:00</time>
      </trkpt>
      <trkpt lat="44.43869" lon="6.9147">
        <ele>2355</ele>
        <time>2022-05-23T14:12:47+02:00</time>
      </trkpt>
      <trkpt lat="44.43879" lon="6.91448">
        <ele>2351</ele>
        <time>2022-05-23T14:13:03+02:00</time>
      </trkpt>
      <trkpt lat="44.43891" lon="6.91429">
        <ele>2349</ele>
        <time>2022-05-23T14:13:19+02:00</time>
      </trkpt>
      <trkpt lat="44.43904" lon="6.91416">
        <ele>2347</ele>
        <time>2022-05-23T14:13:34+02:00</time>
      </trkpt>
      <trkpt lat="44.43911" lon="6.91411">
        <ele>2348</ele>
        <time>2022-05-23T14:13:42+02:00</time>
      </trkpt>
      <trkpt lat="44.43912" lon="6.9141">
        <ele>2347</ele>
        <time>2022-05-23T14:13:43+02:00</time>
      </trkpt>
      <trkpt lat="44.43915" lon="6.91405">
        <ele>2347</ele>
        <time>2022-05-23T14:13:48+02:00</time>
      </trkpt>
      <trkpt lat="44.43916" lon="6.91404">
        <ele>2347</ele>
        <time>2022-05-23T14:13:49+02:00</time>
      </trkpt>
      <trkpt lat="44.43918" lon="6.91392">
        <ele>2344</ele>
        <time>2022-05-23T14:14:01+02:00</time>
      </trkpt>
      <trkpt lat="44.43919" lon="6.91384">
        <ele>2343</ele>
        <time>2022-05-23T14:14:14+02:00</time>
      </trkpt>
      <trkpt lat="44.43919" lon="6.91382">
        <ele>2343</ele>
        <time>2022-05-23T14:14:15+02:00</time>
      </trkpt>
      <trkpt lat="44.4392" lon="6.91379">
        <ele>2342</ele>
        <time>2022-05-23T14:14:17+02:00</time>
      </trkpt>
      <trkpt lat="44.4392" lon="6.91377">
        <ele>2342</ele>
        <time>2022-05-23T14:14:18+02:00</time>
      </trkpt>
      <trkpt lat="44.4392" lon="6.91375">
        <ele>2342</ele>
        <time>2022-05-23T14:14:19+02:00</time>
      </trkpt>
      <trkpt lat="44.43927" lon="6.91356">
        <ele>2341</ele>
        <time>2022-05-23T14:14:33+02:00</time>
      </trkpt>
      <trkpt lat="44.43942" lon="6.91335">
        <ele>2340</ele>
        <time>2022-05-23T14:14:51+02:00</time>
      </trkpt>
      <trkpt lat="44.43948" lon="6.91328">
        <ele>2340</ele>
        <time>2022-05-23T14:14:58+02:00</time>
      </trkpt>
      <trkpt lat="44.43964" lon="6.91315">
        <ele>2340</ele>
        <time>2022-05-23T14:15:14+02:00</time>
      </trkpt>
      <trkpt lat="44.43979" lon="6.91299">
        <ele>2339</ele>
        <time>2022-05-23T14:15:29+02:00</time>
      </trkpt>
      <trkpt lat="44.43983" lon="6.91292">
        <ele>2338</ele>
        <time>2022-05-23T14:15:35+02:00</time>
      </trkpt>
      <trkpt lat="44.43984" lon="6.91291">
        <ele>2338</ele>
        <time>2022-05-23T14:15:36+02:00</time>
      </trkpt>
      <trkpt lat="44.43985" lon="6.9129">
        <ele>2338</ele>
        <time>2022-05-23T14:15:37+02:00</time>
      </trkpt>
      <trkpt lat="44.43993" lon="6.91283">
        <ele>2337</ele>
        <time>2022-05-23T14:15:45+02:00</time>
      </trkpt>
      <trkpt lat="44.44001" lon="6.91273">
        <ele>2336</ele>
        <time>2022-05-23T14:15:56+02:00</time>
      </trkpt>
      <trkpt lat="44.44003" lon="6.91262">
        <ele>2335</ele>
        <time>2022-05-23T14:16:05+02:00</time>
      </trkpt>
      <trkpt lat="44.44006" lon="6.91254">
        <ele>2334</ele>
        <time>2022-05-23T14:16:11+02:00</time>
      </trkpt>
      <trkpt lat="44.44007" lon="6.91252">
        <ele>2333</ele>
        <time>2022-05-23T14:16:12+02:00</time>
      </trkpt>
      <trkpt lat="44.44014" lon="6.91231">
        <ele>2331</ele>
        <time>2022-05-23T14:16:27+02:00</time>
      </trkpt>
      <trkpt lat="44.44015" lon="6.91214">
        <ele>2331</ele>
        <time>2022-05-23T14:16:41+02:00</time>
      </trkpt>
      <trkpt lat="44.44018" lon="6.9121">
        <ele>2331</ele>
        <time>2022-05-23T14:16:46+02:00</time>
      </trkpt>
      <trkpt lat="44.44029" lon="6.91188">
        <ele>2329</ele>
        <time>2022-05-23T14:17:02+02:00</time>
      </trkpt>
      <trkpt lat="44.4403" lon="6.91185">
        <ele>2329</ele>
        <time>2022-05-23T14:17:04+02:00</time>
      </trkpt>
      <trkpt lat="44.4403" lon="6.91183">
        <ele>2328</ele>
        <time>2022-05-23T14:17:05+02:00</time>
      </trkpt>
      <trkpt lat="44.4403" lon="6.91181">
        <ele>2328</ele>
        <time>2022-05-23T14:17:06+02:00</time>
      </trkpt>
      <trkpt lat="44.4403" lon="6.9118">
        <ele>2328</ele>
        <time>2022-05-23T14:17:07+02:00</time>
      </trkpt>
      <trkpt lat="44.4403" lon="6.91178">
        <ele>2328</ele>
        <time>2022-05-23T14:17:08+02:00</time>
      </trkpt>
      <trkpt lat="44.44029" lon="6.91152">
        <ele>2328</ele>
        <time>2022-05-23T14:17:23+02:00</time>
      </trkpt>
      <trkpt lat="44.44031" lon="6.91148">
        <ele>2328</ele>
        <time>2022-05-23T14:17:29+02:00</time>
      </trkpt>
      <trkpt lat="44.44032" lon="6.91145">
        <ele>2327</ele>
        <time>2022-05-23T14:17:32+02:00</time>
      </trkpt>
      <trkpt lat="44.44034" lon="6.91139">
        <ele>2327</ele>
        <time>2022-05-23T14:17:37+02:00</time>
      </trkpt>
      <trkpt lat="44.44034" lon="6.91137">
        <ele>2327</ele>
        <time>2022-05-23T14:17:38+02:00</time>
      </trkpt>
      <trkpt lat="44.44035" lon="6.9113">
        <ele>2327</ele>
        <time>2022-05-23T14:17:43+02:00</time>
      </trkpt>
      <trkpt lat="44.44039" lon="6.91114">
        <ele>2325</ele>
        <time>2022-05-23T14:17:52+02:00</time>
      </trkpt>
      <trkpt lat="44.44043" lon="6.91097">
        <ele>2324</ele>
        <time>2022-05-23T14:18:01+02:00</time>
      </trkpt>
      <trkpt lat="44.4405" lon="6.91078">
        <ele>2321</ele>
        <time>2022-05-23T14:18:13+02:00</time>
      </trkpt>
      <trkpt lat="44.44053" lon="6.9107">
        <ele>2320</ele>
        <time>2022-05-23T14:18:19+02:00</time>
      </trkpt>
      <trkpt lat="44.44055" lon="6.91063">
        <ele>2318</ele>
        <time>2022-05-23T14:18:24+02:00</time>
      </trkpt>
      <trkpt lat="44.44057" lon="6.9106">
        <ele>2318</ele>
        <time>2022-05-23T14:18:26+02:00</time>
      </trkpt>
      <trkpt lat="44.4406" lon="6.91033">
        <ele>2315</ele>
        <time>2022-05-23T14:18:42+02:00</time>
      </trkpt>
      <trkpt lat="44.4406" lon="6.9103">
        <ele>2314</ele>
        <time>2022-05-23T14:18:44+02:00</time>
      </trkpt>
      <trkpt lat="44.44059" lon="6.91028">
        <ele>2314</ele>
        <time>2022-05-23T14:18:45+02:00</time>
      </trkpt>
      <trkpt lat="44.44059" lon="6.91026">
        <ele>2314</ele>
        <time>2022-05-23T14:18:46+02:00</time>
      </trkpt>
      <trkpt lat="44.44059" lon="6.91024">
        <ele>2314</ele>
        <time>2022-05-23T14:18:47+02:00</time>
      </trkpt>
      <trkpt lat="44.44059" lon="6.91023">
        <ele>2314</ele>
        <time>2022-05-23T14:18:48+02:00</time>
      </trkpt>
      <trkpt lat="44.44059" lon="6.91017">
        <ele>2313</ele>
        <time>2022-05-23T14:18:51+02:00</time>
      </trkpt>
      <trkpt lat="44.44059" lon="6.91016">
        <ele>2313</ele>
        <time>2022-05-23T14:18:52+02:00</time>
      </trkpt>
      <trkpt lat="44.44058" lon="6.91015">
        <ele>2313</ele>
        <time>2022-05-23T14:18:53+02:00</time>
      </trkpt>
      <trkpt lat="44.44057" lon="6.91013">
        <ele>2313</ele>
        <time>2022-05-23T14:18:54+02:00</time>
      </trkpt>
      <trkpt lat="44.44057" lon="6.91011">
        <ele>2313</ele>
        <time>2022-05-23T14:18:55+02:00</time>
      </trkpt>
      <trkpt lat="44.44057" lon="6.91009">
        <ele>2313</ele>
        <time>2022-05-23T14:18:56+02:00</time>
      </trkpt>
      <trkpt lat="44.44057" lon="6.91008">
        <ele>2313</ele>
        <time>2022-05-23T14:18:57+02:00</time>
      </trkpt>
      <trkpt lat="44.44056" lon="6.91007">
        <ele>2313</ele>
        <time>2022-05-23T14:18:58+02:00</time>
      </trkpt>
      <trkpt lat="44.44055" lon="6.91004">
        <ele>2313</ele>
        <time>2022-05-23T14:19:00+02:00</time>
      </trkpt>
      <trkpt lat="44.44055" lon="6.91002">
        <ele>2312</ele>
        <time>2022-05-23T14:19:01+02:00</time>
      </trkpt>
      <trkpt lat="44.44047" lon="6.90982">
        <ele>2312</ele>
        <time>2022-05-23T14:19:14+02:00</time>
      </trkpt>
      <trkpt lat="44.44041" lon="6.90956">
        <ele>2309</ele>
        <time>2022-05-23T14:19:30+02:00</time>
      </trkpt>
      <trkpt lat="44.44036" lon="6.90933">
        <ele>2306</ele>
        <time>2022-05-23T14:19:46+02:00</time>
      </trkpt>
      <trkpt lat="44.44034" lon="6.90929">
        <ele>2306</ele>
        <time>2022-05-23T14:19:48+02:00</time>
      </trkpt>
      <trkpt lat="44.4403" lon="6.90919">
        <ele>2304</ele>
        <time>2022-05-23T14:19:55+02:00</time>
      </trkpt>
      <trkpt lat="44.44029" lon="6.90918">
        <ele>2304</ele>
        <time>2022-05-23T14:19:56+02:00</time>
      </trkpt>
      <trkpt lat="44.44028" lon="6.90917">
        <ele>2304</ele>
        <time>2022-05-23T14:19:57+02:00</time>
      </trkpt>
      <trkpt lat="44.44024" lon="6.90909">
        <ele>2302</ele>
        <time>2022-05-23T14:20:05+02:00</time>
      </trkpt>
      <trkpt lat="44.44023" lon="6.90907">
        <ele>2302</ele>
        <time>2022-05-23T14:20:07+02:00</time>
      </trkpt>
      <trkpt lat="44.44023" lon="6.90906">
        <ele>2302</ele>
        <time>2022-05-23T14:20:08+02:00</time>
      </trkpt>
      <trkpt lat="44.44022" lon="6.909">
        <ele>2301</ele>
        <time>2022-05-23T14:20:12+02:00</time>
      </trkpt>
      <trkpt lat="44.44022" lon="6.90898">
        <ele>2300</ele>
        <time>2022-05-23T14:20:13+02:00</time>
      </trkpt>
      <trkpt lat="44.44021" lon="6.90893">
        <ele>2300</ele>
        <time>2022-05-23T14:20:17+02:00</time>
      </trkpt>
      <trkpt lat="44.44021" lon="6.90891">
        <ele>2299</ele>
        <time>2022-05-23T14:20:18+02:00</time>
      </trkpt>
      <trkpt lat="44.4402" lon="6.90888">
        <ele>2299</ele>
        <time>2022-05-23T14:20:20+02:00</time>
      </trkpt>
      <trkpt lat="44.4402" lon="6.90882">
        <ele>2298</ele>
        <time>2022-05-23T14:20:24+02:00</time>
      </trkpt>
      <trkpt lat="44.44019" lon="6.90874">
        <ele>2296</ele>
        <time>2022-05-23T14:20:30+02:00</time>
      </trkpt>
      <trkpt lat="44.44019" lon="6.90871">
        <ele>2296</ele>
        <time>2022-05-23T14:20:33+02:00</time>
      </trkpt>
      <trkpt lat="44.4402" lon="6.90858">
        <ele>2294</ele>
        <time>2022-05-23T14:20:41+02:00</time>
      </trkpt>
      <trkpt lat="44.4402" lon="6.90856">
        <ele>2294</ele>
        <time>2022-05-23T14:20:42+02:00</time>
      </trkpt>
      <trkpt lat="44.44019" lon="6.90853">
        <ele>2293</ele>
        <time>2022-05-23T14:20:44+02:00</time>
      </trkpt>
      <trkpt lat="44.44018" lon="6.90852">
        <ele>2293</ele>
        <time>2022-05-23T14:20:45+02:00</time>
      </trkpt>
      <trkpt lat="44.44014" lon="6.90845">
        <ele>2292</ele>
        <time>2022-05-23T14:20:50+02:00</time>
      </trkpt>
      <trkpt lat="44.44013" lon="6.90843">
        <ele>2291</ele>
        <time>2022-05-23T14:20:51+02:00</time>
      </trkpt>
      <trkpt lat="44.44012" lon="6.9084">
        <ele>2291</ele>
        <time>2022-05-23T14:20:53+02:00</time>
      </trkpt>
      <trkpt lat="44.4401" lon="6.90832">
        <ele>2290</ele>
        <time>2022-05-23T14:20:58+02:00</time>
      </trkpt>
      <trkpt lat="44.44009" lon="6.9083">
        <ele>2290</ele>
        <time>2022-05-23T14:20:59+02:00</time>
      </trkpt>
      <trkpt lat="44.44002" lon="6.90805">
        <ele>2288</ele>
        <time>2022-05-23T14:21:12+02:00</time>
      </trkpt>
      <trkpt lat="44.43996" lon="6.90777">
        <ele>2287</ele>
        <time>2022-05-23T14:21:28+02:00</time>
      </trkpt>
      <trkpt lat="44.43995" lon="6.90775">
        <ele>2287</ele>
        <time>2022-05-23T14:21:30+02:00</time>
      </trkpt>
      <trkpt lat="44.43995" lon="6.90772">
        <ele>2287</ele>
        <time>2022-05-23T14:21:32+02:00</time>
      </trkpt>
      <trkpt lat="44.43994" lon="6.90772">
        <ele>2287</ele>
        <time>2022-05-23T14:21:33+02:00</time>
      </trkpt>
      <trkpt lat="44.43992" lon="6.9077">
        <ele>2288</ele>
        <time>2022-05-23T14:21:35+02:00</time>
      </trkpt>
      <trkpt lat="44.43991" lon="6.90769">
        <ele>2288</ele>
        <time>2022-05-23T14:21:36+02:00</time>
      </trkpt>
      <trkpt lat="44.43991" lon="6.90768">
        <ele>2288</ele>
        <time>2022-05-23T14:21:37+02:00</time>
      </trkpt>
      <trkpt lat="44.43997" lon="6.9077">
        <ele>2287</ele>
        <time>2022-05-23T14:21:49+02:00</time>
      </trkpt>
      <trkpt lat="44.43999" lon="6.90769">
        <ele>2287</ele>
        <time>2022-05-23T14:21:52+02:00</time>
      </trkpt>
      <trkpt lat="44.44" lon="6.90766">
        <ele>2286</ele>
        <time>2022-05-23T14:21:55+02:00</time>
      </trkpt>
      <trkpt lat="44.44" lon="6.90765">
        <ele>2286</ele>
        <time>2022-05-23T14:21:56+02:00</time>
      </trkpt>
      <trkpt lat="44.44" lon="6.90763">
        <ele>2286</ele>
        <time>2022-05-23T14:21:57+02:00</time>
      </trkpt>
      <trkpt lat="44.43999" lon="6.90759">
        <ele>2286</ele>
        <time>2022-05-23T14:21:59+02:00</time>
      </trkpt>
      <trkpt lat="44.44" lon="6.90755">
        <ele>2285</ele>
        <time>2022-05-23T14:22:01+02:00</time>
      </trkpt>
      <trkpt lat="44.43999" lon="6.90753">
        <ele>2285</ele>
        <time>2022-05-23T14:22:02+02:00</time>
      </trkpt>
      <trkpt lat="44.43998" lon="6.90751">
        <ele>2285</ele>
        <time>2022-05-23T14:22:03+02:00</time>
      </trkpt>
      <trkpt lat="44.43998" lon="6.90749">
        <ele>2285</ele>
        <time>2022-05-23T14:22:04+02:00</time>
      </trkpt>
      <trkpt lat="44.43996" lon="6.90748">
        <ele>2285</ele>
        <time>2022-05-23T14:22:05+02:00</time>
      </trkpt>
      <trkpt lat="44.43994" lon="6.90745">
        <ele>2285</ele>
        <time>2022-05-23T14:22:07+02:00</time>
      </trkpt>
      <trkpt lat="44.43992" lon="6.90741">
        <ele>2285</ele>
        <time>2022-05-23T14:22:10+02:00</time>
      </trkpt>
      <trkpt lat="44.4398" lon="6.90726">
        <ele>2286</ele>
        <time>2022-05-23T14:22:22+02:00</time>
      </trkpt>
      <trkpt lat="44.43976" lon="6.90721">
        <ele>2286</ele>
        <time>2022-05-23T14:22:25+02:00</time>
      </trkpt>
      <trkpt lat="44.43975" lon="6.9072">
        <ele>2286</ele>
        <time>2022-05-23T14:22:26+02:00</time>
      </trkpt>
      <trkpt lat="44.43972" lon="6.90716">
        <ele>2285</ele>
        <time>2022-05-23T14:22:29+02:00</time>
      </trkpt>
      <trkpt lat="44.43968" lon="6.90708">
        <ele>2285</ele>
        <time>2022-05-23T14:22:34+02:00</time>
      </trkpt>
      <trkpt lat="44.43966" lon="6.90703">
        <ele>2285</ele>
        <time>2022-05-23T14:22:37+02:00</time>
      </trkpt>
      <trkpt lat="44.43961" lon="6.9069">
        <ele>2284</ele>
        <time>2022-05-23T14:22:45+02:00</time>
      </trkpt>
      <trkpt lat="44.43952" lon="6.90673">
        <ele>2283</ele>
        <time>2022-05-23T14:22:59+02:00</time>
      </trkpt>
      <trkpt lat="44.43952" lon="6.90672">
        <ele>2283</ele>
        <time>2022-05-23T14:23:00+02:00</time>
      </trkpt>
      <trkpt lat="44.43951" lon="6.9067">
        <ele>2283</ele>
        <time>2022-05-23T14:23:01+02:00</time>
      </trkpt>
      <trkpt lat="44.43951" lon="6.90669">
        <ele>2283</ele>
        <time>2022-05-23T14:23:02+02:00</time>
      </trkpt>
      <trkpt lat="44.4395" lon="6.90668">
        <ele>2283</ele>
        <time>2022-05-23T14:23:03+02:00</time>
      </trkpt>
      <trkpt lat="44.43949" lon="6.90667">
        <ele>2283</ele>
        <time>2022-05-23T14:23:04+02:00</time>
      </trkpt>
      <trkpt lat="44.43949" lon="6.90665">
        <ele>2282</ele>
        <time>2022-05-23T14:23:05+02:00</time>
      </trkpt>
      <trkpt lat="44.43948" lon="6.90664">
        <ele>2282</ele>
        <time>2022-05-23T14:23:06+02:00</time>
      </trkpt>
      <trkpt lat="44.43946" lon="6.9066">
        <ele>2281</ele>
        <time>2022-05-23T14:23:09+02:00</time>
      </trkpt>
      <trkpt lat="44.43944" lon="6.9065">
        <ele>2279</ele>
        <time>2022-05-23T14:23:18+02:00</time>
      </trkpt>
      <trkpt lat="44.43943" lon="6.90649">
        <ele>2279</ele>
        <time>2022-05-23T14:23:19+02:00</time>
      </trkpt>
      <trkpt lat="44.43942" lon="6.90649">
        <ele>2279</ele>
        <time>2022-05-23T14:23:20+02:00</time>
      </trkpt>
      <trkpt lat="44.43937" lon="6.90646">
        <ele>2279</ele>
        <time>2022-05-23T14:23:26+02:00</time>
      </trkpt>
      <trkpt lat="44.43936" lon="6.90645">
        <ele>2278</ele>
        <time>2022-05-23T14:23:27+02:00</time>
      </trkpt>
      <trkpt lat="44.43932" lon="6.90638">
        <ele>2277</ele>
        <time>2022-05-23T14:23:33+02:00</time>
      </trkpt>
      <trkpt lat="44.43925" lon="6.90625">
        <ele>2275</ele>
        <time>2022-05-23T14:23:42+02:00</time>
      </trkpt>
      <trkpt lat="44.43923" lon="6.90625">
        <ele>2275</ele>
        <time>2022-05-23T14:23:43+02:00</time>
      </trkpt>
      <trkpt lat="44.43922" lon="6.90623">
        <ele>2275</ele>
        <time>2022-05-23T14:23:44+02:00</time>
      </trkpt>
      <trkpt lat="44.4391" lon="6.90601">
        <ele>2275</ele>
        <time>2022-05-23T14:23:59+02:00</time>
      </trkpt>
      <trkpt lat="44.43909" lon="6.90586">
        <ele>2273</ele>
        <time>2022-05-23T14:24:10+02:00</time>
      </trkpt>
      <trkpt lat="44.43905" lon="6.90578">
        <ele>2273</ele>
        <time>2022-05-23T14:24:17+02:00</time>
      </trkpt>
      <trkpt lat="44.439" lon="6.90562">
        <ele>2271</ele>
        <time>2022-05-23T14:24:28+02:00</time>
      </trkpt>
      <trkpt lat="44.43895" lon="6.90546">
        <ele>2269</ele>
        <time>2022-05-23T14:24:39+02:00</time>
      </trkpt>
      <trkpt lat="44.43895" lon="6.90544">
        <ele>2269</ele>
        <time>2022-05-23T14:24:40+02:00</time>
      </trkpt>
      <trkpt lat="44.43895" lon="6.90543">
        <ele>2269</ele>
        <time>2022-05-23T14:24:41+02:00</time>
      </trkpt>
      <trkpt lat="44.43894" lon="6.90521">
        <ele>2267</ele>
        <time>2022-05-23T14:24:53+02:00</time>
      </trkpt>
      <trkpt lat="44.43894" lon="6.90518">
        <ele>2267</ele>
        <time>2022-05-23T14:24:55+02:00</time>
      </trkpt>
      <trkpt lat="44.43895" lon="6.90514">
        <ele>2266</ele>
        <time>2022-05-23T14:24:57+02:00</time>
      </trkpt>
      <trkpt lat="44.43897" lon="6.90504">
        <ele>2266</ele>
        <time>2022-05-23T14:25:05+02:00</time>
      </trkpt>
      <trkpt lat="44.43898" lon="6.90502">
        <ele>2266</ele>
        <time>2022-05-23T14:25:08+02:00</time>
      </trkpt>
      <trkpt lat="44.43899" lon="6.90497">
        <ele>2265</ele>
        <time>2022-05-23T14:25:15+02:00</time>
      </trkpt>
      <trkpt lat="44.43906" lon="6.9049">
        <ele>2266</ele>
        <time>2022-05-23T14:25:25+02:00</time>
      </trkpt>
      <trkpt lat="44.43911" lon="6.90487">
        <ele>2266</ele>
        <time>2022-05-23T14:25:29+02:00</time>
      </trkpt>
      <trkpt lat="44.43911" lon="6.90486">
        <ele>2266</ele>
        <time>2022-05-23T14:25:30+02:00</time>
      </trkpt>
      <trkpt lat="44.43911" lon="6.90485">
        <ele>2266</ele>
        <time>2022-05-23T14:25:31+02:00</time>
      </trkpt>
      <trkpt lat="44.43912" lon="6.90483">
        <ele>2266</ele>
        <time>2022-05-23T14:25:32+02:00</time>
      </trkpt>
      <trkpt lat="44.43912" lon="6.90481">
        <ele>2266</ele>
        <time>2022-05-23T14:25:33+02:00</time>
      </trkpt>
      <trkpt lat="44.43913" lon="6.90479">
        <ele>2266</ele>
        <time>2022-05-23T14:25:34+02:00</time>
      </trkpt>
      <trkpt lat="44.43917" lon="6.90454">
        <ele>2265</ele>
        <time>2022-05-23T14:25:50+02:00</time>
      </trkpt>
      <trkpt lat="44.43917" lon="6.9045">
        <ele>2265</ele>
        <time>2022-05-23T14:25:53+02:00</time>
      </trkpt>
      <trkpt lat="44.43918" lon="6.9044">
        <ele>2265</ele>
        <time>2022-05-23T14:25:59+02:00</time>
      </trkpt>
      <trkpt lat="44.43918" lon="6.90429">
        <ele>2265</ele>
        <time>2022-05-23T14:26:05+02:00</time>
      </trkpt>
      <trkpt lat="44.43918" lon="6.90427">
        <ele>2265</ele>
        <time>2022-05-23T14:26:06+02:00</time>
      </trkpt>
      <trkpt lat="44.4392" lon="6.90414">
        <ele>2264</ele>
        <time>2022-05-23T14:26:17+02:00</time>
      </trkpt>
      <trkpt lat="44.4392" lon="6.90416">
        <ele>2264</ele>
        <time>2022-05-23T14:26:40+02:00</time>
      </trkpt>
      <trkpt lat="44.43919" lon="6.90409">
        <ele>2264</ele>
        <time>2022-05-23T14:27:08+02:00</time>
      </trkpt>
      <trkpt lat="44.4392" lon="6.90407">
        <ele>2265</ele>
        <time>2022-05-23T14:27:21+02:00</time>
      </trkpt>
      <trkpt lat="44.4392" lon="6.90407">
        <ele>2264</ele>
        <time>2022-05-23T14:27:24+02:00</time>
      </trkpt>
      <trkpt lat="44.43919" lon="6.90406">
        <ele>2264</ele>
        <time>2022-05-23T14:27:35+02:00</time>
      </trkpt>
      <trkpt lat="44.43918" lon="6.90408">
        <ele>2264</ele>
        <time>2022-05-23T14:27:51+02:00</time>
      </trkpt>
      <trkpt lat="44.43919" lon="6.9041">
        <ele>2264</ele>
        <time>2022-05-23T14:28:08+02:00</time>
      </trkpt>
      <trkpt lat="44.43916" lon="6.90403">
        <ele>2264</ele>
        <time>2022-05-23T14:28:23+02:00</time>
      </trkpt>
      <trkpt lat="44.43909" lon="6.90399">
        <ele>2263</ele>
        <time>2022-05-23T14:28:39+02:00</time>
      </trkpt>
      <trkpt lat="44.43906" lon="6.90398">
        <ele>2262</ele>
        <time>2022-05-23T14:28:48+02:00</time>
      </trkpt>
      <trkpt lat="44.43906" lon="6.90397">
        <ele>2262</ele>
        <time>2022-05-23T14:28:49+02:00</time>
      </trkpt>
      <trkpt lat="44.43907" lon="6.90388">
        <ele>2262</ele>
        <time>2022-05-23T14:28:56+02:00</time>
      </trkpt>
      <trkpt lat="44.43907" lon="6.90376">
        <ele>2262</ele>
        <time>2022-05-23T14:29:08+02:00</time>
      </trkpt>
      <trkpt lat="44.43907" lon="6.90375">
        <ele>2261</ele>
        <time>2022-05-23T14:29:09+02:00</time>
      </trkpt>
      <trkpt lat="44.43908" lon="6.90359">
        <ele>2261</ele>
        <time>2022-05-23T14:29:21+02:00</time>
      </trkpt>
      <trkpt lat="44.4391" lon="6.90353">
        <ele>2261</ele>
        <time>2022-05-23T14:29:25+02:00</time>
      </trkpt>
      <trkpt lat="44.4391" lon="6.90352">
        <ele>2262</ele>
        <time>2022-05-23T14:29:26+02:00</time>
      </trkpt>
      <trkpt lat="44.43911" lon="6.9035">
        <ele>2262</ele>
        <time>2022-05-23T14:29:27+02:00</time>
      </trkpt>
      <trkpt lat="44.43911" lon="6.90349">
        <ele>2262</ele>
        <time>2022-05-23T14:29:28+02:00</time>
      </trkpt>
      <trkpt lat="44.43907" lon="6.90343">
        <ele>2260</ele>
        <time>2022-05-23T14:29:35+02:00</time>
      </trkpt>
      <trkpt lat="44.43905" lon="6.90342">
        <ele>2259</ele>
        <time>2022-05-23T14:29:38+02:00</time>
      </trkpt>
      <trkpt lat="44.43902" lon="6.90339">
        <ele>2258</ele>
        <time>2022-05-23T14:29:43+02:00</time>
      </trkpt>
      <trkpt lat="44.439" lon="6.9034">
        <ele>2257</ele>
        <time>2022-05-23T14:29:45+02:00</time>
      </trkpt>
      <trkpt lat="44.43898" lon="6.9034">
        <ele>2257</ele>
        <time>2022-05-23T14:29:46+02:00</time>
      </trkpt>
      <trkpt lat="44.43897" lon="6.9034">
        <ele>2256</ele>
        <time>2022-05-23T14:29:47+02:00</time>
      </trkpt>
      <trkpt lat="44.43896" lon="6.9034">
        <ele>2256</ele>
        <time>2022-05-23T14:29:48+02:00</time>
      </trkpt>
      <trkpt lat="44.43893" lon="6.9034">
        <ele>2255</ele>
        <time>2022-05-23T14:29:50+02:00</time>
      </trkpt>
      <trkpt lat="44.43885" lon="6.90339">
        <ele>2252</ele>
        <time>2022-05-23T14:29:57+02:00</time>
      </trkpt>
      <trkpt lat="44.43883" lon="6.90338">
        <ele>2252</ele>
        <time>2022-05-23T14:29:58+02:00</time>
      </trkpt>
      <trkpt lat="44.43882" lon="6.90338">
        <ele>2252</ele>
        <time>2022-05-23T14:29:59+02:00</time>
      </trkpt>
      <trkpt lat="44.43881" lon="6.90338">
        <ele>2251</ele>
        <time>2022-05-23T14:30:00+02:00</time>
      </trkpt>
      <trkpt lat="44.4388" lon="6.90338">
        <ele>2251</ele>
        <time>2022-05-23T14:30:01+02:00</time>
      </trkpt>
      <trkpt lat="44.43879" lon="6.90339">
        <ele>2251</ele>
        <time>2022-05-23T14:30:02+02:00</time>
      </trkpt>
      <trkpt lat="44.4387" lon="6.90339">
        <ele>2249</ele>
        <time>2022-05-23T14:30:09+02:00</time>
      </trkpt>
      <trkpt lat="44.43869" lon="6.9034">
        <ele>2248</ele>
        <time>2022-05-23T14:30:11+02:00</time>
      </trkpt>
      <trkpt lat="44.43868" lon="6.90342">
        <ele>2248</ele>
        <time>2022-05-23T14:30:12+02:00</time>
      </trkpt>
      <trkpt lat="44.43867" lon="6.90343">
        <ele>2248</ele>
        <time>2022-05-23T14:30:13+02:00</time>
      </trkpt>
      <trkpt lat="44.43865" lon="6.90344">
        <ele>2247</ele>
        <time>2022-05-23T14:30:15+02:00</time>
      </trkpt>
      <trkpt lat="44.43861" lon="6.90347">
        <ele>2245</ele>
        <time>2022-05-23T14:30:18+02:00</time>
      </trkpt>
      <trkpt lat="44.43856" lon="6.9035">
        <ele>2244</ele>
        <time>2022-05-23T14:30:22+02:00</time>
      </trkpt>
      <trkpt lat="44.43855" lon="6.90351">
        <ele>2243</ele>
        <time>2022-05-23T14:30:23+02:00</time>
      </trkpt>
      <trkpt lat="44.4385" lon="6.90354">
        <ele>2242</ele>
        <time>2022-05-23T14:30:28+02:00</time>
      </trkpt>
      <trkpt lat="44.43849" lon="6.90355">
        <ele>2241</ele>
        <time>2022-05-23T14:30:29+02:00</time>
      </trkpt>
      <trkpt lat="44.43842" lon="6.90362">
        <ele>2238</ele>
        <time>2022-05-23T14:30:36+02:00</time>
      </trkpt>
      <trkpt lat="44.4384" lon="6.90365">
        <ele>2238</ele>
        <time>2022-05-23T14:30:39+02:00</time>
      </trkpt>
      <trkpt lat="44.43839" lon="6.90366">
        <ele>2238</ele>
        <time>2022-05-23T14:30:40+02:00</time>
      </trkpt>
      <trkpt lat="44.43827" lon="6.90372">
        <ele>2235</ele>
        <time>2022-05-23T14:30:51+02:00</time>
      </trkpt>
      <trkpt lat="44.43826" lon="6.90372">
        <ele>2235</ele>
        <time>2022-05-23T14:30:52+02:00</time>
      </trkpt>
      <trkpt lat="44.43825" lon="6.9037">
        <ele>2235</ele>
        <time>2022-05-23T14:30:53+02:00</time>
      </trkpt>
      <trkpt lat="44.43824" lon="6.90369">
        <ele>2235</ele>
        <time>2022-05-23T14:30:54+02:00</time>
      </trkpt>
      <trkpt lat="44.43823" lon="6.90368">
        <ele>2235</ele>
        <time>2022-05-23T14:30:55+02:00</time>
      </trkpt>
      <trkpt lat="44.43821" lon="6.90368">
        <ele>2235</ele>
        <time>2022-05-23T14:30:56+02:00</time>
      </trkpt>
      <trkpt lat="44.4382" lon="6.90368">
        <ele>2234</ele>
        <time>2022-05-23T14:30:57+02:00</time>
      </trkpt>
      <trkpt lat="44.43817" lon="6.90366">
        <ele>2234</ele>
        <time>2022-05-23T14:31:00+02:00</time>
      </trkpt>
      <trkpt lat="44.43816" lon="6.90365">
        <ele>2234</ele>
        <time>2022-05-23T14:31:01+02:00</time>
      </trkpt>
      <trkpt lat="44.43815" lon="6.90364">
        <ele>2234</ele>
        <time>2022-05-23T14:31:02+02:00</time>
      </trkpt>
      <trkpt lat="44.43814" lon="6.90363">
        <ele>2234</ele>
        <time>2022-05-23T14:31:03+02:00</time>
      </trkpt>
      <trkpt lat="44.43814" lon="6.90361">
        <ele>2234</ele>
        <time>2022-05-23T14:31:04+02:00</time>
      </trkpt>
      <trkpt lat="44.4381" lon="6.90358">
        <ele>2235</ele>
        <time>2022-05-23T14:31:08+02:00</time>
      </trkpt>
      <trkpt lat="44.43808" lon="6.90358">
        <ele>2235</ele>
        <time>2022-05-23T14:31:09+02:00</time>
      </trkpt>
      <trkpt lat="44.43804" lon="6.90358">
        <ele>2234</ele>
        <time>2022-05-23T14:31:12+02:00</time>
      </trkpt>
      <trkpt lat="44.43801" lon="6.90358">
        <ele>2233</ele>
        <time>2022-05-23T14:31:14+02:00</time>
      </trkpt>
      <trkpt lat="44.43795" lon="6.90355">
        <ele>2233</ele>
        <time>2022-05-23T14:31:19+02:00</time>
      </trkpt>
      <trkpt lat="44.43777" lon="6.90342">
        <ele>2232</ele>
        <time>2022-05-23T14:31:35+02:00</time>
      </trkpt>
      <trkpt lat="44.43775" lon="6.90342">
        <ele>2232</ele>
        <time>2022-05-23T14:31:36+02:00</time>
      </trkpt>
      <trkpt lat="44.4377" lon="6.90343">
        <ele>2230</ele>
        <time>2022-05-23T14:31:40+02:00</time>
      </trkpt>
      <trkpt lat="44.43768" lon="6.90343">
        <ele>2230</ele>
        <time>2022-05-23T14:31:42+02:00</time>
      </trkpt>
      <trkpt lat="44.43766" lon="6.90342">
        <ele>2229</ele>
        <time>2022-05-23T14:31:44+02:00</time>
      </trkpt>
      <trkpt lat="44.43765" lon="6.90341">
        <ele>2229</ele>
        <time>2022-05-23T14:31:46+02:00</time>
      </trkpt>
      <trkpt lat="44.43758" lon="6.90338">
        <ele>2228</ele>
        <time>2022-05-23T14:31:52+02:00</time>
      </trkpt>
      <trkpt lat="44.43756" lon="6.90338">
        <ele>2227</ele>
        <time>2022-05-23T14:31:55+02:00</time>
      </trkpt>
      <trkpt lat="44.43756" lon="6.90338">
        <ele>2227</ele>
        <time>2022-05-23T14:31:57+02:00</time>
      </trkpt>
      <trkpt lat="44.43753" lon="6.90337">
        <ele>2227</ele>
        <time>2022-05-23T14:32:00+02:00</time>
      </trkpt>
      <trkpt lat="44.43752" lon="6.90337">
        <ele>2226</ele>
        <time>2022-05-23T14:32:01+02:00</time>
      </trkpt>
      <trkpt lat="44.43748" lon="6.90337">
        <ele>2225</ele>
        <time>2022-05-23T14:32:04+02:00</time>
      </trkpt>
      <trkpt lat="44.43746" lon="6.90337">
        <ele>2225</ele>
        <time>2022-05-23T14:32:06+02:00</time>
      </trkpt>
      <trkpt lat="44.43745" lon="6.90338">
        <ele>2224</ele>
        <time>2022-05-23T14:32:07+02:00</time>
      </trkpt>
      <trkpt lat="44.43743" lon="6.90338">
        <ele>2224</ele>
        <time>2022-05-23T14:32:09+02:00</time>
      </trkpt>
      <trkpt lat="44.43741" lon="6.90339">
        <ele>2224</ele>
        <time>2022-05-23T14:32:10+02:00</time>
      </trkpt>
      <trkpt lat="44.4374" lon="6.90338">
        <ele>2223</ele>
        <time>2022-05-23T14:32:11+02:00</time>
      </trkpt>
      <trkpt lat="44.43739" lon="6.90338">
        <ele>2223</ele>
        <time>2022-05-23T14:32:12+02:00</time>
      </trkpt>
      <trkpt lat="44.43738" lon="6.90338">
        <ele>2223</ele>
        <time>2022-05-23T14:32:13+02:00</time>
      </trkpt>
      <trkpt lat="44.43736" lon="6.90338">
        <ele>2222</ele>
        <time>2022-05-23T14:32:15+02:00</time>
      </trkpt>
      <trkpt lat="44.43735" lon="6.90339">
        <ele>2222</ele>
        <time>2022-05-23T14:32:16+02:00</time>
      </trkpt>
      <trkpt lat="44.43734" lon="6.9034">
        <ele>2222</ele>
        <time>2022-05-23T14:32:17+02:00</time>
      </trkpt>
      <trkpt lat="44.43733" lon="6.9034">
        <ele>2221</ele>
        <time>2022-05-23T14:32:18+02:00</time>
      </trkpt>
      <trkpt lat="44.43732" lon="6.90339">
        <ele>2221</ele>
        <time>2022-05-23T14:32:19+02:00</time>
      </trkpt>
      <trkpt lat="44.43731" lon="6.90339">
        <ele>2221</ele>
        <time>2022-05-23T14:32:20+02:00</time>
      </trkpt>
      <trkpt lat="44.4373" lon="6.90335">
        <ele>2221</ele>
        <time>2022-05-23T14:32:25+02:00</time>
      </trkpt>
      <trkpt lat="44.4373" lon="6.90334">
        <ele>2221</ele>
        <time>2022-05-23T14:32:26+02:00</time>
      </trkpt>
      <trkpt lat="44.43729" lon="6.90331">
        <ele>2221</ele>
        <time>2022-05-23T14:32:28+02:00</time>
      </trkpt>
      <trkpt lat="44.43726" lon="6.90325">
        <ele>2220</ele>
        <time>2022-05-23T14:32:32+02:00</time>
      </trkpt>
      <trkpt lat="44.43724" lon="6.9032">
        <ele>2220</ele>
        <time>2022-05-23T14:32:35+02:00</time>
      </trkpt>
      <trkpt lat="44.43723" lon="6.90317">
        <ele>2219</ele>
        <time>2022-05-23T14:32:37+02:00</time>
      </trkpt>
      <trkpt lat="44.43723" lon="6.90315">
        <ele>2219</ele>
        <time>2022-05-23T14:32:38+02:00</time>
      </trkpt>
      <trkpt lat="44.43721" lon="6.90303">
        <ele>2219</ele>
        <time>2022-05-23T14:32:45+02:00</time>
      </trkpt>
      <trkpt lat="44.43721" lon="6.90301">
        <ele>2219</ele>
        <time>2022-05-23T14:32:46+02:00</time>
      </trkpt>
      <trkpt lat="44.4372" lon="6.903">
        <ele>2219</ele>
        <time>2022-05-23T14:32:47+02:00</time>
      </trkpt>
      <trkpt lat="44.4372" lon="6.90299">
        <ele>2218</ele>
        <time>2022-05-23T14:32:48+02:00</time>
      </trkpt>
      <trkpt lat="44.43719" lon="6.90297">
        <ele>2218</ele>
        <time>2022-05-23T14:32:49+02:00</time>
      </trkpt>
      <trkpt lat="44.43718" lon="6.90296">
        <ele>2218</ele>
        <time>2022-05-23T14:32:50+02:00</time>
      </trkpt>
      <trkpt lat="44.43718" lon="6.90295">
        <ele>2218</ele>
        <time>2022-05-23T14:32:51+02:00</time>
      </trkpt>
      <trkpt lat="44.43715" lon="6.90288">
        <ele>2217</ele>
        <time>2022-05-23T14:32:55+02:00</time>
      </trkpt>
      <trkpt lat="44.43715" lon="6.90284">
        <ele>2217</ele>
        <time>2022-05-23T14:32:57+02:00</time>
      </trkpt>
      <trkpt lat="44.43714" lon="6.90282">
        <ele>2216</ele>
        <time>2022-05-23T14:32:58+02:00</time>
      </trkpt>
      <trkpt lat="44.43713" lon="6.90281">
        <ele>2216</ele>
        <time>2022-05-23T14:32:59+02:00</time>
      </trkpt>
      <trkpt lat="44.43713" lon="6.90279">
        <ele>2216</ele>
        <time>2022-05-23T14:33:00+02:00</time>
      </trkpt>
      <trkpt lat="44.43712" lon="6.90277">
        <ele>2216</ele>
        <time>2022-05-23T14:33:02+02:00</time>
      </trkpt>
      <trkpt lat="44.43711" lon="6.90275">
        <ele>2215</ele>
        <time>2022-05-23T14:33:04+02:00</time>
      </trkpt>
      <trkpt lat="44.4371" lon="6.90273">
        <ele>2215</ele>
        <time>2022-05-23T14:33:05+02:00</time>
      </trkpt>
      <trkpt lat="44.4371" lon="6.90271">
        <ele>2215</ele>
        <time>2022-05-23T14:33:06+02:00</time>
      </trkpt>
      <trkpt lat="44.43709" lon="6.90269">
        <ele>2215</ele>
        <time>2022-05-23T14:33:07+02:00</time>
      </trkpt>
      <trkpt lat="44.43708" lon="6.90267">
        <ele>2214</ele>
        <time>2022-05-23T14:33:08+02:00</time>
      </trkpt>
      <trkpt lat="44.43708" lon="6.90266">
        <ele>2214</ele>
        <time>2022-05-23T14:33:09+02:00</time>
      </trkpt>
      <trkpt lat="44.43707" lon="6.90264">
        <ele>2214</ele>
        <time>2022-05-23T14:33:10+02:00</time>
      </trkpt>
      <trkpt lat="44.43706" lon="6.90262">
        <ele>2213</ele>
        <time>2022-05-23T14:33:11+02:00</time>
      </trkpt>
      <trkpt lat="44.43706" lon="6.90261">
        <ele>2213</ele>
        <time>2022-05-23T14:33:12+02:00</time>
      </trkpt>
      <trkpt lat="44.43705" lon="6.90257">
        <ele>2213</ele>
        <time>2022-05-23T14:33:14+02:00</time>
      </trkpt>
      <trkpt lat="44.43702" lon="6.90248">
        <ele>2212</ele>
        <time>2022-05-23T14:33:20+02:00</time>
      </trkpt>
      <trkpt lat="44.43702" lon="6.90246">
        <ele>2212</ele>
        <time>2022-05-23T14:33:21+02:00</time>
      </trkpt>
      <trkpt lat="44.43696" lon="6.90221">
        <ele>2210</ele>
        <time>2022-05-23T14:33:34+02:00</time>
      </trkpt>
      <trkpt lat="44.43695" lon="6.90215">
        <ele>2210</ele>
        <time>2022-05-23T14:33:37+02:00</time>
      </trkpt>
      <trkpt lat="44.43693" lon="6.90206">
        <ele>2209</ele>
        <time>2022-05-23T14:33:42+02:00</time>
      </trkpt>
      <trkpt lat="44.43687" lon="6.9018">
        <ele>2207</ele>
        <time>2022-05-23T14:33:57+02:00</time>
      </trkpt>
      <trkpt lat="44.43687" lon="6.90178">
        <ele>2207</ele>
        <time>2022-05-23T14:33:58+02:00</time>
      </trkpt>
      <trkpt lat="44.43679" lon="6.90158">
        <ele>2205</ele>
        <time>2022-05-23T14:34:09+02:00</time>
      </trkpt>
      <trkpt lat="44.43678" lon="6.90157">
        <ele>2205</ele>
        <time>2022-05-23T14:34:10+02:00</time>
      </trkpt>
      <trkpt lat="44.43676" lon="6.90156">
        <ele>2204</ele>
        <time>2022-05-23T14:34:11+02:00</time>
      </trkpt>
      <trkpt lat="44.43673" lon="6.90151">
        <ele>2204</ele>
        <time>2022-05-23T14:34:14+02:00</time>
      </trkpt>
      <trkpt lat="44.43665" lon="6.90139">
        <ele>2202</ele>
        <time>2022-05-23T14:34:22+02:00</time>
      </trkpt>
      <trkpt lat="44.43664" lon="6.90137">
        <ele>2202</ele>
        <time>2022-05-23T14:34:23+02:00</time>
      </trkpt>
      <trkpt lat="44.43653" lon="6.90117">
        <ele>2200</ele>
        <time>2022-05-23T14:34:37+02:00</time>
      </trkpt>
      <trkpt lat="44.43648" lon="6.901">
        <ele>2199</ele>
        <time>2022-05-23T14:34:48+02:00</time>
      </trkpt>
      <trkpt lat="44.43637" lon="6.90076">
        <ele>2197</ele>
        <time>2022-05-23T14:35:04+02:00</time>
      </trkpt>
      <trkpt lat="44.43631" lon="6.90062">
        <ele>2196</ele>
        <time>2022-05-23T14:35:14+02:00</time>
      </trkpt>
      <trkpt lat="44.4363" lon="6.90056">
        <ele>2196</ele>
        <time>2022-05-23T14:35:17+02:00</time>
      </trkpt>
      <trkpt lat="44.43624" lon="6.90031">
        <ele>2194</ele>
        <time>2022-05-23T14:35:31+02:00</time>
      </trkpt>
      <trkpt lat="44.43615" lon="6.90005">
        <ele>2188</ele>
        <time>2022-05-23T14:35:49+02:00</time>
      </trkpt>
      <trkpt lat="44.43613" lon="6.89995">
        <ele>2187</ele>
        <time>2022-05-23T14:35:57+02:00</time>
      </trkpt>
      <trkpt lat="44.43612" lon="6.89987">
        <ele>2186</ele>
        <time>2022-05-23T14:36:02+02:00</time>
      </trkpt>
      <trkpt lat="44.43611" lon="6.89986">
        <ele>2185</ele>
        <time>2022-05-23T14:36:03+02:00</time>
      </trkpt>
      <trkpt lat="44.4361" lon="6.89984">
        <ele>2185</ele>
        <time>2022-05-23T14:36:04+02:00</time>
      </trkpt>
      <trkpt lat="44.43609" lon="6.89982">
        <ele>2185</ele>
        <time>2022-05-23T14:36:05+02:00</time>
      </trkpt>
      <trkpt lat="44.43608" lon="6.8998">
        <ele>2184</ele>
        <time>2022-05-23T14:36:07+02:00</time>
      </trkpt>
      <trkpt lat="44.43608" lon="6.89978">
        <ele>2184</ele>
        <time>2022-05-23T14:36:08+02:00</time>
      </trkpt>
      <trkpt lat="44.43602" lon="6.89969">
        <ele>2182</ele>
        <time>2022-05-23T14:36:16+02:00</time>
      </trkpt>
      <trkpt lat="44.43595" lon="6.8996">
        <ele>2179</ele>
        <time>2022-05-23T14:36:24+02:00</time>
      </trkpt>
      <trkpt lat="44.43588" lon="6.89953">
        <ele>2177</ele>
        <time>2022-05-23T14:36:32+02:00</time>
      </trkpt>
      <trkpt lat="44.43586" lon="6.89953">
        <ele>2176</ele>
        <time>2022-05-23T14:36:33+02:00</time>
      </trkpt>
      <trkpt lat="44.43584" lon="6.89943">
        <ele>2175</ele>
        <time>2022-05-23T14:36:38+02:00</time>
      </trkpt>
      <trkpt lat="44.43584" lon="6.89942">
        <ele>2175</ele>
        <time>2022-05-23T14:36:39+02:00</time>
      </trkpt>
      <trkpt lat="44.43583" lon="6.89941">
        <ele>2175</ele>
        <time>2022-05-23T14:36:40+02:00</time>
      </trkpt>
      <trkpt lat="44.43582" lon="6.89939">
        <ele>2175</ele>
        <time>2022-05-23T14:36:41+02:00</time>
      </trkpt>
      <trkpt lat="44.43581" lon="6.89938">
        <ele>2174</ele>
        <time>2022-05-23T14:36:42+02:00</time>
      </trkpt>
      <trkpt lat="44.4358" lon="6.89936">
        <ele>2174</ele>
        <time>2022-05-23T14:36:43+02:00</time>
      </trkpt>
      <trkpt lat="44.43579" lon="6.89935">
        <ele>2174</ele>
        <time>2022-05-23T14:36:44+02:00</time>
      </trkpt>
      <trkpt lat="44.43579" lon="6.89934">
        <ele>2174</ele>
        <time>2022-05-23T14:36:45+02:00</time>
      </trkpt>
      <trkpt lat="44.43578" lon="6.89933">
        <ele>2173</ele>
        <time>2022-05-23T14:36:46+02:00</time>
      </trkpt>
      <trkpt lat="44.43569" lon="6.89927">
        <ele>2172</ele>
        <time>2022-05-23T14:36:53+02:00</time>
      </trkpt>
      <trkpt lat="44.43561" lon="6.89921">
        <ele>2170</ele>
        <time>2022-05-23T14:37:01+02:00</time>
      </trkpt>
      <trkpt lat="44.4356" lon="6.89921">
        <ele>2170</ele>
        <time>2022-05-23T14:37:02+02:00</time>
      </trkpt>
      <trkpt lat="44.43558" lon="6.89921">
        <ele>2170</ele>
        <time>2022-05-23T14:37:03+02:00</time>
      </trkpt>
      <trkpt lat="44.43557" lon="6.89921">
        <ele>2169</ele>
        <time>2022-05-23T14:37:04+02:00</time>
      </trkpt>
      <trkpt lat="44.43556" lon="6.89921">
        <ele>2169</ele>
        <time>2022-05-23T14:37:05+02:00</time>
      </trkpt>
      <trkpt lat="44.43555" lon="6.8992">
        <ele>2169</ele>
        <time>2022-05-23T14:37:06+02:00</time>
      </trkpt>
      <trkpt lat="44.43554" lon="6.8992">
        <ele>2169</ele>
        <time>2022-05-23T14:37:07+02:00</time>
      </trkpt>
      <trkpt lat="44.43553" lon="6.89919">
        <ele>2168</ele>
        <time>2022-05-23T14:37:08+02:00</time>
      </trkpt>
      <trkpt lat="44.43552" lon="6.89918">
        <ele>2168</ele>
        <time>2022-05-23T14:37:09+02:00</time>
      </trkpt>
      <trkpt lat="44.43551" lon="6.89917">
        <ele>2168</ele>
        <time>2022-05-23T14:37:10+02:00</time>
      </trkpt>
      <trkpt lat="44.4354" lon="6.89907">
        <ele>2166</ele>
        <time>2022-05-23T14:37:20+02:00</time>
      </trkpt>
      <trkpt lat="44.43539" lon="6.89906">
        <ele>2166</ele>
        <time>2022-05-23T14:37:21+02:00</time>
      </trkpt>
      <trkpt lat="44.43524" lon="6.89885">
        <ele>2163</ele>
        <time>2022-05-23T14:37:38+02:00</time>
      </trkpt>
      <trkpt lat="44.43514" lon="6.89869">
        <ele>2160</ele>
        <time>2022-05-23T14:37:51+02:00</time>
      </trkpt>
      <trkpt lat="44.4351" lon="6.89864">
        <ele>2159</ele>
        <time>2022-05-23T14:37:55+02:00</time>
      </trkpt>
      <trkpt lat="44.4351" lon="6.89862">
        <ele>2159</ele>
        <time>2022-05-23T14:37:56+02:00</time>
      </trkpt>
      <trkpt lat="44.43506" lon="6.89855">
        <ele>2158</ele>
        <time>2022-05-23T14:38:01+02:00</time>
      </trkpt>
      <trkpt lat="44.43498" lon="6.89846">
        <ele>2156</ele>
        <time>2022-05-23T14:38:10+02:00</time>
      </trkpt>
      <trkpt lat="44.43489" lon="6.89841">
        <ele>2154</ele>
        <time>2022-05-23T14:38:18+02:00</time>
      </trkpt>
      <trkpt lat="44.43468" lon="6.89826">
        <ele>2149</ele>
        <time>2022-05-23T14:38:36+02:00</time>
      </trkpt>
      <trkpt lat="44.43456" lon="6.89815">
        <ele>2147</ele>
        <time>2022-05-23T14:38:46+02:00</time>
      </trkpt>
      <trkpt lat="44.43453" lon="6.89812">
        <ele>2146</ele>
        <time>2022-05-23T14:38:49+02:00</time>
      </trkpt>
      <trkpt lat="44.43452" lon="6.89811">
        <ele>2146</ele>
        <time>2022-05-23T14:38:50+02:00</time>
      </trkpt>
      <trkpt lat="44.4345" lon="6.89811">
        <ele>2145</ele>
        <time>2022-05-23T14:38:51+02:00</time>
      </trkpt>
      <trkpt lat="44.43449" lon="6.8981">
        <ele>2145</ele>
        <time>2022-05-23T14:38:52+02:00</time>
      </trkpt>
      <trkpt lat="44.43448" lon="6.8981">
        <ele>2145</ele>
        <time>2022-05-23T14:38:53+02:00</time>
      </trkpt>
      <trkpt lat="44.43447" lon="6.89809">
        <ele>2144</ele>
        <time>2022-05-23T14:38:54+02:00</time>
      </trkpt>
      <trkpt lat="44.43446" lon="6.89808">
        <ele>2144</ele>
        <time>2022-05-23T14:38:55+02:00</time>
      </trkpt>
      <trkpt lat="44.43435" lon="6.89802">
        <ele>2140</ele>
        <time>2022-05-23T14:39:10+02:00</time>
      </trkpt>
      <trkpt lat="44.43432" lon="6.89799">
        <ele>2139</ele>
        <time>2022-05-23T14:39:17+02:00</time>
      </trkpt>
      <trkpt lat="44.43431" lon="6.89797">
        <ele>2139</ele>
        <time>2022-05-23T14:39:18+02:00</time>
      </trkpt>
      <trkpt lat="44.4343" lon="6.89793">
        <ele>2139</ele>
        <time>2022-05-23T14:39:21+02:00</time>
      </trkpt>
      <trkpt lat="44.4343" lon="6.89791">
        <ele>2139</ele>
        <time>2022-05-23T14:39:22+02:00</time>
      </trkpt>
      <trkpt lat="44.43429" lon="6.8979">
        <ele>2139</ele>
        <time>2022-05-23T14:39:23+02:00</time>
      </trkpt>
      <trkpt lat="44.43429" lon="6.89788">
        <ele>2139</ele>
        <time>2022-05-23T14:39:24+02:00</time>
      </trkpt>
      <trkpt lat="44.43429" lon="6.89786">
        <ele>2139</ele>
        <time>2022-05-23T14:39:25+02:00</time>
      </trkpt>
      <trkpt lat="44.43428" lon="6.89785">
        <ele>2139</ele>
        <time>2022-05-23T14:39:26+02:00</time>
      </trkpt>
      <trkpt lat="44.43428" lon="6.89784">
        <ele>2139</ele>
        <time>2022-05-23T14:39:27+02:00</time>
      </trkpt>
      <trkpt lat="44.43423" lon="6.89775">
        <ele>2138</ele>
        <time>2022-05-23T14:39:35+02:00</time>
      </trkpt>
      <trkpt lat="44.43422" lon="6.8977">
        <ele>2138</ele>
        <time>2022-05-23T14:39:38+02:00</time>
      </trkpt>
      <trkpt lat="44.43415" lon="6.89763">
        <ele>2136</ele>
        <time>2022-05-23T14:39:45+02:00</time>
      </trkpt>
      <trkpt lat="44.43414" lon="6.89762">
        <ele>2135</ele>
        <time>2022-05-23T14:39:46+02:00</time>
      </trkpt>
      <trkpt lat="44.43413" lon="6.89761">
        <ele>2135</ele>
        <time>2022-05-23T14:39:47+02:00</time>
      </trkpt>
      <trkpt lat="44.43412" lon="6.8976">
        <ele>2134</ele>
        <time>2022-05-23T14:39:48+02:00</time>
      </trkpt>
      <trkpt lat="44.43411" lon="6.89759">
        <ele>2133</ele>
        <time>2022-05-23T14:39:49+02:00</time>
      </trkpt>
      <trkpt lat="44.4341" lon="6.89758">
        <ele>2133</ele>
        <time>2022-05-23T14:39:50+02:00</time>
      </trkpt>
      <trkpt lat="44.43409" lon="6.89756">
        <ele>2133</ele>
        <time>2022-05-23T14:39:51+02:00</time>
      </trkpt>
      <trkpt lat="44.43409" lon="6.89754">
        <ele>2132</ele>
        <time>2022-05-23T14:39:52+02:00</time>
      </trkpt>
      <trkpt lat="44.43407" lon="6.89751">
        <ele>2131</ele>
        <time>2022-05-23T14:39:55+02:00</time>
      </trkpt>
      <trkpt lat="44.43402" lon="6.8974">
        <ele>2128</ele>
        <time>2022-05-23T14:40:05+02:00</time>
      </trkpt>
      <trkpt lat="44.43401" lon="6.89739">
        <ele>2128</ele>
        <time>2022-05-23T14:40:06+02:00</time>
      </trkpt>
      <trkpt lat="44.434" lon="6.89734">
        <ele>2127</ele>
        <time>2022-05-23T14:40:10+02:00</time>
      </trkpt>
      <trkpt lat="44.434" lon="6.89732">
        <ele>2127</ele>
        <time>2022-05-23T14:40:11+02:00</time>
      </trkpt>
      <trkpt lat="44.434" lon="6.89731">
        <ele>2127</ele>
        <time>2022-05-23T14:40:12+02:00</time>
      </trkpt>
      <trkpt lat="44.43399" lon="6.8973">
        <ele>2127</ele>
        <time>2022-05-23T14:40:13+02:00</time>
      </trkpt>
      <trkpt lat="44.43399" lon="6.89728">
        <ele>2127</ele>
        <time>2022-05-23T14:40:14+02:00</time>
      </trkpt>
      <trkpt lat="44.43399" lon="6.89727">
        <ele>2127</ele>
        <time>2022-05-23T14:40:15+02:00</time>
      </trkpt>
      <trkpt lat="44.43398" lon="6.89725">
        <ele>2127</ele>
        <time>2022-05-23T14:40:16+02:00</time>
      </trkpt>
      <trkpt lat="44.43398" lon="6.89724">
        <ele>2126</ele>
        <time>2022-05-23T14:40:17+02:00</time>
      </trkpt>
      <trkpt lat="44.43397" lon="6.89723">
        <ele>2126</ele>
        <time>2022-05-23T14:40:18+02:00</time>
      </trkpt>
      <trkpt lat="44.43396" lon="6.89722">
        <ele>2126</ele>
        <time>2022-05-23T14:40:19+02:00</time>
      </trkpt>
      <trkpt lat="44.43395" lon="6.89721">
        <ele>2125</ele>
        <time>2022-05-23T14:40:20+02:00</time>
      </trkpt>
      <trkpt lat="44.43394" lon="6.8972">
        <ele>2124</ele>
        <time>2022-05-23T14:40:21+02:00</time>
      </trkpt>
      <trkpt lat="44.43383" lon="6.89697">
        <ele>2123</ele>
        <time>2022-05-23T14:40:32+02:00</time>
      </trkpt>
      <trkpt lat="44.43382" lon="6.89695">
        <ele>2123</ele>
        <time>2022-05-23T14:40:33+02:00</time>
      </trkpt>
      <trkpt lat="44.43368" lon="6.89673">
        <ele>2118</ele>
        <time>2022-05-23T14:40:43+02:00</time>
      </trkpt>
      <trkpt lat="44.43356" lon="6.89664">
        <ele>2113</ele>
        <time>2022-05-23T14:40:50+02:00</time>
      </trkpt>
      <trkpt lat="44.43349" lon="6.89656">
        <ele>2111</ele>
        <time>2022-05-23T14:40:59+02:00</time>
      </trkpt>
      <trkpt lat="44.43342" lon="6.89651">
        <ele>2108</ele>
        <time>2022-05-23T14:41:06+02:00</time>
      </trkpt>
      <trkpt lat="44.43341" lon="6.89651">
        <ele>2108</ele>
        <time>2022-05-23T14:41:07+02:00</time>
      </trkpt>
      <trkpt lat="44.43339" lon="6.8965">
        <ele>2107</ele>
        <time>2022-05-23T14:41:08+02:00</time>
      </trkpt>
      <trkpt lat="44.43331" lon="6.89646">
        <ele>2104</ele>
        <time>2022-05-23T14:41:19+02:00</time>
      </trkpt>
      <trkpt lat="44.4333" lon="6.89647">
        <ele>2103</ele>
        <time>2022-05-23T14:41:25+02:00</time>
      </trkpt>
      <trkpt lat="44.43329" lon="6.89648">
        <ele>2103</ele>
        <time>2022-05-23T14:41:45+02:00</time>
      </trkpt>
      <trkpt lat="44.43329" lon="6.89647">
        <ele>2103</ele>
        <time>2022-05-23T14:41:46+02:00</time>
      </trkpt>
      <trkpt lat="44.43329" lon="6.89644">
        <ele>2104</ele>
        <time>2022-05-23T14:41:48+02:00</time>
      </trkpt>
      <trkpt lat="44.43329" lon="6.89643">
        <ele>2104</ele>
        <time>2022-05-23T14:41:49+02:00</time>
      </trkpt>
      <trkpt lat="44.43327" lon="6.89641">
        <ele>2104</ele>
        <time>2022-05-23T14:41:51+02:00</time>
      </trkpt>
      <trkpt lat="44.43324" lon="6.89636">
        <ele>2103</ele>
        <time>2022-05-23T14:41:55+02:00</time>
      </trkpt>
      <trkpt lat="44.43324" lon="6.89635">
        <ele>2103</ele>
        <time>2022-05-23T14:41:56+02:00</time>
      </trkpt>
      <trkpt lat="44.43325" lon="6.89634">
        <ele>2103</ele>
        <time>2022-05-23T14:41:57+02:00</time>
      </trkpt>
      <trkpt lat="44.43325" lon="6.89632">
        <ele>2103</ele>
        <time>2022-05-23T14:41:59+02:00</time>
      </trkpt>
      <trkpt lat="44.43325" lon="6.8963">
        <ele>2102</ele>
        <time>2022-05-23T14:42:01+02:00</time>
      </trkpt>
      <trkpt lat="44.43325" lon="6.89619">
        <ele>2102</ele>
        <time>2022-05-23T14:42:13+02:00</time>
      </trkpt>
      <trkpt lat="44.43325" lon="6.89617">
        <ele>2102</ele>
        <time>2022-05-23T14:42:15+02:00</time>
      </trkpt>
      <trkpt lat="44.43326" lon="6.8961">
        <ele>2102</ele>
        <time>2022-05-23T14:42:21+02:00</time>
      </trkpt>
      <trkpt lat="44.43325" lon="6.8961">
        <ele>2102</ele>
        <time>2022-05-23T14:42:22+02:00</time>
      </trkpt>
      <trkpt lat="44.43322" lon="6.896">
        <ele>2100</ele>
        <time>2022-05-23T14:42:32+02:00</time>
      </trkpt>
      <trkpt lat="44.43322" lon="6.89596">
        <ele>2100</ele>
        <time>2022-05-23T14:42:35+02:00</time>
      </trkpt>
      <trkpt lat="44.43322" lon="6.89594">
        <ele>2100</ele>
        <time>2022-05-23T14:42:36+02:00</time>
      </trkpt>
      <trkpt lat="44.43321" lon="6.89576">
        <ele>2101</ele>
        <time>2022-05-23T14:42:48+02:00</time>
      </trkpt>
      <trkpt lat="44.4332" lon="6.89576">
        <ele>2101</ele>
        <time>2022-05-23T14:42:49+02:00</time>
      </trkpt>
      <trkpt lat="44.43312" lon="6.89569">
        <ele>2100</ele>
        <time>2022-05-23T14:42:55+02:00</time>
      </trkpt>
      <trkpt lat="44.43304" lon="6.89562">
        <ele>2099</ele>
        <time>2022-05-23T14:43:03+02:00</time>
      </trkpt>
      <trkpt lat="44.43304" lon="6.89562">
        <ele>2098</ele>
        <time>2022-05-23T14:43:04+02:00</time>
      </trkpt>
      <trkpt lat="44.43303" lon="6.89561">
        <ele>2098</ele>
        <time>2022-05-23T14:43:05+02:00</time>
      </trkpt>
      <trkpt lat="44.43302" lon="6.89561">
        <ele>2098</ele>
        <time>2022-05-23T14:43:06+02:00</time>
      </trkpt>
      <trkpt lat="44.433" lon="6.8956">
        <ele>2098</ele>
        <time>2022-05-23T14:43:07+02:00</time>
      </trkpt>
      <trkpt lat="44.43299" lon="6.8956">
        <ele>2097</ele>
        <time>2022-05-23T14:43:08+02:00</time>
      </trkpt>
      <trkpt lat="44.43298" lon="6.8956">
        <ele>2097</ele>
        <time>2022-05-23T14:43:09+02:00</time>
      </trkpt>
      <trkpt lat="44.43297" lon="6.8956">
        <ele>2096</ele>
        <time>2022-05-23T14:43:10+02:00</time>
      </trkpt>
      <trkpt lat="44.43296" lon="6.8956">
        <ele>2096</ele>
        <time>2022-05-23T14:43:11+02:00</time>
      </trkpt>
      <trkpt lat="44.43293" lon="6.89562">
        <ele>2095</ele>
        <time>2022-05-23T14:43:14+02:00</time>
      </trkpt>
      <trkpt lat="44.43292" lon="6.89562">
        <ele>2094</ele>
        <time>2022-05-23T14:43:15+02:00</time>
      </trkpt>
      <trkpt lat="44.4329" lon="6.89563">
        <ele>2094</ele>
        <time>2022-05-23T14:43:16+02:00</time>
      </trkpt>
      <trkpt lat="44.43289" lon="6.89564">
        <ele>2094</ele>
        <time>2022-05-23T14:43:17+02:00</time>
      </trkpt>
      <trkpt lat="44.43288" lon="6.89564">
        <ele>2093</ele>
        <time>2022-05-23T14:43:18+02:00</time>
      </trkpt>
      <trkpt lat="44.43287" lon="6.89564">
        <ele>2093</ele>
        <time>2022-05-23T14:43:19+02:00</time>
      </trkpt>
      <trkpt lat="44.43285" lon="6.89563">
        <ele>2092</ele>
        <time>2022-05-23T14:43:20+02:00</time>
      </trkpt>
      <trkpt lat="44.43284" lon="6.89563">
        <ele>2092</ele>
        <time>2022-05-23T14:43:21+02:00</time>
      </trkpt>
      <trkpt lat="44.43283" lon="6.89563">
        <ele>2092</ele>
        <time>2022-05-23T14:43:22+02:00</time>
      </trkpt>
      <trkpt lat="44.43281" lon="6.89562">
        <ele>2091</ele>
        <time>2022-05-23T14:43:23+02:00</time>
      </trkpt>
      <trkpt lat="44.4328" lon="6.89561">
        <ele>2091</ele>
        <time>2022-05-23T14:43:24+02:00</time>
      </trkpt>
      <trkpt lat="44.43278" lon="6.89561">
        <ele>2090</ele>
        <time>2022-05-23T14:43:25+02:00</time>
      </trkpt>
      <trkpt lat="44.43276" lon="6.8956">
        <ele>2089</ele>
        <time>2022-05-23T14:43:27+02:00</time>
      </trkpt>
      <trkpt lat="44.43275" lon="6.89559">
        <ele>2089</ele>
        <time>2022-05-23T14:43:28+02:00</time>
      </trkpt>
      <trkpt lat="44.43272" lon="6.89555">
        <ele>2088</ele>
        <time>2022-05-23T14:43:32+02:00</time>
      </trkpt>
      <trkpt lat="44.43271" lon="6.89555">
        <ele>2087</ele>
        <time>2022-05-23T14:43:33+02:00</time>
      </trkpt>
      <trkpt lat="44.43269" lon="6.89554">
        <ele>2087</ele>
        <time>2022-05-23T14:43:35+02:00</time>
      </trkpt>
      <trkpt lat="44.43266" lon="6.8955">
        <ele>2087</ele>
        <time>2022-05-23T14:43:40+02:00</time>
      </trkpt>
      <trkpt lat="44.43265" lon="6.8955">
        <ele>2086</ele>
        <time>2022-05-23T14:43:41+02:00</time>
      </trkpt>
      <trkpt lat="44.43261" lon="6.89547">
        <ele>2086</ele>
        <time>2022-05-23T14:43:45+02:00</time>
      </trkpt>
      <trkpt lat="44.43259" lon="6.89546">
        <ele>2085</ele>
        <time>2022-05-23T14:43:47+02:00</time>
      </trkpt>
      <trkpt lat="44.43257" lon="6.89547">
        <ele>2084</ele>
        <time>2022-05-23T14:43:49+02:00</time>
      </trkpt>
      <trkpt lat="44.43254" lon="6.89551">
        <ele>2081</ele>
        <time>2022-05-23T14:43:54+02:00</time>
      </trkpt>
      <trkpt lat="44.43252" lon="6.89553">
        <ele>2080</ele>
        <time>2022-05-23T14:43:57+02:00</time>
      </trkpt>
      <trkpt lat="44.43251" lon="6.89553">
        <ele>2079</ele>
        <time>2022-05-23T14:43:58+02:00</time>
      </trkpt>
      <trkpt lat="44.4325" lon="6.89553">
        <ele>2079</ele>
        <time>2022-05-23T14:43:59+02:00</time>
      </trkpt>
      <trkpt lat="44.43248" lon="6.89552">
        <ele>2078</ele>
        <time>2022-05-23T14:44:01+02:00</time>
      </trkpt>
      <trkpt lat="44.43244" lon="6.89551">
        <ele>2078</ele>
        <time>2022-05-23T14:44:05+02:00</time>
      </trkpt>
      <trkpt lat="44.43243" lon="6.89551">
        <ele>2077</ele>
        <time>2022-05-23T14:44:06+02:00</time>
      </trkpt>
      <trkpt lat="44.43236" lon="6.89549">
        <ele>2076</ele>
        <time>2022-05-23T14:44:15+02:00</time>
      </trkpt>
      <trkpt lat="44.43235" lon="6.89549">
        <ele>2076</ele>
        <time>2022-05-23T14:44:16+02:00</time>
      </trkpt>
      <trkpt lat="44.4323" lon="6.89547">
        <ele>2075</ele>
        <time>2022-05-23T14:44:23+02:00</time>
      </trkpt>
      <trkpt lat="44.4323" lon="6.89547">
        <ele>2075</ele>
        <time>2022-05-23T14:44:24+02:00</time>
      </trkpt>
      <trkpt lat="44.43227" lon="6.89545">
        <ele>2075</ele>
        <time>2022-05-23T14:44:27+02:00</time>
      </trkpt>
      <trkpt lat="44.43221" lon="6.89544">
        <ele>2073</ele>
        <time>2022-05-23T14:44:34+02:00</time>
      </trkpt>
      <trkpt lat="44.43216" lon="6.89545">
        <ele>2072</ele>
        <time>2022-05-23T14:44:38+02:00</time>
      </trkpt>
      <trkpt lat="44.43197" lon="6.89534">
        <ele>2072</ele>
        <time>2022-05-23T14:44:54+02:00</time>
      </trkpt>
      <trkpt lat="44.43175" lon="6.8954">
        <ele>2067</ele>
        <time>2022-05-23T14:45:10+02:00</time>
      </trkpt>
      <trkpt lat="44.43157" lon="6.89552">
        <ele>2060</ele>
        <time>2022-05-23T14:45:26+02:00</time>
      </trkpt>
      <trkpt lat="44.43156" lon="6.89552">
        <ele>2060</ele>
        <time>2022-05-23T14:45:27+02:00</time>
      </trkpt>
      <trkpt lat="44.43147" lon="6.89552">
        <ele>2056</ele>
        <time>2022-05-23T14:45:37+02:00</time>
      </trkpt>
      <trkpt lat="44.43137" lon="6.89554">
        <ele>2052</ele>
        <time>2022-05-23T14:45:52+02:00</time>
      </trkpt>
      <trkpt lat="44.4314" lon="6.89554">
        <ele>2053</ele>
        <time>2022-05-23T14:46:19+02:00</time>
      </trkpt>
      <trkpt lat="44.43139" lon="6.89554">
        <ele>2052</ele>
        <time>2022-05-23T14:46:25+02:00</time>
      </trkpt>
      <trkpt lat="44.43138" lon="6.89554">
        <ele>2052</ele>
        <time>2022-05-23T14:46:37+02:00</time>
      </trkpt>
      <trkpt lat="44.43138" lon="6.89554">
        <ele>2052</ele>
        <time>2022-05-23T14:46:39+02:00</time>
      </trkpt>
      <trkpt lat="44.43138" lon="6.89551">
        <ele>2052</ele>
        <time>2022-05-23T14:46:42+02:00</time>
      </trkpt>
      <trkpt lat="44.43135" lon="6.89549">
        <ele>2051</ele>
        <time>2022-05-23T14:46:44+02:00</time>
      </trkpt>
      <trkpt lat="44.43135" lon="6.89547">
        <ele>2051</ele>
        <time>2022-05-23T14:46:45+02:00</time>
      </trkpt>
      <trkpt lat="44.4313" lon="6.89537">
        <ele>2050</ele>
        <time>2022-05-23T14:46:53+02:00</time>
      </trkpt>
      <trkpt lat="44.43129" lon="6.89536">
        <ele>2050</ele>
        <time>2022-05-23T14:46:54+02:00</time>
      </trkpt>
      <trkpt lat="44.43128" lon="6.89534">
        <ele>2049</ele>
        <time>2022-05-23T14:46:55+02:00</time>
      </trkpt>
      <trkpt lat="44.43127" lon="6.89532">
        <ele>2049</ele>
        <time>2022-05-23T14:46:56+02:00</time>
      </trkpt>
      <trkpt lat="44.43127" lon="6.89531">
        <ele>2049</ele>
        <time>2022-05-23T14:46:57+02:00</time>
      </trkpt>
      <trkpt lat="44.43126" lon="6.89529">
        <ele>2049</ele>
        <time>2022-05-23T14:46:58+02:00</time>
      </trkpt>
      <trkpt lat="44.43125" lon="6.89528">
        <ele>2049</ele>
        <time>2022-05-23T14:46:59+02:00</time>
      </trkpt>
      <trkpt lat="44.43124" lon="6.89527">
        <ele>2048</ele>
        <time>2022-05-23T14:47:00+02:00</time>
      </trkpt>
      <trkpt lat="44.43123" lon="6.89526">
        <ele>2048</ele>
        <time>2022-05-23T14:47:01+02:00</time>
      </trkpt>
      <trkpt lat="44.43122" lon="6.89525">
        <ele>2048</ele>
        <time>2022-05-23T14:47:02+02:00</time>
      </trkpt>
      <trkpt lat="44.43121" lon="6.89523">
        <ele>2047</ele>
        <time>2022-05-23T14:47:03+02:00</time>
      </trkpt>
      <trkpt lat="44.4312" lon="6.89522">
        <ele>2047</ele>
        <time>2022-05-23T14:47:04+02:00</time>
      </trkpt>
      <trkpt lat="44.4312" lon="6.89521">
        <ele>2047</ele>
        <time>2022-05-23T14:47:05+02:00</time>
      </trkpt>
      <trkpt lat="44.43118" lon="6.8952">
        <ele>2047</ele>
        <time>2022-05-23T14:47:06+02:00</time>
      </trkpt>
      <trkpt lat="44.43117" lon="6.8952">
        <ele>2046</ele>
        <time>2022-05-23T14:47:07+02:00</time>
      </trkpt>
      <trkpt lat="44.43116" lon="6.89521">
        <ele>2046</ele>
        <time>2022-05-23T14:47:08+02:00</time>
      </trkpt>
      <trkpt lat="44.43116" lon="6.89522">
        <ele>2045</ele>
        <time>2022-05-23T14:47:09+02:00</time>
      </trkpt>
      <trkpt lat="44.43116" lon="6.89524">
        <ele>2045</ele>
        <time>2022-05-23T14:47:10+02:00</time>
      </trkpt>
      <trkpt lat="44.43116" lon="6.89526">
        <ele>2045</ele>
        <time>2022-05-23T14:47:11+02:00</time>
      </trkpt>
      <trkpt lat="44.43116" lon="6.89527">
        <ele>2044</ele>
        <time>2022-05-23T14:47:12+02:00</time>
      </trkpt>
      <trkpt lat="44.43115" lon="6.89528">
        <ele>2044</ele>
        <time>2022-05-23T14:47:13+02:00</time>
      </trkpt>
      <trkpt lat="44.43113" lon="6.89528">
        <ele>2043</ele>
        <time>2022-05-23T14:47:14+02:00</time>
      </trkpt>
      <trkpt lat="44.43112" lon="6.89527">
        <ele>2043</ele>
        <time>2022-05-23T14:47:15+02:00</time>
      </trkpt>
      <trkpt lat="44.43112" lon="6.89525">
        <ele>2043</ele>
        <time>2022-05-23T14:47:16+02:00</time>
      </trkpt>
      <trkpt lat="44.43111" lon="6.89524">
        <ele>2043</ele>
        <time>2022-05-23T14:47:17+02:00</time>
      </trkpt>
      <trkpt lat="44.4311" lon="6.89522">
        <ele>2043</ele>
        <time>2022-05-23T14:47:18+02:00</time>
      </trkpt>
      <trkpt lat="44.43109" lon="6.89521">
        <ele>2043</ele>
        <time>2022-05-23T14:47:19+02:00</time>
      </trkpt>
      <trkpt lat="44.43108" lon="6.8952">
        <ele>2042</ele>
        <time>2022-05-23T14:47:20+02:00</time>
      </trkpt>
      <trkpt lat="44.43106" lon="6.8952">
        <ele>2042</ele>
        <time>2022-05-23T14:47:21+02:00</time>
      </trkpt>
      <trkpt lat="44.43103" lon="6.89518">
        <ele>2041</ele>
        <time>2022-05-23T14:47:23+02:00</time>
      </trkpt>
      <trkpt lat="44.43097" lon="6.89515">
        <ele>2040</ele>
        <time>2022-05-23T14:47:26+02:00</time>
      </trkpt>
      <trkpt lat="44.43096" lon="6.89514">
        <ele>2040</ele>
        <time>2022-05-23T14:47:27+02:00</time>
      </trkpt>
      <trkpt lat="44.43093" lon="6.89512">
        <ele>2039</ele>
        <time>2022-05-23T14:47:29+02:00</time>
      </trkpt>
      <trkpt lat="44.43089" lon="6.8951">
        <ele>2039</ele>
        <time>2022-05-23T14:47:31+02:00</time>
      </trkpt>
      <trkpt lat="44.43088" lon="6.89509">
        <ele>2038</ele>
        <time>2022-05-23T14:47:32+02:00</time>
      </trkpt>
      <trkpt lat="44.43082" lon="6.89506">
        <ele>2037</ele>
        <time>2022-05-23T14:47:35+02:00</time>
      </trkpt>
      <trkpt lat="44.43081" lon="6.89505">
        <ele>2037</ele>
        <time>2022-05-23T14:47:36+02:00</time>
      </trkpt>
      <trkpt lat="44.43076" lon="6.89504">
        <ele>2035</ele>
        <time>2022-05-23T14:47:39+02:00</time>
      </trkpt>
      <trkpt lat="44.43066" lon="6.89495">
        <ele>2033</ele>
        <time>2022-05-23T14:47:48+02:00</time>
      </trkpt>
      <trkpt lat="44.43059" lon="6.89493">
        <ele>2031</ele>
        <time>2022-05-23T14:47:53+02:00</time>
      </trkpt>
      <trkpt lat="44.43057" lon="6.89493">
        <ele>2030</ele>
        <time>2022-05-23T14:47:56+02:00</time>
      </trkpt>
      <trkpt lat="44.43055" lon="6.89493">
        <ele>2030</ele>
        <time>2022-05-23T14:47:57+02:00</time>
      </trkpt>
      <trkpt lat="44.43053" lon="6.89493">
        <ele>2029</ele>
        <time>2022-05-23T14:47:59+02:00</time>
      </trkpt>
      <trkpt lat="44.43051" lon="6.89493">
        <ele>2028</ele>
        <time>2022-05-23T14:48:01+02:00</time>
      </trkpt>
      <trkpt lat="44.43047" lon="6.89491">
        <ele>2027</ele>
        <time>2022-05-23T14:48:04+02:00</time>
      </trkpt>
      <trkpt lat="44.43045" lon="6.89491">
        <ele>2026</ele>
        <time>2022-05-23T14:48:06+02:00</time>
      </trkpt>
      <trkpt lat="44.4304" lon="6.89493">
        <ele>2024</ele>
        <time>2022-05-23T14:48:11+02:00</time>
      </trkpt>
      <trkpt lat="44.43034" lon="6.89492">
        <ele>2021</ele>
        <time>2022-05-23T14:48:16+02:00</time>
      </trkpt>
      <trkpt lat="44.43032" lon="6.89491">
        <ele>2020</ele>
        <time>2022-05-23T14:48:18+02:00</time>
      </trkpt>
      <trkpt lat="44.4303" lon="6.89491">
        <ele>2020</ele>
        <time>2022-05-23T14:48:19+02:00</time>
      </trkpt>
      <trkpt lat="44.43027" lon="6.8949">
        <ele>2019</ele>
        <time>2022-05-23T14:48:22+02:00</time>
      </trkpt>
      <trkpt lat="44.43024" lon="6.89492">
        <ele>2018</ele>
        <time>2022-05-23T14:48:26+02:00</time>
      </trkpt>
      <trkpt lat="44.43023" lon="6.89492">
        <ele>2017</ele>
        <time>2022-05-23T14:48:27+02:00</time>
      </trkpt>
      <trkpt lat="44.4302" lon="6.89495">
        <ele>2016</ele>
        <time>2022-05-23T14:48:30+02:00</time>
      </trkpt>
      <trkpt lat="44.43018" lon="6.89496">
        <ele>2016</ele>
        <time>2022-05-23T14:48:32+02:00</time>
      </trkpt>
      <trkpt lat="44.43017" lon="6.89496">
        <ele>2015</ele>
        <time>2022-05-23T14:48:33+02:00</time>
      </trkpt>
      <trkpt lat="44.43014" lon="6.89495">
        <ele>2015</ele>
        <time>2022-05-23T14:48:35+02:00</time>
      </trkpt>
      <trkpt lat="44.43012" lon="6.89494">
        <ele>2014</ele>
        <time>2022-05-23T14:48:37+02:00</time>
      </trkpt>
      <trkpt lat="44.43011" lon="6.89493">
        <ele>2014</ele>
        <time>2022-05-23T14:48:38+02:00</time>
      </trkpt>
      <trkpt lat="44.43007" lon="6.89495">
        <ele>2013</ele>
        <time>2022-05-23T14:48:41+02:00</time>
      </trkpt>
      <trkpt lat="44.43005" lon="6.89496">
        <ele>2012</ele>
        <time>2022-05-23T14:48:43+02:00</time>
      </trkpt>
      <trkpt lat="44.43001" lon="6.89494">
        <ele>2011</ele>
        <time>2022-05-23T14:48:45+02:00</time>
      </trkpt>
      <trkpt lat="44.43" lon="6.89493">
        <ele>2011</ele>
        <time>2022-05-23T14:48:46+02:00</time>
      </trkpt>
      <trkpt lat="44.42997" lon="6.89491">
        <ele>2010</ele>
        <time>2022-05-23T14:48:48+02:00</time>
      </trkpt>
      <trkpt lat="44.4299" lon="6.89482">
        <ele>2008</ele>
        <time>2022-05-23T14:48:54+02:00</time>
      </trkpt>
      <trkpt lat="44.42981" lon="6.89475">
        <ele>2005</ele>
        <time>2022-05-23T14:48:59+02:00</time>
      </trkpt>
      <trkpt lat="44.4298" lon="6.89474">
        <ele>2005</ele>
        <time>2022-05-23T14:49:00+02:00</time>
      </trkpt>
      <trkpt lat="44.42978" lon="6.89473">
        <ele>2004</ele>
        <time>2022-05-23T14:49:01+02:00</time>
      </trkpt>
      <trkpt lat="44.42977" lon="6.89472">
        <ele>2004</ele>
        <time>2022-05-23T14:49:02+02:00</time>
      </trkpt>
      <trkpt lat="44.42976" lon="6.8947">
        <ele>2003</ele>
        <time>2022-05-23T14:49:03+02:00</time>
      </trkpt>
      <trkpt lat="44.42968" lon="6.89465">
        <ele>2001</ele>
        <time>2022-05-23T14:49:09+02:00</time>
      </trkpt>
      <trkpt lat="44.42965" lon="6.89465">
        <ele>2000</ele>
        <time>2022-05-23T14:49:11+02:00</time>
      </trkpt>
      <trkpt lat="44.42964" lon="6.89465">
        <ele>1999</ele>
        <time>2022-05-23T14:49:12+02:00</time>
      </trkpt>
      <trkpt lat="44.42962" lon="6.89464">
        <ele>1999</ele>
        <time>2022-05-23T14:49:13+02:00</time>
      </trkpt>
      <trkpt lat="44.42961" lon="6.89462">
        <ele>1999</ele>
        <time>2022-05-23T14:49:15+02:00</time>
      </trkpt>
      <trkpt lat="44.4296" lon="6.89461">
        <ele>1999</ele>
        <time>2022-05-23T14:49:16+02:00</time>
      </trkpt>
      <trkpt lat="44.4296" lon="6.89459">
        <ele>1998</ele>
        <time>2022-05-23T14:49:17+02:00</time>
      </trkpt>
      <trkpt lat="44.42959" lon="6.89458">
        <ele>1998</ele>
        <time>2022-05-23T14:49:18+02:00</time>
      </trkpt>
      <trkpt lat="44.42958" lon="6.89457">
        <ele>1998</ele>
        <time>2022-05-23T14:49:19+02:00</time>
      </trkpt>
      <trkpt lat="44.42953" lon="6.89448">
        <ele>1997</ele>
        <time>2022-05-23T14:49:25+02:00</time>
      </trkpt>
      <trkpt lat="44.42947" lon="6.89439">
        <ele>1995</ele>
        <time>2022-05-23T14:49:31+02:00</time>
      </trkpt>
      <trkpt lat="44.42944" lon="6.89431">
        <ele>1994</ele>
        <time>2022-05-23T14:49:36+02:00</time>
      </trkpt>
      <trkpt lat="44.42943" lon="6.8943">
        <ele>1993</ele>
        <time>2022-05-23T14:49:37+02:00</time>
      </trkpt>
      <trkpt lat="44.42942" lon="6.89429">
        <ele>1993</ele>
        <time>2022-05-23T14:49:38+02:00</time>
      </trkpt>
      <trkpt lat="44.42941" lon="6.89428">
        <ele>1993</ele>
        <time>2022-05-23T14:49:39+02:00</time>
      </trkpt>
      <trkpt lat="44.42939" lon="6.89426">
        <ele>1992</ele>
        <time>2022-05-23T14:49:40+02:00</time>
      </trkpt>
      <trkpt lat="44.42938" lon="6.89426">
        <ele>1992</ele>
        <time>2022-05-23T14:49:41+02:00</time>
      </trkpt>
      <trkpt lat="44.42937" lon="6.89425">
        <ele>1992</ele>
        <time>2022-05-23T14:49:42+02:00</time>
      </trkpt>
      <trkpt lat="44.42922" lon="6.89417">
        <ele>1988</ele>
        <time>2022-05-23T14:49:54+02:00</time>
      </trkpt>
      <trkpt lat="44.42921" lon="6.89417">
        <ele>1987</ele>
        <time>2022-05-23T14:49:55+02:00</time>
      </trkpt>
      <trkpt lat="44.4292" lon="6.89416">
        <ele>1987</ele>
        <time>2022-05-23T14:49:56+02:00</time>
      </trkpt>
      <trkpt lat="44.42919" lon="6.89415">
        <ele>1986</ele>
        <time>2022-05-23T14:49:57+02:00</time>
      </trkpt>
      <trkpt lat="44.42918" lon="6.89413">
        <ele>1986</ele>
        <time>2022-05-23T14:49:58+02:00</time>
      </trkpt>
      <trkpt lat="44.42917" lon="6.89412">
        <ele>1986</ele>
        <time>2022-05-23T14:49:59+02:00</time>
      </trkpt>
      <trkpt lat="44.42916" lon="6.8941">
        <ele>1986</ele>
        <time>2022-05-23T14:50:00+02:00</time>
      </trkpt>
      <trkpt lat="44.42914" lon="6.89407">
        <ele>1985</ele>
        <time>2022-05-23T14:50:02+02:00</time>
      </trkpt>
      <trkpt lat="44.42913" lon="6.89406">
        <ele>1985</ele>
        <time>2022-05-23T14:50:03+02:00</time>
      </trkpt>
      <trkpt lat="44.42912" lon="6.89405">
        <ele>1985</ele>
        <time>2022-05-23T14:50:04+02:00</time>
      </trkpt>
      <trkpt lat="44.42912" lon="6.89403">
        <ele>1984</ele>
        <time>2022-05-23T14:50:05+02:00</time>
      </trkpt>
      <trkpt lat="44.42911" lon="6.89401">
        <ele>1984</ele>
        <time>2022-05-23T14:50:06+02:00</time>
      </trkpt>
      <trkpt lat="44.42911" lon="6.894">
        <ele>1984</ele>
        <time>2022-05-23T14:50:07+02:00</time>
      </trkpt>
      <trkpt lat="44.4291" lon="6.89398">
        <ele>1984</ele>
        <time>2022-05-23T14:50:08+02:00</time>
      </trkpt>
      <trkpt lat="44.4291" lon="6.89397">
        <ele>1984</ele>
        <time>2022-05-23T14:50:09+02:00</time>
      </trkpt>
      <trkpt lat="44.42909" lon="6.89395">
        <ele>1984</ele>
        <time>2022-05-23T14:50:10+02:00</time>
      </trkpt>
      <trkpt lat="44.42908" lon="6.89393">
        <ele>1984</ele>
        <time>2022-05-23T14:50:11+02:00</time>
      </trkpt>
      <trkpt lat="44.42907" lon="6.89392">
        <ele>1983</ele>
        <time>2022-05-23T14:50:12+02:00</time>
      </trkpt>
      <trkpt lat="44.42901" lon="6.89385">
        <ele>1982</ele>
        <time>2022-05-23T14:50:18+02:00</time>
      </trkpt>
      <trkpt lat="44.42893" lon="6.89367">
        <ele>1979</ele>
        <time>2022-05-23T14:50:30+02:00</time>
      </trkpt>
      <trkpt lat="44.42884" lon="6.89353">
        <ele>1977</ele>
        <time>2022-05-23T14:50:42+02:00</time>
      </trkpt>
      <trkpt lat="44.42869" lon="6.89335">
        <ele>1974</ele>
        <time>2022-05-23T14:50:57+02:00</time>
      </trkpt>
      <trkpt lat="44.42863" lon="6.89326">
        <ele>1974</ele>
        <time>2022-05-23T14:51:04+02:00</time>
      </trkpt>
      <trkpt lat="44.4285" lon="6.89295">
        <ele>1972</ele>
        <time>2022-05-23T14:51:23+02:00</time>
      </trkpt>
      <trkpt lat="44.42829" lon="6.89276">
        <ele>1969</ele>
        <time>2022-05-23T14:51:40+02:00</time>
      </trkpt>
      <trkpt lat="44.42823" lon="6.89268">
        <ele>1968</ele>
        <time>2022-05-23T14:51:46+02:00</time>
      </trkpt>
      <trkpt lat="44.42819" lon="6.89262">
        <ele>1967</ele>
        <time>2022-05-23T14:51:50+02:00</time>
      </trkpt>
      <trkpt lat="44.42806" lon="6.89234">
        <ele>1963</ele>
        <time>2022-05-23T14:52:08+02:00</time>
      </trkpt>
      <trkpt lat="44.428" lon="6.89221">
        <ele>1962</ele>
        <time>2022-05-23T14:52:16+02:00</time>
      </trkpt>
      <trkpt lat="44.428" lon="6.89219">
        <ele>1962</ele>
        <time>2022-05-23T14:52:17+02:00</time>
      </trkpt>
      <trkpt lat="44.428" lon="6.89217">
        <ele>1962</ele>
        <time>2022-05-23T14:52:18+02:00</time>
      </trkpt>
      <trkpt lat="44.428" lon="6.89216">
        <ele>1962</ele>
        <time>2022-05-23T14:52:19+02:00</time>
      </trkpt>
      <trkpt lat="44.428" lon="6.89214">
        <ele>1962</ele>
        <time>2022-05-23T14:52:20+02:00</time>
      </trkpt>
      <trkpt lat="44.428" lon="6.89212">
        <ele>1961</ele>
        <time>2022-05-23T14:52:21+02:00</time>
      </trkpt>
      <trkpt lat="44.428" lon="6.8921">
        <ele>1961</ele>
        <time>2022-05-23T14:52:22+02:00</time>
      </trkpt>
      <trkpt lat="44.428" lon="6.89209">
        <ele>1961</ele>
        <time>2022-05-23T14:52:23+02:00</time>
      </trkpt>
      <trkpt lat="44.428" lon="6.89207">
        <ele>1961</ele>
        <time>2022-05-23T14:52:24+02:00</time>
      </trkpt>
      <trkpt lat="44.42799" lon="6.89205">
        <ele>1961</ele>
        <time>2022-05-23T14:52:25+02:00</time>
      </trkpt>
      <trkpt lat="44.42799" lon="6.89204">
        <ele>1961</ele>
        <time>2022-05-23T14:52:26+02:00</time>
      </trkpt>
      <trkpt lat="44.42799" lon="6.89202">
        <ele>1961</ele>
        <time>2022-05-23T14:52:27+02:00</time>
      </trkpt>
      <trkpt lat="44.42798" lon="6.892">
        <ele>1960</ele>
        <time>2022-05-23T14:52:28+02:00</time>
      </trkpt>
      <trkpt lat="44.42798" lon="6.89199">
        <ele>1960</ele>
        <time>2022-05-23T14:52:29+02:00</time>
      </trkpt>
      <trkpt lat="44.42797" lon="6.89197">
        <ele>1960</ele>
        <time>2022-05-23T14:52:30+02:00</time>
      </trkpt>
      <trkpt lat="44.42788" lon="6.89171">
        <ele>1957</ele>
        <time>2022-05-23T14:52:46+02:00</time>
      </trkpt>
      <trkpt lat="44.4279" lon="6.89168">
        <ele>1957</ele>
        <time>2022-05-23T14:52:59+02:00</time>
      </trkpt>
      <trkpt lat="44.42793" lon="6.89162">
        <ele>1957</ele>
        <time>2022-05-23T14:53:03+02:00</time>
      </trkpt>
      <trkpt lat="44.42793" lon="6.8916">
        <ele>1956</ele>
        <time>2022-05-23T14:53:04+02:00</time>
      </trkpt>
      <trkpt lat="44.42793" lon="6.89158">
        <ele>1956</ele>
        <time>2022-05-23T14:53:05+02:00</time>
      </trkpt>
      <trkpt lat="44.42793" lon="6.89156">
        <ele>1956</ele>
        <time>2022-05-23T14:53:06+02:00</time>
      </trkpt>
      <trkpt lat="44.42793" lon="6.89154">
        <ele>1956</ele>
        <time>2022-05-23T14:53:07+02:00</time>
      </trkpt>
      <trkpt lat="44.42792" lon="6.89152">
        <ele>1955</ele>
        <time>2022-05-23T14:53:08+02:00</time>
      </trkpt>
      <trkpt lat="44.42792" lon="6.8915">
        <ele>1955</ele>
        <time>2022-05-23T14:53:09+02:00</time>
      </trkpt>
      <trkpt lat="44.42789" lon="6.89115">
        <ele>1950</ele>
        <time>2022-05-23T14:53:28+02:00</time>
      </trkpt>
      <trkpt lat="44.42787" lon="6.89104">
        <ele>1949</ele>
        <time>2022-05-23T14:53:34+02:00</time>
      </trkpt>
      <trkpt lat="44.42786" lon="6.89102">
        <ele>1948</ele>
        <time>2022-05-23T14:53:35+02:00</time>
      </trkpt>
      <trkpt lat="44.42785" lon="6.891">
        <ele>1948</ele>
        <time>2022-05-23T14:53:36+02:00</time>
      </trkpt>
      <trkpt lat="44.42785" lon="6.89098">
        <ele>1947</ele>
        <time>2022-05-23T14:53:37+02:00</time>
      </trkpt>
      <trkpt lat="44.42784" lon="6.89096">
        <ele>1947</ele>
        <time>2022-05-23T14:53:38+02:00</time>
      </trkpt>
      <trkpt lat="44.42784" lon="6.89094">
        <ele>1947</ele>
        <time>2022-05-23T14:53:39+02:00</time>
      </trkpt>
      <trkpt lat="44.42784" lon="6.89093">
        <ele>1947</ele>
        <time>2022-05-23T14:53:40+02:00</time>
      </trkpt>
      <trkpt lat="44.42783" lon="6.89091">
        <ele>1947</ele>
        <time>2022-05-23T14:53:41+02:00</time>
      </trkpt>
      <trkpt lat="44.42783" lon="6.89089">
        <ele>1946</ele>
        <time>2022-05-23T14:53:42+02:00</time>
      </trkpt>
      <trkpt lat="44.42783" lon="6.89087">
        <ele>1946</ele>
        <time>2022-05-23T14:53:43+02:00</time>
      </trkpt>
      <trkpt lat="44.42783" lon="6.89085">
        <ele>1946</ele>
        <time>2022-05-23T14:53:44+02:00</time>
      </trkpt>
      <trkpt lat="44.42788" lon="6.89069">
        <ele>1947</ele>
        <time>2022-05-23T14:53:53+02:00</time>
      </trkpt>
      <trkpt lat="44.42788" lon="6.89037">
        <ele>1946</ele>
        <time>2022-05-23T14:54:10+02:00</time>
      </trkpt>
      <trkpt lat="44.42791" lon="6.89014">
        <ele>1946</ele>
        <time>2022-05-23T14:54:22+02:00</time>
      </trkpt>
      <trkpt lat="44.42784" lon="6.88976">
        <ele>1942</ele>
        <time>2022-05-23T14:54:42+02:00</time>
      </trkpt>
      <trkpt lat="44.42786" lon="6.88948">
        <ele>1940</ele>
        <time>2022-05-23T14:54:58+02:00</time>
      </trkpt>
      <trkpt lat="44.42784" lon="6.88937">
        <ele>1938</ele>
        <time>2022-05-23T14:55:13+02:00</time>
      </trkpt>
      <trkpt lat="44.42785" lon="6.88936">
        <ele>1939</ele>
        <time>2022-05-23T14:55:29+02:00</time>
      </trkpt>
      <trkpt lat="44.42786" lon="6.88936">
        <ele>1939</ele>
        <time>2022-05-23T14:55:42+02:00</time>
      </trkpt>
      <trkpt lat="44.42786" lon="6.88937">
        <ele>1939</ele>
        <time>2022-05-23T14:55:48+02:00</time>
      </trkpt>
      <trkpt lat="44.42787" lon="6.88937">
        <ele>1939</ele>
        <time>2022-05-23T14:55:55+02:00</time>
      </trkpt>
      <trkpt lat="44.4279" lon="6.88939">
        <ele>1940</ele>
        <time>2022-05-23T14:56:14+02:00</time>
      </trkpt>
    </trkseg>
  </trk>
</gpx>